GFSMW_250_rhum_000.txt.gz
RH
35 38 43 51 53 58 64 72 88 100 100 100 82 86 40 42 47 41 51 61 64 72 73 66 58 38 34 39 43 50 56 69 65 59 46 37 46 47 50 47 44 47 58
55 71 82 84 89 91 94 96 100 99 93 92 57 35 41 46 53 58 62 62 60 54 47 43 39 36 39 41 46 50 61 70 67 55 46 50 59 69 76 78 77 72 73
68 80 96 99 100 100 96 91 86 85 75 56 42 36 41 47 48 50 53 56 57 52 46 42 39 39 41 44 45 62 70 61 68 70 54 57 67 75 99 91 83 83 87
48 61 79 94 98 100 100 96 86 72 54 47 45 45 51 42 42 45 45 49 52 48 43 42 38 37 38 42 58 68 47 50 64 70 66 68 70 73 84 100 90 83 83
39 51 70 88 99 100 86 52 41 40 40 39 48 57 56 52 47 45 49 51 53 54 51 51 48 46 47 61 77 59 59 71 72 84 91 93 95 100 78 71 81 69 56
29 42 66 80 77 47 43 46 49 48 48 49 48 47 48 52 58 64 64 62 58 56 51 52 52 55 84 84 64 65 82 98 99 100 100 100 100 100 99 60 56 59 76
38 36 41 44 45 52 53 54 50 46 46 52 60 62 63 61 57 52 50 50 51 52 55 56 56 64 67 66 69 72 76 75 66 66 72 90 100 86 68 62 66 49 50
47 52 55 57 57 60 61 57 57 59 58 63 67 77 79 68 67 66 65 66 70 73 73 76 74 74 76 75 69 64 61 56 58 78 99 99 76 69 76 62 49 44 59
50 52 55 56 69 83 77 84 89 86 87 80 71 70 76 70 66 68 69 67 65 65 67 69 68 62 55 53 54 58 74 94 98 94 72 55 55 75 80 71 76 49 35
53 57 67 80 93 94 90 84 74 71 76 77 78 78 73 72 70 66 63 59 56 53 51 52 54 54 57 56 58 70 71 64 58 53 51 62 67 55 47 37 38 31 29
50 58 73 80 82 87 85 80 89 94 82 76 74 69 65 60 60 65 66 67 65 62 67 78 84 86 90 89 67 56 50 45 45 44 31 30 27 24 25 28 26 26 28
70 73 73 67 64 70 82 88 85 83 82 78 74 73 75 71 67 65 70 78 88 85 78 79 80 64 58 53 50 44 42 30 28 28 25 24 21 21 19 18 20 19 19
94 100 100 95 91 92 88 80 76 72 66 74 76 66 62 66 78 78 90 97 86 72 64 58 54 49 43 39 36 32 28 24 24 23 20 18 18 17 15 14 15 18 18
100 100 95 85 75 62 57 66 71 74 63 57 61 69 87 98 100 96 83 69 60 54 48 40 34 31 32 28 24 23 20 19 17 15 13 13 14 14 14 14 16 19 19
79 68 63 59 62 72 76 68 63 65 81 97 100 100 90 71 58 54 51 48 45 42 36 31 28 25 21 19 16 14 13 12 14 12 11 12 12 13 13 11 13 14 13
63 64 62 65 61 51 45 56 80 89 81 66 54 52 57 51 50 45 44 39 35 34 27 22 18 17 16 16 13 12 10 10 12 14 14 11 10 9 8 9 10 11 12
52 58 67 54 45 63 70 68 69 59 53 51 50 49 51 46 43 39 37 34 30 27 21 19 15 14 14 14 14 13 11 11 11 10 9 10 9 8 8 8 8 7 6
81 60 47 57 72 84 83 72 57 50 45 44 43 42 42 38 33 31 30 26 23 20 16 15 14 12 11 9 8 8 7 7 6 5 6 8 7 6 6 5 6 6 7
52 51 51 58 59 61 55 48 42 38 37 40 43 44 45 43 32 34 28 22 16 12 10 9 8 7 8 8 6 5 4 4 4 4 5 5 5 5 5 5 6 7 8
50 46 48 51 46 39 39 37 37 46 52 51 54 46 36 34 22 19 15 13 10 6 6 7 7 8 7 5 4 4 4 4 4 5 6 7 6 6 6 6 7 9 11
54 47 41 35 36 40 46 57 57 56 62 58 52 40 25 16 13 10 6 6 6 6 6 6 5 4 4 4 4 4 4 4 5 5 6 7 6 7 7 8 9 10 11
41 38 35 33 39 44 53 50 55 70 68 61 40 19 11 9 7 6 7 7 6 4 4 4 4 4 4 4 4 4 4 4 4 5 6 6 6 6 6 7 8 9 9
32 30 32 36 52 70 68 71 80 64 58 34 14 9 7 7 7 7 6 4 4 3 3 3 3 4 4 4 3 4 4 4 4 4 5 6 6 6 6 6 8 9 10
32 37 42 57 68 76 68 69 68 60 27 12 7 8 8 8 7 5 4 4 3 3 3 3 3 3 4 4 4 4 4 4 4 4 5 5 6 6 6 6 8 9 9
39 47 53 64 73 70 74 76 46 22 12 10 9 8 8 6 5 4 4 4 4 3 2 2 3 3 4 4 3 3 3 3 3 3 3 4 5 6 6 6 7 8 9
57 56 66 72 88 88 78 45 27 14 10 9 9 8 6 4 4 4 4 5 4 4 3 2 2 3 3 3 4 3 3 3 3 3 3 4 4 5 6 6 7 7 9

GFSMW_250_rhum_003.txt.gz
RH
24 18 28 31 28 29 23 30 34 40 46 58 70 83 100 100 86 86 87 48 41 46 44 48 60 66 67 62 55 50 44 43 36 35 38 41 43 59 64 53 61 72 77
23 22 40 37 34 43 48 54 64 70 75 84 90 89 86 88 88 76 45 39 43 46 48 58 62 60 62 62 53 41 37 35 35 35 36 42 59 91 74 61 75 81 87
23 22 37 48 54 67 82 96 99 100 97 92 88 90 91 86 68 52 40 37 42 48 52 53 54 55 50 52 46 45 44 43 53 54 48 49 75 91 86 74 83 92 90
26 22 22 33 51 58 79 88 88 91 97 97 85 80 79 72 50 40 38 40 48 50 46 45 46 50 51 52 57 65 76 86 75 77 79 74 71 63 57 67 78 94 100
25 23 24 25 33 61 79 92 90 98 100 94 87 62 47 46 51 53 55 56 50 49 53 58 61 60 59 64 74 76 65 62 66 78 80 71 66 70 68 71 75 80 84
24 26 29 30 28 40 50 68 89 93 73 47 56 65 72 72 75 89 95 92 89 87 83 79 76 83 88 81 78 75 74 74 70 68 71 72 74 76 68 58 54 62 95
29 28 30 32 29 27 29 40 47 46 56 62 65 65 66 78 86 85 87 88 90 95 99 98 95 86 80 79 77 74 70 71 70 67 63 64 62 62 70 62 63 63 71
40 33 31 34 36 38 41 53 62 61 64 66 64 67 71 69 69 75 83 84 86 89 88 85 82 76 69 66 64 56 54 56 56 57 64 62 67 71 59 52 58 58 63
51 42 39 41 42 48 56 58 60 62 63 67 75 76 76 72 70 77 81 79 77 76 67 57 51 52 59 59 46 49 53 56 51 48 47 42 40 48 56 53 48 41 34
63 49 46 47 50 56 60 61 63 67 71 72 69 67 73 89 93 83 75 67 58 59 57 57 56 60 61 65 70 63 58 49 52 53 49 41 36 35 34 34 31 31 24
79 67 58 59 63 61 57 67 76 76 80 93 99 100 91 72 63 62 65 67 69 74 82 90 86 80 86 77 71 70 57 50 45 40 37 30 24 22 22 19 18 17 16
100 89 80 73 76 83 85 83 97 100 94 85 78 67 61 62 64 65 69 76 82 97 93 86 80 66 55 49 51 46 39 30 25 24 21 18 15 14 14 14 15 14 13
100 100 100 100 100 97 95 100 94 82 75 72 67 61 64 62 64 88 100 100 95 80 66 56 49 42 42 36 30 27 24 22 22 18 16 16 15 14 12 13 13 12 8
100 100 100 100 94 97 100 88 76 69 60 59 61 58 61 80 90 98 90 81 62 55 43 37 35 34 29 26 24 22 20 19 15 13 13 13 12 8 9 11 10 9 8
100 100 100 100 93 79 71 65 54 54 58 59 54 58 66 74 66 53 48 42 38 35 37 34 34 31 30 27 24 21 16 12 11 9 8 8 8 6 7 7 7 6 5
100 88 80 70 62 60 59 46 48 54 58 55 58 54 50 49 41 39 44 48 49 44 38 41 34 26 21 17 14 11 9 8 8 7 8 8 7 6 5 5 4 4 4
65 59 58 57 51 46 46 52 63 65 63 51 46 40 36 36 49 51 55 58 50 41 33 27 21 17 13 10 8 8 7 7 6 6 5 5 5 5 5 5 4 4 4
58 57 56 54 51 61 74 76 67 48 46 38 34 35 42 48 58 62 61 49 40 28 22 16 13 10 8 7 7 6 6 5 4 4 4 4 5 5 4 6 6 5 6
63 55 56 71 80 71 63 50 40 34 31 34 39 40 50 55 67 60 40 29 18 14 12 10 7 7 6 6 5 4 4 4 4 4 4 4 4 5 4 5 6 7 8
66 87 93 82 64 47 38 34 34 33 31 38 44 48 54 62 57 37 21 16 13 10 7 6 6 5 4 4 3 3 3 3 4 4 4 4 4 4 5 5 6 7 7
99 85 69 52 45 37 36 35 32 33 39 53 62 64 69 52 36 19 11 9 7 6 6 5 4 4 4 3 2 3 3 3 3 3 3 3 4 4 4 4 5 6 7
70 57 50 39 40 45 40 34 38 45 55 61 68 60 45 36 18 11 9 7 7 6 5 4 3 3 3 3 3 3 2 2 2 2 2 3 3 3 3 3 4 6 6
58 47 47 57 46 37 35 40 52 62 69 70 55 46 39 18 9 8 7 7 6 4 3 3 3 3 4 4 3 2 2 2 2 2 2 2 3 3 3 3 4 5 6
48 57 48 38 33 34 42 52 61 69 78 65 56 45 21 12 9 8 8 6 4 3 3 3 3 4 3 3 3 2 2 2 2 2 2 3 3 3 3 3 4 4 5
52 42 38 32 32 38 49 58 71 82 66 64 44 26 14 8 9 9 6 4 4 3 3 3 3 3 4 3 3 3 3 3 3 3 3 4 4 4 4 4 4 5 5
40 35 33 34 37 45 53 68 76 68 66 42 25 12 8 8 8 6 5 6 4 4 3 3 2 3 3 3 3 3 2 2 3 3 4 4 4 4 4 4 5 5 6

GFSMW_250_rhum_006.txt.gz
RH
100 84 66 41 22 19 26 31 29 24 27 25 24 32 40 51 65 69 81 99 92 86 85 70 50 36 39 45 45 45 56 59 55 58 56 50 48 44 43 40 41 44 53
99 79 54 33 18 18 23 32 34 37 39 43 46 52 66 78 85 88 90 88 74 74 67 59 50 40 41 44 49 50 52 53 54 43 37 38 50 64 65 72 73 72 71
96 71 54 29 19 19 24 35 42 52 65 72 71 73 76 85 89 79 75 80 79 74 61 49 45 47 56 59 56 51 48 47 53 51 44 42 51 65 89 92 97 97 100
89 71 53 35 22 22 22 25 35 52 58 67 76 90 99 94 83 73 55 44 40 42 46 54 61 62 60 61 69 71 61 56 53 66 75 71 69 66 65 81 85 88 97
92 67 52 35 23 22 23 25 30 44 57 60 67 84 89 82 57 49 52 51 50 51 55 58 59 65 68 65 62 64 72 81 86 83 81 84 84 82 74 68 74 65 64
98 81 55 38 26 21 27 31 28 32 50 64 78 88 87 55 59 60 63 68 74 86 95 94 85 80 81 87 92 98 97 98 100 99 95 86 76 76 70 57 47 46 60
100 83 56 48 35 23 26 32 35 33 34 39 50 50 60 69 63 70 82 86 86 78 70 67 70 74 74 81 87 88 86 81 72 67 66 69 59 56 54 51 48 44 61
100 90 59 51 40 32 32 37 38 38 43 50 58 62 59 63 66 63 65 66 63 65 71 81 92 98 87 72 63 60 58 59 56 53 55 61 63 55 48 47 44 34 30
100 96 75 62 52 45 43 42 44 47 52 56 55 56 59 63 75 77 78 84 84 91 92 74 66 63 66 64 57 55 69 65 73 73 72 61 48 39 33 28 24 20 15
96 97 79 78 69 58 54 54 58 67 72 73 77 82 87 94 96 100 96 82 72 66 58 57 62 57 57 60 85 80 63 50 45 44 40 33 27 25 24 22 23 20 13
64 56 80 91 91 85 84 84 87 89 92 98 99 100 100 100 100 79 58 55 64 62 66 70 82 87 69 50 43 43 40 40 35 32 28 27 24 23 21 22 21 20 17
38 41 78 100 100 100 100 100 100 100 100 100 100 100 98 83 63 56 58 59 60 72 79 61 48 41 40 38 39 41 44 37 34 33 30 23 20 18 18 18 16 11 9
40 57 74 98 100 100 100 100 89 86 89 85 88 84 69 60 60 60 61 73 75 60 46 42 36 38 40 41 42 37 34 30 24 19 16 15 14 11 11 8 8 8 8
49 88 100 100 100 100 91 87 97 89 83 86 72 62 67 70 66 69 72 62 42 38 33 35 40 43 47 47 39 30 25 19 15 13 10 7 7 7 7 6 6 5 6
94 100 100 100 100 99 100 96 87 80 72 66 73 73 66 64 67 59 43 36 33 32 34 46 51 46 38 32 25 19 14 11 8 8 7 6 6 5 4 4 4 3 4
100 100 100 100 100 99 86 76 73 76 72 71 65 65 64 54 40 35 35 32 33 42 52 51 50 40 29 21 15 12 10 8 6 6 5 4 4 3 3 2 3 3 3
100 100 100 98 83 78 67 64 64 70 66 63 65 64 46 39 36 30 33 43 50 60 58 48 32 24 16 15 13 8 7 5 4 3 3 3 3 2 2 3 3 3 3
100 99 85 69 65 61 57 59 62 67 72 69 55 44 38 33 31 37 42 49 55 57 52 42 21 14 12 10 7 6 4 3 3 2 2 2 2 3 2 3 4 4 4
92 75 64 64 64 56 60 82 79 74 60 51 40 36 36 33 37 41 46 57 66 66 37 18 13 13 9 7 6 4 3 2 2 2 2 2 2 2 2 2 3 4 4
62 61 72 64 70 82 83 76 67 55 47 39 48 48 36 40 40 46 59 68 58 31 16 12 10 7 7 6 4 3 3 2 2 2 2 2 2 2 2 2 2 2 3
75 67 76 82 78 77 68 61 56 48 52 62 53 41 44 40 48 54 63 57 31 16 13 10 7 7 6 4 3 3 3 2 2 2 2 2 2 2 2 2 2 2 2
71 82 80 81 77 71 62 52 50 61 62 52 50 45 37 50 60 67 60 41 15 11 9 7 7 7 5 4 4 3 3 2 2 2 2 2 2 2 3 3 3 3 3
72 74 84 77 64 55 50 55 64 67 67 52 42 45 55 61 70 61 45 20 13 9 6 6 6 5 4 4 4 4 3 2 2 2 2 2 2 2 2 3 4 4 4
86 94 79 61 50 48 52 61 64 56 46 39 45 53 62 69 71 51 25 14 10 7 6 6 5 4 4 5 5 4 3 2 2 2 1 1 2 2 3 3 4 4 4
80 61 50 47 55 62 62 52 45 42 39 46 54 62 67 70 57 41 18 11 8 7 5 5 4 4 4 5 4 4 3 2 2 2 2 2 2 3 4 5 5 5 5
53 44 50 60 66 57 47 45 42 40 46 54 63 69 73 58 41 19 13 8 8 8 6 4 4 4 4 4 4 4 2 2 3 3 2 2 2 4 5 6 6 6 6

GFSMW_250_rhum_012.txt.gz
RH
19 27 34 68 98 100 94 70 49 30 28 22 19 23 34 37 33 32 28 26 30 33 41 45 51 66 97 91 73 62 58 42 36 40 43 45 51 55 53 58 56 55 54
20 24 42 91 100 94 77 57 47 40 32 29 22 21 27 39 48 53 55 56 60 70 86 94 96 93 82 75 64 42 44 47 42 41 47 58 83 73 62 61 59 54 55
17 21 28 59 85 100 93 71 65 53 37 27 28 29 30 39 41 57 74 81 84 86 86 83 74 73 65 56 44 55 53 60 66 57 42 39 42 44 59 67 62 59 55
19 18 25 31 71 98 90 81 74 54 40 32 30 30 31 28 36 42 50 61 65 66 68 65 67 68 57 59 68 66 62 58 52 59 65 56 44 35 36 42 45 58 68
18 16 17 23 34 61 74 91 88 71 50 36 34 32 30 29 29 30 34 37 39 40 46 52 58 62 70 70 64 57 55 59 65 65 69 71 74 65 45 39 38 51 49
20 18 16 17 25 35 71 87 98 98 86 62 44 37 38 37 36 37 39 43 47 53 60 64 65 67 64 66 75 81 82 81 77 72 65 58 53 54 57 50 42 37 35
23 22 20 18 18 22 36 72 89 98 91 96 89 74 57 49 49 52 54 55 60 64 67 70 76 83 92 92 87 83 83 79 79 74 66 63 56 46 42 37 34 35 40
26 22 21 21 20 18 22 28 34 42 56 81 96 98 94 83 69 63 63 66 68 76 83 91 99 100 90 85 78 76 80 72 66 59 51 51 47 41 37 35 36 35 31
26 24 23 22 23 21 19 23 27 28 29 32 38 51 86 99 100 99 98 100 99 100 100 100 89 76 69 69 69 59 56 56 53 51 48 44 40 36 37 33 29 21 16
28 26 24 23 22 23 25 27 28 25 25 26 29 33 67 69 87 98 100 100 100 100 97 83 77 73 68 58 51 53 52 50 52 49 45 36 37 34 31 31 32 28 19
31 29 26 24 24 24 25 25 27 28 28 31 34 34 33 43 66 82 95 98 94 86 74 72 71 63 55 56 52 50 54 51 47 39 37 38 36 32 33 33 27 22 20
34 35 32 28 27 26 24 24 24 26 29 33 32 33 32 32 51 77 83 89 90 75 77 66 59 61 60 54 52 52 48 40 42 41 40 36 30 33 31 26 26 16 9
32 32 32 30 27 26 24 23 23 22 26 30 34 36 39 50 66 89 92 98 86 76 63 67 71 58 47 54 48 38 41 44 45 40 34 32 34 31 29 24 13 6 5
29 29 33 32 26 24 23 23 23 23 25 29 40 40 45 63 87 88 98 93 72 73 77 64 48 50 52 38 36 44 46 44 38 39 39 38 34 25 16 11 6 4 5
29 29 32 31 25 23 23 24 24 23 31 43 42 44 73 97 100 100 84 72 79 72 52 49 54 40 34 44 44 48 44 44 48 45 41 29 16 10 7 4 4 5 3
29 30 31 28 24 23 25 25 24 27 38 42 59 94 100 100 98 92 93 72 64 52 51 41 34 42 46 49 50 45 51 52 44 34 19 11 7 6 4 5 5 4 3
28 29 28 24 24 26 27 26 34 43 51 69 89 100 100 100 86 79 67 55 50 40 38 39 41 49 53 53 52 56 54 45 25 15 8 7 5 4 5 5 4 4 3
27 26 24 25 27 28 30 42 51 61 79 98 100 100 88 75 66 52 51 40 39 40 39 45 54 61 55 56 57 55 42 23 14 8 6 5 4 4 4 4 4 3 3
24 22 23 26 30 44 61 66 83 93 100 96 86 88 61 49 52 46 36 41 41 45 51 60 66 57 60 59 54 35 22 13 9 7 5 4 4 4 3 4 4 3 2
23 29 39 53 69 73 77 79 90 97 98 86 56 48 54 56 35 37 41 45 51 55 60 61 62 57 60 51 30 18 11 9 7 5 4 4 4 3 4 4 3 2 2
50 63 72 81 89 93 83 83 96 80 58 50 58 61 52 38 39 45 51 55 54 69 61 52 58 60 40 24 14 9 8 6 5 5 5 4 4 4 4 3 2 3 4
86 91 93 92 77 76 95 94 72 62 62 66 65 48 40 43 48 54 55 62 60 50 55 63 57 37 21 12 9 8 7 5 5 5 4 4 4 3 3 3 3 4 4
83 66 62 78 74 80 80 66 64 70 72 59 47 44 44 46 53 62 65 51 53 61 59 44 28 17 10 9 8 7 6 6 6 5 4 4 4 3 3 3 3 4 4
54 64 76 69 70 66 63 68 76 65 55 51 46 46 53 67 71 56 52 58 58 50 32 20 13 10 10 8 7 6 6 6 6 6 5 4 3 3 3 3 4 4 4
82 72 66 63 67 78 81 67 56 57 53 52 56 64 70 64 58 57 58 57 49 28 16 10 8 8 7 6 6 6 7 6 6 5 4 3 3 2 3 4 4 4 5
58 57 75 78 75 68 60 60 59 57 59 64 69 71 60 55 58 57 56 43 25 13 10 8 7 7 6 5 6 6 5 5 5 4 4 3 2 3 4 5 4 5 7

GFSMW_250_rhum_015.txt.gz
RH
20 19 16 15 22 32 45 100 97 93 88 58 30 27 29 27 34 36 39 40 37 35 32 29 28 32 36 43 57 70 86 98 90 91 75 68 46 57 54 62 70 68 68
17 16 15 17 23 37 84 100 100 79 70 57 55 46 33 28 29 32 40 46 53 54 56 59 60 65 73 84 96 100 97 90 74 61 52 50 65 64 62 62 67 71 72
17 15 15 18 21 28 75 92 99 100 84 79 71 56 40 32 32 31 32 36 47 63 68 73 78 80 82 79 71 70 66 70 69 56 53 54 56 62 78 96 98 91 80
19 19 18 18 18 22 34 63 89 92 97 82 84 70 51 38 37 35 34 32 31 33 39 47 54 56 51 50 51 52 58 63 71 73 72 62 56 50 52 57 63 72 76
20 21 20 20 17 18 19 29 34 50 64 75 78 84 74 71 68 64 56 44 42 42 41 42 42 42 46 54 60 67 65 60 62 62 62 63 63 64 60 51 44 44 45
24 24 23 21 19 18 17 18 20 23 32 53 65 67 73 65 69 80 82 81 83 74 68 66 65 66 65 64 66 66 65 64 69 76 75 64 59 54 53 50 48 51 47
25 27 27 24 21 22 22 20 18 17 18 22 24 23 23 23 24 28 28 32 46 56 66 78 93 100 99 95 88 91 94 84 74 64 66 71 64 56 56 51 46 46 48
28 29 28 27 26 24 26 25 24 22 21 20 18 16 21 23 22 21 24 28 30 32 36 45 63 61 60 74 81 82 83 72 69 65 62 63 59 54 48 48 44 37 40
32 33 32 28 27 28 28 29 27 24 24 22 21 20 19 19 20 23 26 30 31 33 34 36 39 40 50 61 77 81 80 80 73 57 58 57 49 52 48 42 46 43 32
33 39 39 37 33 32 30 31 30 28 26 24 21 20 20 20 20 21 24 25 32 34 34 35 41 46 77 92 89 96 82 63 67 65 51 52 48 44 54 52 42 37 30
37 36 35 34 34 35 34 32 32 31 28 24 22 20 21 21 22 21 23 30 35 37 40 44 60 92 100 93 84 65 67 71 58 50 47 45 52 55 46 38 34 30 26
36 37 37 31 28 27 30 30 29 29 29 29 24 22 22 22 22 25 28 37 39 43 51 75 98 100 96 74 80 79 66 53 44 43 52 54 50 43 36 33 28 22 21
35 34 31 28 27 28 29 29 28 26 30 30 26 23 21 22 26 27 35 41 43 60 84 100 94 79 84 75 61 54 44 42 48 51 53 51 38 31 27 22 22 17 12
40 35 33 29 28 29 28 28 28 27 28 28 26 23 22 26 30 39 45 56 72 86 94 88 86 84 61 56 48 40 45 49 52 51 44 32 29 24 23 23 16 10 7
36 35 33 30 29 28 27 28 27 26 26 26 24 23 27 33 38 51 58 66 79 92 85 77 65 54 53 37 39 45 48 47 48 40 36 32 27 25 18 11 8 7 5
30 29 28 28 29 28 27 25 25 26 27 25 24 27 33 43 56 66 71 89 91 79 74 60 57 44 35 38 43 43 50 49 39 37 32 28 24 13 9 7 6 5 5
27 30 31 32 30 28 24 24 26 26 25 24 30 41 50 67 76 83 88 83 72 61 52 52 36 35 37 44 50 53 45 42 36 32 26 20 12 8 6 5 5 6 5
32 33 33 31 27 24 24 25 25 25 28 36 50 59 81 73 81 88 88 63 48 54 41 34 33 42 51 57 54 48 41 35 32 28 15 9 7 5 5 5 6 5 4
36 34 31 27 24 24 27 26 28 34 50 56 72 73 77 88 89 68 51 52 53 37 34 39 46 55 60 50 50 39 35 33 25 14 9 6 5 5 5 4 4 4 4
31 28 25 26 30 28 29 36 46 60 66 72 75 85 78 66 57 55 58 44 43 44 40 50 58 56 58 53 40 34 29 16 10 9 7 5 4 4 4 4 3 3 3
25 28 30 29 34 45 49 64 70 77 74 77 78 63 55 55 60 56 45 50 44 47 54 53 55 56 46 38 35 25 13 8 7 6 6 5 5 4 4 3 3 3 3
30 36 45 54 58 77 78 72 62 66 82 68 58 56 62 60 50 50 50 50 50 52 52 57 55 46 37 31 20 12 9 7 6 5 5 5 4 4 4 3 3 3 2
53 55 58 77 75 72 68 76 91 85 64 57 64 62 53 52 53 54 53 52 52 54 58 49 41 36 23 14 10 8 7 6 5 5 5 4 4 4 4 4 3 2 3
77 84 73 64 61 64 61 61 58 55 58 62 50 50 53 57 58 54 52 54 58 52 45 40 32 20 12 9 7 7 6 6 6 5 4 4 4 4 4 3 3 3 5
79 77 81 65 56 54 54 52 50 57 52 48 51 56 63 64 60 61 62 53 48 45 39 28 16 8 8 7 6 6 6 6 5 5 5 4 4 4 3 3 4 5 5
74 63 53 47 45 45 48 53 53 51 52 56 64 70 66 66 65 60 51 44 40 33 25 12 8 8 6 6 6 6 5 4 5 5 4 4 4 3 3 4 6 6 6

GFSMW_250_rhum_018.txt.gz
RH
66 56 37 25 20 19 18 19 20 22 65 79 91 95 92 64 52 47 34 28 28 30 34 36 41 48 53 51 47 47 49 52 55 62 72 80 95 100 100 98 83 90 67
42 31 24 20 19 18 18 16 20 33 100 96 73 82 85 74 72 63 45 34 33 34 35 35 34 41 48 57 66 75 81 82 82 90 88 96 98 77 72 73 64 66 72
32 25 21 18 18 17 16 18 20 32 70 92 96 100 93 74 75 78 71 58 49 50 49 49 44 40 38 36 38 41 43 53 53 47 45 46 49 53 64 69 69 71 74
29 22 22 20 21 18 18 17 19 23 31 38 47 55 61 64 77 77 80 76 67 67 72 72 72 74 74 69 65 65 65 66 69 72 74 73 70 68 69 84 90 100 92
27 24 24 23 22 22 20 17 17 18 19 20 20 23 26 31 34 30 25 26 23 24 26 27 28 29 29 37 40 40 40 46 39 38 50 72 76 68 63 69 75 64 56
26 30 25 25 24 23 21 20 20 20 21 21 21 20 19 18 18 17 17 19 19 20 20 20 20 21 23 24 24 23 24 26 27 29 32 36 42 50 57 61 80 78 70
32 31 27 31 29 26 25 25 24 22 22 25 26 25 24 22 21 19 18 17 18 18 16 17 17 16 17 17 19 22 24 24 28 34 48 55 71 70 68 66 70 60 58
33 30 30 33 33 28 26 26 27 27 27 29 31 28 26 24 23 22 20 18 17 16 17 19 19 18 17 16 20 23 24 27 40 56 75 82 92 92 84 70 48 44 46
34 35 36 32 34 33 32 32 34 34 32 33 31 27 25 25 25 25 24 23 21 19 18 19 19 19 18 20 24 24 34 45 84 97 94 91 81 64 65 56 46 31 25
54 46 42 39 39 35 36 36 34 30 29 31 30 26 25 25 25 25 25 26 25 22 21 20 21 20 25 30 31 46 73 94 100 90 80 84 72 58 51 38 35 33 30
50 42 40 35 37 39 41 38 32 30 30 29 28 27 26 26 26 25 25 26 25 24 22 22 23 26 30 43 63 86 93 80 78 83 71 63 55 45 34 33 34 32 30
41 36 36 40 42 35 34 31 32 32 30 28 28 28 27 27 26 26 27 26 26 23 23 24 27 39 56 64 81 92 84 76 67 59 60 49 34 32 33 32 30 23 23
37 37 39 43 38 37 36 35 34 34 31 30 29 29 27 25 25 25 24 25 23 24 26 31 43 60 66 78 92 86 68 54 56 54 40 30 30 31 28 24 23 20 16
39 37 39 40 40 38 36 36 35 32 31 30 30 29 27 25 23 25 25 24 24 26 35 44 62 68 73 77 70 58 56 59 49 35 31 32 29 24 22 23 16 13 8
39 40 40 40 40 38 37 34 30 29 31 32 31 30 27 24 25 25 23 24 28 36 45 60 75 76 69 63 53 57 54 45 40 37 31 25 23 23 19 14 8 7 6
41 43 42 40 37 35 34 31 31 31 32 33 32 30 26 25 25 24 25 32 40 50 56 64 70 61 55 57 54 44 41 42 33 27 25 26 24 20 12 7 6 6 5
32 32 32 32 32 31 28 31 32 33 34 34 31 26 26 26 25 30 38 41 51 58 63 59 52 54 55 46 43 46 40 32 28 26 25 25 15 9 6 6 6 5 4
33 32 32 30 27 29 33 35 37 37 35 29 26 27 27 29 36 40 54 54 55 56 53 56 55 46 43 48 47 38 33 30 30 29 21 12 8 6 6 5 5 5 4
30 30 30 32 37 40 39 39 37 30 25 27 29 30 37 44 48 50 52 55 53 58 59 48 43 46 48 41 35 32 35 34 28 18 11 7 7 6 5 4 4 4 4
43 44 45 43 41 38 34 28 24 28 33 34 36 49 55 50 51 56 56 54 58 54 42 43 46 45 42 35 36 34 28 22 14 10 8 7 5 5 5 4 4 4 3
41 38 35 31 28 25 26 31 34 38 46 54 56 50 48 48 49 51 50 55 45 43 45 48 46 37 35 39 38 31 17 10 8 7 6 5 5 5 4 4 4 3 3
26 26 26 26 28 32 35 42 42 52 57 56 50 47 50 51 47 49 49 44 44 50 52 44 38 36 41 40 28 16 10 8 6 5 5 5 4 4 4 4 3 3 3
26 27 31 32 46 53 56 56 60 59 57 54 50 46 43 45 49 45 45 51 54 52 43 38 35 38 36 24 14 8 8 6 5 4 4 4 4 4 4 3 3 3 3
33 48 59 61 68 69 69 63 62 58 53 48 46 48 50 45 44 51 55 55 52 40 38 36 37 29 21 13 8 7 6 5 5 5 4 4 4 4 4 3 3 3 3
71 79 78 78 80 64 61 60 51 46 43 51 53 47 44 52 57 59 58 52 45 39 35 32 23 16 10 8 6 5 5 4 5 4 5 4 4 3 3 3 3 3 4
82 93 89 77 67 64 59 49 45 56 59 51 46 50 57 57 62 60 63 52 44 39 32 21 12 8 7 6 5 5 5 4 4 4 4 4 3 3 3 3 4 5 5

GFSMW_250_rhum_021.txt.gz
RH
33 46 66 89 100 93 74 56 36 20 18 19 21 21 85 99 97 89 100 97 83 79 70 51 39 37 38 40 43 40 35 32 39 47 53 56 61 69 68 67 74 83 82
33 81 100 96 80 55 39 24 20 18 18 21 22 35 77 92 77 98 92 88 72 76 76 70 63 54 53 56 55 52 53 52 47 46 48 51 52 52 55 58 59 60 64
57 100 90 72 48 30 23 20 19 20 22 21 22 26 41 51 58 56 52 51 57 52 47 41 36 28 26 34 34 34 38 43 44 44 50 60 71 82 96 94 92 83 83
79 89 60 56 30 24 21 21 22 21 21 21 20 22 25 24 22 22 22 23 21 19 18 17 18 17 16 16 17 18 19 18 19 20 20 20 21 22 29 52 72 80 93
86 58 51 37 26 24 22 25 24 23 20 20 20 21 21 22 22 21 19 19 20 20 19 18 18 18 17 17 16 15 15 15 15 16 16 15 15 14 13 15 19 24 29
71 51 46 32 26 26 26 26 24 24 24 22 22 23 22 23 24 24 24 24 24 24 23 21 20 20 20 19 18 16 15 15 16 16 14 14 14 17 19 18 23 27 35
66 50 42 35 28 30 28 28 27 27 28 25 25 27 27 29 28 26 24 24 24 23 22 22 21 19 18 18 17 16 14 15 16 15 15 16 19 18 20 24 37 50 67
58 50 44 38 33 32 30 33 32 28 28 27 28 30 31 28 26 24 24 23 23 23 23 21 18 17 16 15 15 14 15 16 16 16 18 19 21 28 38 40 37 41 42
56 51 46 39 38 32 30 34 33 33 34 33 32 32 30 27 26 26 25 24 24 24 22 19 17 15 14 15 15 15 16 18 19 25 24 32 43 59 69 64 42 30 30
57 54 51 45 40 32 31 36 36 40 36 34 36 29 26 28 29 27 24 23 25 25 22 20 17 16 15 17 16 17 21 26 28 34 54 68 69 66 52 42 37 33 28
59 54 51 44 36 40 47 45 44 39 36 35 32 30 32 32 30 25 25 26 27 27 25 21 17 18 19 19 20 23 28 33 45 54 62 65 57 50 50 46 36 29 29
61 53 49 44 47 58 55 50 47 43 42 36 34 38 36 32 28 26 24 27 30 28 24 19 19 23 22 24 28 32 37 48 57 67 58 53 53 50 38 34 33 31 28
57 51 50 53 56 58 57 53 46 42 44 42 40 36 32 29 27 26 27 31 30 26 21 21 25 24 25 32 33 39 48 60 60 53 54 48 38 38 36 34 29 28 24
53 51 54 59 57 55 53 49 46 45 44 40 39 34 32 29 26 28 32 31 26 21 23 26 25 28 31 33 40 46 53 53 56 49 39 40 38 36 30 26 23 17 15
52 46 51 56 53 52 53 49 43 43 41 39 35 34 30 27 31 33 32 25 22 24 26 27 30 33 37 44 48 45 52 50 39 39 41 38 31 26 24 18 15 11 6
47 45 50 52 52 48 43 42 42 41 38 36 34 29 30 34 35 32 24 23 25 29 32 34 38 45 45 45 43 47 40 36 38 38 34 28 25 24 18 13 7 5 4
47 47 49 49 45 41 39 40 39 37 35 31 30 34 37 36 29 22 22 29 32 37 41 44 45 46 43 44 43 37 39 40 35 29 26 25 21 15 8 6 5 5 4
40 41 42 40 38 39 38 36 35 31 34 38 38 37 33 25 22 25 33 37 39 46 50 44 42 43 44 39 38 40 33 31 29 24 23 17 12 6 6 4 5 4 4
37 38 37 35 34 33 33 32 34 40 40 39 33 26 23 24 30 41 40 46 53 55 43 44 45 45 41 40 36 33 32 25 22 20 15 8 6 6 5 4 4 4 3
41 37 36 35 35 35 36 35 42 39 31 24 24 24 31 42 39 46 55 54 46 45 47 51 44 40 39 37 35 26 19 19 19 13 7 6 5 4 4 4 4 3 4
48 42 38 39 40 43 43 39 31 24 23 25 31 40 39 47 56 58 48 46 44 52 49 42 42 38 38 35 26 20 19 14 8 7 6 5 5 5 4 4 3 4 3
44 48 50 51 46 39 27 23 23 26 32 40 46 52 56 58 56 50 44 51 55 44 44 42 46 45 35 27 23 22 14 8 6 5 4 4 4 4 4 4 4 3 3
53 46 37 27 24 23 25 26 35 46 51 53 64 60 55 51 46 53 60 49 45 44 44 47 40 37 29 26 21 13 9 7 6 4 4 4 4 4 4 4 3 2 2
26 26 25 27 28 30 40 53 55 62 64 61 53 53 48 51 64 58 47 47 45 49 46 40 35 30 24 16 12 8 7 6 5 5 4 4 4 4 4 3 2 3 3
29 31 33 39 50 56 58 65 71 66 54 50 45 49 69 67 53 51 49 52 52 45 40 35 28 18 13 10 7 7 5 5 5 4 4 4 4 3 3 3 3 4 5
44 48 58 61 64 62 63 60 55 49 44 56 75 70 57 52 52 55 59 54 50 48 41 29 16 12 9 7 7 6 5 5 4 4 4 4 3 3 4 4 4 5 7

GFSMW_250_rhum_024.txt.gz
RH
34 31 49 71 81 100 100 100 100 100 100 100 89 73 35 20 21 19 37 68 83 81 95 90 83 67 64 56 51 48 43 34 36 46 48 46 45 51 50 47 45 45 46
34 30 34 43 51 56 64 90 97 98 89 63 37 21 19 20 19 23 39 61 62 60 55 55 50 45 38 28 22 19 18 16 15 16 17 19 18 19 19 21 24 29 40
36 32 35 32 41 56 70 84 81 69 43 24 19 19 20 22 26 30 30 27 24 21 21 21 19 18 17 17 16 17 19 19 17 18 17 16 16 17 18 18 18 18 19
40 31 34 33 55 79 90 70 51 30 21 21 21 24 25 25 26 24 22 21 21 20 20 20 21 22 20 18 18 19 19 19 17 16 16 16 16 15 20 25 25 24 25
38 27 41 50 81 92 70 47 30 24 22 24 23 23 22 22 24 25 24 23 21 21 23 23 23 21 19 19 19 16 15 14 13 13 14 14 14 13 11 14 20 24 25
41 31 47 62 92 78 55 38 28 24 26 26 26 25 25 27 27 26 27 26 25 23 22 22 21 19 19 18 16 16 15 14 13 13 12 13 14 13 13 13 14 14 15
46 32 53 80 86 57 44 35 29 27 27 28 27 28 29 31 31 31 31 28 25 24 23 22 20 20 19 19 19 18 16 14 14 13 13 14 13 12 14 14 18 22 26
45 25 66 89 69 48 44 36 32 30 30 34 33 32 35 35 35 33 30 28 26 26 24 23 22 20 19 19 18 17 16 16 14 14 14 16 16 16 19 20 17 20 28
36 30 81 76 63 50 45 38 38 32 34 42 39 36 35 37 36 33 31 28 28 26 27 24 20 20 19 19 19 18 16 15 16 17 19 19 21 27 26 26 28 27 28
32 49 82 68 63 54 48 43 41 38 37 35 36 38 36 36 33 31 30 30 28 30 26 23 20 19 20 22 20 17 17 18 19 21 24 29 29 32 34 36 36 36 26
30 54 74 66 58 55 51 49 48 45 38 38 42 37 39 36 34 32 32 32 32 31 27 21 21 22 25 23 18 18 19 24 25 28 30 30 36 37 36 39 33 26 25
37 72 76 66 58 56 54 54 55 49 43 46 43 45 41 36 36 35 34 35 37 31 24 22 24 28 25 20 19 21 26 31 36 34 35 34 35 39 33 28 28 32 33
50 77 76 66 58 58 56 60 59 52 50 58 57 48 43 41 36 36 40 39 32 25 23 27 30 26 20 20 26 31 34 37 37 34 33 38 35 31 32 34 32 28 23
59 72 77 65 59 58 58 59 59 57 60 59 57 52 44 40 41 44 38 31 28 25 30 30 24 21 23 27 34 38 38 39 34 37 40 33 32 35 32 27 25 22 17
63 66 72 68 64 63 58 56 57 57 61 59 51 47 44 44 41 36 31 29 28 33 28 22 21 24 32 38 37 35 36 37 43 40 35 36 33 27 24 21 16 13 8
66 69 72 72 71 66 58 55 54 54 56 53 50 46 44 38 34 32 29 32 33 27 21 22 29 36 39 39 33 34 43 42 38 37 37 32 28 24 22 16 9 6 4
71 72 73 69 68 66 62 56 50 50 52 52 48 42 35 34 33 29 30 32 25 22 24 33 37 43 39 33 39 45 44 40 40 35 31 28 23 18 10 6 6 5 3
74 72 70 71 71 69 64 55 50 50 50 47 38 35 34 31 28 32 30 23 23 30 38 41 42 34 37 47 47 40 44 45 36 31 26 20 11 6 6 5 4 4 3
74 70 68 67 66 63 58 54 48 44 40 36 34 32 30 32 34 26 22 24 40 42 47 38 36 44 52 45 42 46 41 38 30 27 18 7 6 5 4 4 4 4 4
69 65 66 69 63 53 48 47 45 38 35 34 32 34 39 30 23 23 34 41 48 43 40 40 52 51 44 48 44 39 34 30 25 13 8 6 6 5 4 4 4 4 3
70 68 68 70 69 60 51 43 41 37 35 40 44 33 24 23 28 39 47 52 40 39 52 62 50 47 48 46 40 35 28 16 10 9 8 6 5 4 4 4 4 4 3
61 60 59 57 53 47 43 40 39 47 46 33 26 24 25 37 46 53 43 40 54 66 56 52 56 56 51 43 38 28 16 11 9 8 6 5 5 5 4 4 4 3 3
60 55 48 42 43 53 54 54 39 29 25 24 24 34 43 54 47 40 46 68 62 54 57 59 58 52 47 41 28 15 13 10 8 6 5 5 5 4 4 4 3 3 3
53 57 68 66 54 40 30 26 25 25 25 31 40 54 49 42 42 65 70 61 58 61 58 53 52 51 45 22 14 14 11 9 6 5 5 5 5 4 4 3 3 4 4
53 44 33 28 25 24 25 26 29 33 40 52 51 45 43 58 70 64 58 61 62 56 53 53 51 40 17 14 13 10 8 6 6 6 5 5 4 4 4 4 5 5 6
25 25 26 27 26 29 41 43 48 52 46 42 42 53 67 67 64 64 65 61 56 54 54 51 29 16 14 13 10 8 6 6 6 5 5 4 4 4 4 5 6 7 9

GFSMW_250_rhum_027.txt.gz
RH
18 18 22 29 31 31 35 100 100 100 100 100 100 100 100 100 100 100 100 79 44 23 20 24 37 39 30 38 34 28 22 20 22 22 21 20 20 19 19 18 18 18 17
21 22 22 26 30 30 32 77 100 100 100 100 100 100 100 100 100 89 57 38 19 21 28 29 25 23 23 21 22 22 21 20 21 20 20 21 17 16 16 16 17 17 17
25 28 30 32 30 31 32 54 72 95 100 100 100 100 100 88 66 41 22 20 23 28 26 25 23 21 20 21 24 24 22 21 20 21 20 19 19 20 22 20 17 16 16
29 31 35 42 37 31 31 36 49 67 86 96 83 68 51 38 25 20 22 27 29 24 23 24 25 24 24 24 24 23 22 21 20 19 19 19 19 21 23 25 24 22 22
34 38 33 33 37 35 34 28 35 66 100 74 52 33 26 22 25 26 28 26 25 26 27 27 28 27 25 23 22 22 22 21 20 19 18 18 17 16 15 14 17 21 23
36 39 35 31 40 41 38 29 43 92 79 50 35 29 26 26 25 25 24 28 29 30 31 29 28 26 23 22 22 22 21 20 18 19 20 20 18 18 16 15 12 12 20
37 42 37 35 37 40 32 32 58 84 62 44 36 30 30 28 28 29 32 33 34 32 32 31 30 28 23 23 22 23 23 20 20 20 20 18 16 16 14 13 13 16 18
41 42 35 33 37 40 34 39 67 76 52 44 36 31 30 28 29 32 33 35 34 35 39 33 30 26 26 26 27 25 25 22 20 20 19 18 16 16 14 14 14 14 18
41 44 42 29 44 43 39 48 68 68 51 44 37 35 34 34 34 36 37 37 37 40 35 32 31 30 30 29 28 29 24 21 21 22 19 17 17 18 17 17 18 18 20
43 48 36 30 52 51 46 60 70 62 50 46 41 40 40 38 36 36 38 38 39 42 36 33 33 31 30 29 30 26 22 23 25 19 18 18 19 24 25 25 28 30 28
45 59 37 34 53 63 56 73 72 60 51 48 46 45 46 46 43 38 41 47 45 40 36 35 32 30 30 31 29 23 25 26 20 18 19 24 28 31 28 30 35 31 25
42 49 34 33 47 67 68 73 67 63 56 52 52 55 55 54 51 48 47 50 47 44 40 36 33 33 34 30 26 24 26 21 19 21 26 31 27 30 35 34 28 24 25
47 53 40 45 53 66 70 70 65 62 59 58 58 58 59 59 54 53 53 51 51 45 40 37 36 33 30 28 26 27 21 20 24 30 31 28 32 36 31 28 29 27 25
50 47 38 46 54 67 70 68 66 63 60 60 60 60 62 61 59 56 55 54 48 44 39 37 32 30 29 29 27 21 22 27 33 28 30 38 34 31 32 31 26 23 18
64 52 46 51 65 70 71 72 70 64 60 60 61 60 59 58 57 55 54 53 50 46 42 32 31 29 32 25 21 27 33 34 31 39 41 39 40 36 30 23 20 15 8
60 45 50 51 57 74 75 73 70 62 60 61 62 61 59 57 54 50 49 48 47 42 34 32 32 33 24 22 33 35 31 40 45 42 45 46 38 30 24 21 12 6 4
54 45 48 58 70 74 79 74 67 63 62 68 69 67 62 58 56 49 47 44 38 36 32 36 29 23 28 33 34 35 51 45 43 49 47 37 30 23 16 9 7 5 4
57 59 74 83 78 71 76 78 73 72 76 75 72 69 66 60 52 46 42 40 35 36 35 26 24 34 32 32 44 49 43 52 58 48 37 28 22 14 7 6 6 5 4
79 83 89 84 76 73 76 76 75 73 72 72 70 65 56 49 46 45 40 37 40 29 23 29 32 34 35 52 46 46 58 60 51 38 30 19 10 8 7 6 5 5 4
83 86 85 76 71 72 76 76 70 67 67 68 68 61 55 51 43 38 42 32 25 25 34 37 35 41 53 42 49 63 57 44 39 32 13 9 9 8 6 5 5 5 4
76 78 76 74 76 78 76 76 72 68 70 71 63 55 46 42 45 35 26 26 33 39 38 38 51 47 43 55 60 52 45 38 27 12 10 10 9 6 6 5 5 4 4
79 76 77 76 72 72 73 72 71 70 64 55 47 47 48 36 27 26 32 36 40 35 43 55 50 54 59 57 54 50 39 23 12 11 9 9 6 6 6 5 4 4 3
80 77 75 75 75 74 74 68 62 55 49 55 52 35 28 28 34 38 39 34 36 50 52 54 63 60 60 57 55 50 26 14 13 11 8 6 6 6 5 4 4 4 4
83 82 80 78 73 67 66 60 63 62 50 33 28 28 36 42 38 35 37 51 57 60 65 59 57 60 60 57 45 23 14 13 12 9 6 6 6 5 4 4 4 5 6
80 74 69 69 72 78 78 62 40 31 28 31 40 43 39 36 40 54 55 57 65 61 52 59 60 61 62 34 18 14 12 10 9 6 6 6 5 4 4 5 6 7 7
78 81 83 81 69 45 32 28 30 41 47 46 41 35 42 58 59 58 68 62 55 54 58 55 58 57 26 17 16 11 9 9 6 6 6 6 5 4 5 7 7 9 11

GFSMW_250_rhum_030.txt.gz
RH
24 23 25 28 27 23 23 23 28 26 24 29 52 62 70 70 67 92 100 100 92 87 93 96 99 73 27 20 25 22 23 24 24 23 21 24 24 24 24 24 23 22 22
23 25 26 27 30 31 25 23 29 30 26 25 59 79 100 100 100 100 100 100 100 100 96 94 62 24 22 24 25 23 23 22 23 25 26 27 24 23 24 24 22 21 20
25 27 29 29 30 32 32 27 29 31 29 26 43 100 100 100 100 100 100 100 100 99 77 53 22 27 28 24 25 26 26 25 27 26 25 25 27 29 31 28 23 21 21
31 30 30 32 33 31 32 31 34 35 33 31 47 100 100 100 100 100 100 96 81 41 29 26 29 27 25 28 29 28 30 29 26 23 23 23 24 30 31 29 26 26 29
51 34 33 34 32 33 32 30 38 39 34 29 51 68 91 99 97 84 63 38 31 26 30 30 25 27 30 32 30 32 32 28 29 26 25 26 26 24 22 20 22 26 26
57 42 36 35 31 34 38 34 34 40 36 34 37 50 84 84 69 45 35 26 26 26 27 26 30 31 35 34 34 35 34 32 30 27 27 28 29 26 24 21 20 19 22
52 56 44 40 38 36 42 39 36 39 36 34 35 55 85 73 49 38 32 30 28 28 29 31 36 40 37 35 34 36 33 31 30 30 28 25 23 24 22 20 18 19 19
66 64 53 43 43 42 41 35 37 39 36 37 40 72 93 64 47 40 34 32 30 30 30 32 36 38 37 33 32 34 34 32 31 29 28 25 25 26 23 19 20 19 17
66 65 56 51 43 45 46 42 36 40 37 40 50 81 85 59 47 41 37 36 38 37 36 38 38 35 33 34 36 37 38 34 32 32 29 26 27 24 22 23 18 15 16
77 66 56 52 46 43 45 50 41 39 39 45 55 80 78 58 50 45 43 43 45 45 45 45 44 42 39 40 36 40 40 37 33 31 27 25 24 25 24 19 20 24 24
79 75 54 52 50 40 45 51 44 39 41 49 60 78 73 59 51 48 47 47 50 52 54 54 53 51 48 43 44 43 41 38 34 27 27 26 28 23 20 23 29 36 33
92 81 70 48 46 38 47 53 41 42 46 54 66 76 73 59 54 52 52 54 59 59 59 59 57 54 47 45 45 45 40 37 30 28 28 30 21 22 27 32 42 33 26
95 71 61 42 42 43 50 46 43 44 50 55 64 79 71 62 58 58 60 62 62 62 61 59 56 53 50 45 41 39 35 31 30 31 25 20 26 29 38 38 31 27 25
70 62 48 40 43 44 50 51 50 43 45 54 71 76 69 65 61 63 64 63 63 63 61 58 55 52 48 42 39 35 33 32 31 22 22 29 33 42 37 32 30 24 20
70 52 40 42 39 44 50 56 48 45 56 74 82 77 72 66 66 64 64 63 64 65 65 62 59 53 44 39 36 35 34 27 22 27 30 38 41 39 39 30 23 19 19
65 46 39 40 46 54 49 50 53 69 81 92 90 79 74 71 68 65 63 62 66 72 68 63 53 44 40 38 36 34 24 24 30 31 44 42 48 45 35 26 21 18 8
53 40 41 46 54 52 48 60 78 90 96 97 91 83 77 73 69 66 63 70 73 70 63 55 48 44 39 38 27 24 29 31 36 40 45 53 44 34 23 20 15 9 7
47 43 47 63 74 65 67 81 94 96 96 92 87 82 78 74 72 74 75 69 66 63 56 50 42 41 31 24 27 30 31 40 42 53 50 46 36 24 19 12 10 8 7
52 51 65 90 83 75 80 85 94 100 99 92 87 85 86 81 76 69 69 67 59 56 47 46 36 26 25 30 30 39 41 50 53 53 47 36 28 14 11 9 7 6 6
58 65 87 92 84 80 80 84 90 94 93 88 90 82 78 75 76 74 62 61 53 48 47 29 24 31 30 37 41 46 52 54 54 50 38 23 13 10 10 7 7 6 6
60 84 95 92 84 84 90 95 98 100 93 84 77 79 80 75 67 66 56 52 52 33 26 31 32 35 42 44 52 52 52 50 50 41 21 13 10 10 8 8 6 6 6
77 94 97 97 96 96 98 100 100 90 80 81 82 76 73 74 64 59 59 37 29 30 34 34 45 43 50 54 53 53 53 49 38 22 13 10 10 9 7 6 6 6 5
84 94 95 97 98 95 91 89 88 86 84 80 77 79 68 68 72 45 31 30 38 35 44 48 47 58 58 55 56 59 52 39 21 12 10 10 8 7 6 7 6 5 4
82 89 92 92 91 89 89 88 89 87 79 80 75 74 78 53 33 29 40 36 39 53 47 52 55 54 54 56 56 54 37 19 13 13 11 8 6 6 7 6 5 5 6
77 83 84 84 85 85 87 85 83 82 80 77 75 53 36 32 37 37 43 59 52 50 54 56 56 54 51 55 51 30 14 11 11 9 7 6 6 6 6 5 6 6 6
55 68 78 81 79 78 81 84 79 72 61 43 36 35 37 38 37 60 59 50 53 56 57 52 46 47 53 44 23 12 11 10 8 6 5 6 6 6 5 5 6 7 10

GFSMW_250_rhum_033.txt.gz
RH
35 27 24 23 27 29 27 21 21 18 17 19 20 22 25 29 39 24 26 43 71 87 95 89 93 90 100 100 100 100 88 51 26 25 21 21 22 23 25 25 27 26 26
39 34 26 24 26 28 30 24 24 21 22 22 21 21 24 31 30 22 35 71 84 100 100 100 100 100 100 100 100 80 50 27 28 24 23 25 24 25 28 28 27 26 26
42 39 31 25 24 26 28 29 25 25 25 24 23 22 21 32 30 34 67 87 99 100 100 100 100 100 100 97 67 46 28 28 26 25 27 30 35 34 34 31 33 30 27
49 44 34 27 28 26 26 30 30 28 27 28 25 24 22 32 34 32 98 100 100 100 100 100 100 92 70 35 31 30 27 27 27 28 32 35 36 39 40 44 42 37 37
55 46 37 32 28 24 25 30 35 33 31 30 29 27 24 33 31 41 99 100 100 100 97 88 73 44 31 30 30 28 29 33 32 34 36 36 36 38 37 39 40 40 38
54 52 48 36 32 28 28 32 37 35 32 32 33 28 30 31 34 48 63 89 90 78 61 40 34 30 29 26 27 29 33 36 38 40 40 36 32 30 29 32 34 34 38
58 59 58 46 35 33 33 36 41 37 33 34 36 29 29 31 35 49 74 82 81 58 44 37 32 32 30 32 34 35 35 38 42 41 36 35 35 34 31 32 35 27 27
50 62 57 51 41 40 42 41 47 42 37 36 40 32 28 33 39 43 64 86 77 58 44 41 38 35 36 38 42 41 41 43 47 49 48 44 38 35 32 30 26 23 25
59 61 68 55 42 50 46 51 53 49 42 45 43 34 32 40 40 43 73 91 83 62 50 45 44 44 45 48 48 52 57 58 57 54 50 44 38 33 28 25 24 23 23
87 82 80 61 52 51 48 54 54 50 44 44 51 39 34 43 43 49 76 92 81 63 54 49 48 50 50 52 59 62 61 60 58 53 48 42 33 29 25 25 25 26 26
66 83 78 77 62 62 51 51 61 53 47 49 48 44 38 43 47 49 79 93 80 66 59 54 52 53 55 61 63 63 63 62 59 54 43 36 30 27 27 27 28 23 19
58 82 84 86 81 79 65 46 52 60 52 52 52 50 43 47 49 54 82 92 82 70 61 58 57 59 62 64 64 64 64 66 59 48 40 32 30 29 29 26 21 23 30
55 71 79 87 90 86 81 52 50 61 54 53 57 52 43 48 52 61 79 86 83 74 65 63 62 64 66 64 64 64 66 62 54 43 36 33 32 30 23 23 29 39 39
52 52 75 91 92 84 78 65 49 57 52 62 68 55 50 53 61 69 73 80 81 73 70 67 66 68 66 65 64 64 67 56 45 38 35 33 26 24 29 37 39 38 39
49 53 68 86 89 90 78 59 45 54 56 69 64 56 63 70 69 72 75 81 78 77 74 72 73 73 69 66 67 65 56 49 42 38 31 25 28 35 40 39 41 30 25
60 69 68 74 83 84 72 47 43 51 58 68 65 70 73 71 74 78 82 89 86 82 79 80 78 72 72 71 60 54 49 43 37 30 28 34 41 40 45 36 38 27 19
64 72 71 63 70 65 55 40 46 55 68 72 75 75 75 79 82 89 97 93 92 87 84 82 81 74 66 59 54 47 41 35 30 32 38 42 45 39 42 41 30 23 15
100 89 64 57 60 59 51 42 53 61 63 77 85 82 88 91 94 97 97 96 94 91 86 78 71 66 61 53 46 43 34 31 33 43 46 42 43 42 34 26 20 14 8
97 73 72 72 66 53 46 49 59 63 70 89 88 92 95 97 100 100 99 97 94 87 74 73 69 60 50 49 42 32 34 38 52 46 44 46 43 33 22 16 11 9 7
97 100 89 63 49 45 51 60 66 74 89 88 89 98 100 100 99 99 98 96 83 76 76 65 58 52 51 35 34 36 48 48 49 51 48 40 29 21 16 10 9 8 6
98 83 66 58 55 59 63 73 89 93 95 95 100 98 96 99 100 100 92 84 78 71 66 61 55 44 34 33 44 47 49 50 52 47 37 28 20 13 10 9 7 5 5
61 61 62 64 67 68 85 99 100 100 100 99 98 98 100 100 97 91 85 76 69 60 57 55 38 34 35 50 44 52 53 51 44 36 27 18 11 10 9 6 5 5 6
63 64 67 70 72 93 100 100 100 100 98 97 100 100 97 93 88 81 73 62 58 58 41 37 33 47 52 48 54 54 51 42 40 30 17 10 10 8 5 5 6 6 5
62 64 70 81 97 100 100 100 100 100 100 99 95 90 86 82 74 63 57 56 43 39 36 35 59 52 51 52 55 51 45 48 35 17 11 11 8 5 5 6 5 4 4
66 66 74 87 97 99 100 98 96 96 94 89 84 80 73 64 57 54 45 41 40 35 47 65 55 57 56 56 49 47 42 28 15 10 9 7 4 6 6 5 4 5 6
60 63 65 73 84 90 92 91 89 84 80 74 65 59 56 53 43 42 41 37 38 62 63 55 57 53 52 44 45 39 24 13 9 9 6 5 6 6 4 4 5 6 7

GFSMW_250_rhum_036.txt.gz
RH
40 46 46 31 21 23 31 26 22 22 23 22 19 17 16 17 18 21 23 27 24 25 24 20 22 54 85 98 100 100 100 100 100 100 100 100 89 52 31 25 23 24 25
38 42 44 47 40 30 33 34 26 22 21 22 23 21 18 16 25 30 23 20 18 21 24 22 27 66 88 99 100 100 100 100 100 100 100 86 48 32 28 25 27 30 30
52 41 43 43 39 38 38 36 27 24 20 20 22 24 22 20 20 22 22 20 21 23 26 30 70 93 95 99 100 100 100 100 100 97 54 38 31 28 27 29 30 30 30
66 46 43 47 42 36 36 34 27 24 22 18 21 24 23 23 24 27 27 24 23 25 27 43 95 100 96 100 100 100 100 97 62 39 33 32 28 31 37 42 41 38 39
60 56 46 47 47 41 40 38 30 28 24 19 19 26 27 25 25 34 30 28 25 27 28 60 98 100 100 100 94 85 52 36 32 32 30 31 34 36 36 44 48 46 46
52 52 44 49 52 42 45 50 39 32 26 22 20 25 30 29 32 47 35 30 29 30 36 46 61 78 87 68 65 39 37 35 34 33 34 38 40 43 45 49 55 58 61
50 55 54 49 59 53 46 46 38 33 27 24 24 28 33 33 73 62 42 36 33 34 36 40 64 82 68 61 47 40 37 38 38 40 45 48 51 56 58 58 58 58 58
46 54 58 61 58 56 55 52 40 36 31 29 29 33 38 35 44 73 61 41 41 40 40 47 69 65 66 65 51 48 44 45 47 50 53 56 61 60 60 61 61 64 59
34 55 69 68 66 58 57 60 47 40 35 35 35 44 44 40 48 46 52 43 50 47 48 49 59 70 75 78 62 52 49 52 55 59 59 60 61 61 61 62 62 51 37
34 43 63 68 71 59 57 58 49 48 47 44 48 59 52 45 51 54 50 43 47 50 48 49 58 69 80 79 69 59 59 60 60 60 61 62 62 62 62 59 52 45 36
17 40 54 75 67 64 66 65 54 55 52 50 60 69 60 50 51 54 57 44 46 53 50 49 56 68 83 82 76 68 65 63 62 64 64 64 64 62 59 55 49 44 40
13 27 49 72 65 70 74 65 51 58 56 53 61 79 72 55 57 62 63 50 50 56 53 48 52 72 90 90 83 75 69 68 68 66 66 66 64 61 58 51 48 37 28
19 22 60 74 63 79 78 57 60 64 70 64 58 72 76 68 64 67 72 60 58 57 49 50 57 68 85 85 83 78 74 73 71 68 68 66 63 58 51 44 34 31 26
26 26 64 75 58 82 66 67 68 74 77 77 63 60 73 74 71 73 79 71 60 53 54 55 62 66 72 79 81 81 76 75 71 72 70 62 56 48 44 36 29 28 37
36 40 53 61 59 66 68 81 85 92 98 92 79 59 67 66 71 76 83 74 58 57 62 63 65 70 80 85 83 79 75 72 75 66 60 56 49 44 35 27 36 45 38
46 54 54 63 70 74 72 88 99 100 100 100 83 55 60 61 73 80 84 71 70 71 71 69 74 86 85 81 73 76 68 71 67 64 56 52 41 38 33 43 40 42 36
56 65 56 64 79 86 90 88 100 100 100 99 91 61 58 61 64 76 86 87 87 83 79 83 90 85 79 78 74 64 70 68 66 60 52 45 37 36 45 40 46 36 28
69 77 71 81 96 100 99 98 100 100 97 92 86 56 51 57 62 81 91 91 94 92 91 90 83 80 77 69 66 72 68 65 66 52 47 34 38 42 43 47 36 33 29
99 100 100 100 100 100 95 82 87 86 93 86 66 50 54 61 70 87 97 100 98 96 92 88 81 70 71 73 72 70 68 71 51 43 36 41 43 53 47 34 32 28 19
100 100 100 100 98 99 98 84 90 97 92 64 51 54 59 64 76 94 100 100 98 96 92 76 74 76 73 72 74 77 67 49 40 36 49 47 52 42 32 30 26 16 8
90 94 91 90 91 92 86 87 88 73 57 52 56 60 66 75 96 100 100 97 96 85 77 74 72 79 80 80 75 59 44 39 41 53 51 51 41 32 30 25 12 8 6
96 97 94 87 77 73 70 65 65 64 62 63 66 78 94 100 100 100 97 86 78 76 75 79 79 77 72 64 50 40 38 48 52 55 49 41 32 31 23 11 8 6 4
100 100 100 99 100 100 95 85 77 73 73 82 98 100 100 100 94 88 83 76 74 78 80 78 70 66 56 44 40 49 56 51 57 50 43 35 31 18 10 7 6 4 5
100 98 90 90 95 95 93 91 89 95 100 100 100 100 96 91 89 83 76 78 79 76 64 60 58 49 44 45 63 61 66 60 54 43 35 28 14 10 7 5 5 6 4
98 98 99 99 98 97 98 100 100 100 100 100 100 100 96 89 82 79 77 72 58 54 56 51 44 45 71 72 73 64 56 48 37 33 21 12 9 6 5 5 6 4 5
100 100 100 100 100 100 100 100 100 100 99 97 91 85 82 80 72 60 52 51 52 48 46 57 81 78 71 64 52 47 41 35 27 15 10 8 6 4 5 5 4 5 5

GFSMW_250_rhum_039.txt.gz
RH
70 66 68 66 51 36 30 29 31 31 24 20 18 17 18 22 23 16 15 15 14 14 17 19 20 19 18 23 21 20 19 34 65 90 100 100 100 100 97 100 100 100 94
100 86 80 73 72 57 35 30 30 31 28 22 18 17 20 24 22 22 25 29 24 18 17 20 24 19 18 20 21 22 22 44 74 81 80 82 96 93 100 100 98 70 46
100 100 90 73 76 75 62 40 34 33 34 30 24 20 22 23 24 28 26 30 35 46 47 40 35 23 19 19 21 24 32 67 87 86 89 95 97 100 96 56 41 38 35
99 100 100 81 62 70 80 52 44 40 37 34 37 32 27 25 24 24 28 31 32 41 51 53 31 22 21 22 23 28 44 75 96 93 97 94 82 53 42 37 34 31 31
59 79 86 82 74 70 67 68 41 46 42 38 33 35 31 28 27 25 24 35 35 34 36 33 28 27 28 26 28 28 41 63 95 87 61 56 43 40 33 36 35 36 41
56 44 45 59 62 61 73 72 56 52 45 45 36 36 33 30 25 25 25 34 38 42 44 34 36 36 36 33 29 27 32 41 66 72 57 42 39 36 37 38 42 46 52
51 45 48 52 55 60 60 74 68 55 52 47 43 40 40 35 30 27 25 32 41 41 54 46 45 47 40 40 37 33 37 51 66 64 58 52 48 48 43 43 46 54 59
40 45 43 41 43 45 45 61 62 65 65 54 49 50 50 39 34 29 31 35 58 64 69 68 62 62 54 44 43 42 50 59 58 68 69 73 62 54 52 53 53 55 58
38 38 44 36 43 44 50 56 58 71 75 65 52 57 51 42 37 40 43 45 73 88 90 89 83 77 62 59 62 57 54 63 65 70 77 78 75 68 62 60 60 60 65
22 30 37 47 42 55 54 59 61 73 82 78 62 66 58 53 52 40 37 47 61 79 92 99 97 89 72 72 67 62 55 59 65 65 72 77 78 78 75 71 68 68 60
13 13 16 25 39 49 59 65 68 85 98 91 68 64 67 55 51 47 61 64 68 68 59 67 82 81 68 70 70 62 58 55 55 57 66 79 84 83 78 72 62 61 50
7 9 12 16 21 35 51 64 74 87 100 83 75 76 67 58 54 57 62 73 79 75 72 69 61 61 60 63 67 66 62 56 54 54 56 67 75 69 64 60 59 50 48
4 6 10 15 23 27 37 56 74 88 100 84 80 75 65 62 54 57 67 90 80 71 68 66 65 65 62 59 71 72 69 61 54 54 55 61 58 58 57 55 49 45 42
3 6 10 16 24 25 33 62 76 100 98 78 86 81 65 67 69 71 67 78 88 82 72 65 65 73 80 70 75 78 67 57 57 55 61 59 58 55 49 45 43 40 40
3 9 14 20 22 30 62 86 100 98 77 78 92 69 67 78 79 79 71 70 77 81 74 66 66 70 84 83 81 73 63 62 60 62 61 55 51 49 46 44 41 39 36
5 12 22 28 30 58 95 100 100 86 92 89 79 75 77 79 87 98 100 96 70 72 70 65 66 71 80 86 82 76 73 67 68 65 55 53 51 47 45 44 40 35 29
12 23 31 30 48 90 100 100 90 98 100 96 92 93 95 98 100 97 89 91 69 65 67 68 70 73 80 85 92 86 76 71 61 57 60 49 49 44 44 36 36 32 32
35 37 33 52 93 100 100 97 100 100 100 100 100 97 96 100 100 100 100 99 68 60 63 66 67 73 87 93 90 86 76 64 67 60 51 49 48 45 39 33 33 38 34
52 50 66 96 100 100 100 97 100 100 100 100 99 100 100 100 100 100 100 72 63 58 60 63 70 83 92 98 89 79 74 72 57 60 54 55 41 38 36 36 44 33 24
88 94 100 100 100 100 100 100 100 100 100 98 98 100 100 100 100 87 65 62 58 61 65 67 77 93 92 91 85 79 64 64 62 61 56 42 38 35 46 47 30 25 28
100 100 97 100 100 100 100 100 100 100 100 100 98 94 98 81 68 69 67 68 72 75 74 85 98 94 88 80 74 70 72 66 62 49 43 37 41 54 41 28 24 29 26
100 100 100 100 100 96 88 87 88 87 87 88 83 73 76 82 83 86 88 89 95 100 100 97 90 83 80 80 85 76 65 52 46 40 39 57 50 37 29 28 30 23 10
100 100 98 96 94 94 95 93 87 83 84 90 98 100 99 98 100 100 100 100 100 98 93 90 89 86 84 77 66 53 47 41 38 57 57 46 39 36 32 29 16 8 6
97 92 94 94 89 89 92 94 97 100 100 100 100 100 100 100 100 100 100 96 96 99 98 94 90 80 67 55 52 44 45 64 60 60 55 42 36 30 23 11 8 5 5
98 99 100 100 100 100 100 100 100 100 100 100 100 100 100 100 100 100 100 100 99 93 85 76 64 59 55 50 60 74 66 62 62 53 41 34 28 16 9 6 5 5 6
100 100 100 100 100 100 100 100 100 100 100 100 100 100 100 100 100 100 94 85 79 71 65 61 60 64 76 86 74 63 59 52 48 36 30 22 11 8 6 4 5 6 6

GFSMW_250_rhum_042.txt.gz
RH
64 72 78 88 94 95 87 59 37 40 37 32 28 27 23 25 30 24 21 23 22 23 21 21 18 21 18 17 17 17 17 18 17 16 16 20 20 24 52 79 82 83 90
69 64 60 65 76 90 100 100 84 50 46 39 37 27 28 32 31 27 23 21 24 25 25 27 26 24 23 20 18 18 17 17 19 17 17 21 22 28 61 88 85 95 98
68 65 63 56 57 76 93 100 100 75 57 56 37 36 31 36 33 34 31 25 25 28 31 47 41 30 34 34 26 24 24 22 27 21 18 20 22 46 72 86 72 68 73
74 70 63 59 54 64 83 100 100 100 80 71 52 45 37 37 46 43 42 49 30 33 30 32 34 35 34 31 31 32 51 54 42 23 21 23 31 45 60 64 55 55 52
68 75 81 79 59 56 70 91 100 100 100 76 68 52 58 56 66 62 54 45 38 35 32 29 30 31 34 36 34 44 56 58 30 28 27 27 28 34 35 59 61 53 48
76 85 94 87 55 62 71 74 88 99 99 88 79 66 69 53 64 51 40 37 35 38 35 32 30 30 30 35 40 42 46 49 36 33 34 38 34 38 37 48 65 66 57
85 92 90 82 55 53 62 64 69 75 79 89 80 74 65 67 61 61 49 41 35 36 38 34 29 28 33 40 43 45 44 54 46 39 42 62 51 49 44 50 61 72 79
45 44 48 58 57 53 44 51 56 55 59 58 63 63 73 69 67 65 58 46 38 37 37 34 34 32 34 40 51 57 54 62 61 68 62 71 67 61 55 50 54 52 58
30 33 38 38 40 44 46 45 44 47 47 57 53 60 64 82 70 70 68 56 48 46 45 37 46 62 47 56 62 68 63 72 77 85 78 71 80 64 59 56 48 42 45
30 26 25 30 35 36 38 35 40 46 49 50 52 55 64 71 78 94 91 63 56 52 54 52 46 58 78 82 97 99 96 97 100 95 86 91 80 72 68 60 51 44 36
17 12 11 19 23 29 30 44 39 38 44 42 49 60 77 84 98 100 93 73 61 70 66 63 50 50 76 97 100 100 100 100 100 100 100 92 84 82 72 62 54 47 42
9 9 10 12 11 16 22 30 32 37 48 56 65 69 71 90 100 100 96 80 78 80 63 57 58 83 90 88 91 93 96 100 97 94 88 73 70 71 68 61 55 46 42
6 6 10 8 12 16 20 22 21 30 46 66 65 71 80 100 100 100 99 90 90 73 59 55 67 91 99 100 98 92 84 80 75 73 70 66 64 58 58 56 48 41 35
4 6 5 5 11 15 16 13 20 31 43 53 65 74 90 100 100 100 93 95 95 75 69 76 77 80 82 90 92 88 75 66 66 67 67 64 66 59 59 53 40 37 34
4 3 4 5 7 11 14 18 26 33 41 52 67 91 99 100 100 100 97 100 86 73 79 86 89 95 97 84 79 78 72 66 63 63 62 61 62 62 58 51 49 43 35
4 4 5 6 11 13 16 24 31 43 51 64 75 100 100 100 100 97 97 93 73 78 90 97 100 100 98 93 73 68 68 62 60 60 59 61 65 64 59 52 45 37 31
5 5 10 12 16 23 38 44 50 57 65 84 100 100 100 96 99 100 98 84 89 94 100 100 99 100 98 83 64 64 65 62 61 63 65 66 67 61 58 51 40 37 40
22 28 36 41 42 40 41 52 70 88 100 100 100 100 100 100 100 100 100 98 100 100 100 100 97 88 86 68 67 66 66 67 64 62 66 70 74 68 53 46 48 38 25
59 53 47 50 65 81 97 100 100 100 100 100 100 100 100 100 100 100 100 100 100 100 97 97 96 74 78 86 83 78 73 67 68 74 79 75 61 55 43 40 35 30 25
100 100 100 100 100 100 100 100 100 100 100 100 100 100 100 100 100 100 78 80 93 100 99 73 85 99 98 96 95 92 93 98 90 80 68 59 52 39 32 30 26 25 30
100 100 100 100 100 100 100 100 95 100 100 100 100 100 100 83 94 100 100 100 95 73 90 100 100 100 100 100 100 95 86 79 74 67 60 47 40 37 32 33 34 30 27
100 100 84 100 100 100 100 100 91 100 100 100 82 98 100 100 100 100 88 87 99 100 100 100 100 100 100 100 93 81 77 73 70 60 50 43 37 42 48 37 27 29 31
96 98 86 76 89 92 100 100 93 85 96 100 100 96 88 91 98 100 100 100 100 100 100 100 100 98 88 82 79 76 71 62 54 46 42 48 63 54 35 31 33 27 18
99 95 100 100 96 97 98 96 95 94 94 99 100 100 100 100 100 100 100 100 100 100 100 97 89 85 80 75 73 70 61 55 57 63 65 59 52 38 36 32 23 11 7
100 99 100 100 99 100 100 100 100 100 100 100 100 100 100 100 100 100 99 98 96 93 89 84 80 75 71 71 64 66 79 81 73 66 62 55 41 35 28 15 7 6 4
94 96 96 96 99 100 100 100 100 100 100 100 100 100 100 99 89 83 80 75 70 66 64 64 72 79 82 91 91 82 75 69 64 59 51 38 30 22 10 7 4 4 6

GFSMW_250_rhum_045.txt.gz
RH
77 58 63 60 59 63 62 64 60 56 62 57 44 41 36 40 39 38 36 34 31 25 29 29 25 22 20 19 22 25 25 21 20 22 21 20 20 19 19 19 20 19 22
62 56 58 69 77 78 70 67 66 68 72 73 74 62 58 62 72 89 55 57 48 32 32 32 28 24 20 21 21 22 27 29 28 25 23 21 20 20 20 21 24 25 26
61 59 64 64 69 73 74 74 72 70 69 60 58 69 67 65 65 74 69 58 48 37 58 56 39 33 28 26 26 25 24 30 35 35 33 35 34 30 27 34 32 27 24
79 72 73 68 66 60 63 67 69 68 68 68 52 53 69 74 76 66 74 67 73 80 100 100 74 61 51 45 33 31 29 28 26 27 29 30 32 33 54 63 43 30 27
75 73 71 65 64 65 73 70 67 73 71 70 55 58 74 85 81 67 64 78 82 73 86 71 49 49 45 42 40 35 32 29 27 27 30 31 38 69 80 94 52 43 46
78 69 66 66 71 74 72 71 71 69 65 63 65 59 76 86 88 75 67 73 77 75 65 55 49 45 44 40 38 36 33 31 29 28 29 35 42 53 60 84 61 50 50
72 78 83 80 76 65 57 57 62 64 64 59 63 66 80 88 85 85 86 82 76 77 68 60 51 44 48 44 38 36 36 34 31 30 34 44 46 45 54 66 68 54 79
82 73 63 68 78 83 76 64 54 51 54 52 53 75 67 92 79 81 87 92 89 70 64 67 63 49 51 49 42 37 36 36 39 41 46 53 62 62 61 59 62 57 79
54 59 70 74 66 66 65 59 54 44 38 36 37 55 60 70 87 91 88 71 71 68 64 76 63 62 63 54 50 48 52 57 51 55 56 63 67 76 71 73 84 77 82
51 44 40 30 28 27 28 32 38 34 35 37 42 51 63 69 77 74 70 69 69 67 67 69 88 91 71 62 66 63 56 52 52 67 84 88 88 88 91 89 82 76 78
34 31 32 31 30 28 27 29 34 39 34 36 44 51 59 70 67 67 68 70 68 65 76 94 100 98 79 84 82 77 59 55 80 86 88 94 93 90 89 87 82 75 70
16 13 16 19 19 14 13 14 18 32 43 43 59 71 61 60 56 54 57 58 64 75 97 100 100 89 93 100 88 68 58 58 64 71 81 88 86 89 87 80 69 63 63
16 10 9 7 9 8 9 12 16 22 30 37 50 53 54 62 59 64 68 77 77 96 100 100 97 95 100 100 88 73 71 82 83 73 70 69 74 73 78 75 65 56 50
9 6 6 6 6 8 8 9 16 22 30 33 28 34 39 53 70 81 87 85 88 90 100 100 99 100 100 93 84 77 87 86 80 74 76 76 68 65 67 66 59 52 46
4 4 4 4 4 5 6 9 14 26 34 38 20 25 32 51 70 91 97 88 91 100 100 100 100 100 100 86 86 84 91 84 74 84 82 77 63 60 61 60 55 50 47
6 4 3 4 5 7 7 7 11 18 27 26 28 31 45 61 80 96 96 100 100 100 100 100 100 100 85 86 86 88 83 87 94 85 78 61 60 61 58 55 52 51 52
11 8 6 6 8 10 14 21 29 34 37 35 40 53 64 88 98 100 100 100 100 100 100 100 100 100 82 79 89 95 99 93 89 72 70 82 81 82 83 78 74 66 61
39 34 28 25 25 27 33 39 43 52 61 66 69 79 94 100 100 100 100 100 100 100 100 99 99 95 96 99 100 100 96 86 78 93 95 98 99 100 88 74 72 58 48
71 62 57 52 48 49 55 65 76 86 88 96 100 100 100 100 100 100 100 100 100 100 100 76 78 92 98 98 99 82 79 93 94 97 98 94 83 73 62 52 52 46 37
92 85 92 100 100 100 100 100 100 100 100 100 100 100 100 100 100 100 100 98 86 65 61 85 90 90 97 98 88 90 94 93 90 88 85 79 76 68 57 41 32 32 32
100 100 100 100 99 99 100 100 100 100 100 100 100 100 100 99 84 79 70 66 85 78 82 100 98 94 90 93 96 93 92 95 97 86 80 71 61 47 36 41 50 51 44
92 99 78 94 74 90 84 100 100 100 93 96 92 93 95 82 71 84 100 100 100 100 100 100 100 99 94 95 95 90 79 75 78 78 67 58 52 61 68 65 58 43 34
83 88 100 74 100 100 78 62 100 88 82 86 98 98 85 83 100 100 100 100 100 100 100 92 84 82 79 77 73 70 70 76 71 65 66 76 80 70 66 54 40 32 28
100 100 100 100 100 100 100 100 100 100 100 100 100 100 100 100 100 100 97 78 86 89 86 81 75 68 58 56 57 64 78 78 77 73 72 70 66 54 41 32 29 24 17
92 98 100 100 100 100 100 100 100 100 100 100 97 94 91 83 85 94 98 96 87 82 78 71 64 59 54 55 60 77 86 87 83 74 63 54 46 38 31 25 18 10 8
88 84 90 89 87 84 84 82 84 87 88 86 95 99 100 100 99 94 92 85 83 76 68 64 58 59 74 90 90 79 68 60 54 47 41 36 30 24 17 11 8 6 5

GFSMW_250_rhum_048.txt.gz
RH
100 91 89 83 73 66 69 75 78 68 52 46 54 71 65 66 85 90 75 63 100 79 56 51 42 41 38 30 27 29 30 25 24 22 21 22 22 23 24 24 24 26 28
89 92 92 82 86 88 78 66 68 59 54 54 58 54 66 56 73 78 87 100 100 99 98 100 91 67 51 44 35 31 30 30 26 23 23 23 30 34 34 33 31 30 33
100 100 100 100 100 96 90 79 67 56 54 64 70 67 65 68 69 74 82 100 100 100 100 99 86 63 80 87 55 51 50 44 42 42 32 25 27 26 26 26 32 40 40
100 100 100 100 100 100 97 77 67 61 59 64 68 74 77 71 68 66 62 73 83 82 100 100 93 98 98 91 76 69 55 35 32 36 39 38 33 28 29 29 28 30 34
100 100 100 100 100 88 71 71 72 72 72 79 74 79 79 75 76 69 65 72 83 87 100 100 100 100 100 80 58 52 47 42 34 35 38 33 33 34 34 35 32 30 33
99 97 95 88 79 66 64 72 70 67 65 65 66 64 63 68 74 77 76 71 68 79 98 100 100 100 99 77 59 62 59 54 48 39 37 39 36 34 35 35 31 32 35
76 71 63 66 69 76 76 71 62 56 53 49 48 52 61 62 60 68 72 68 72 77 93 100 100 91 83 66 65 77 70 64 57 52 46 46 43 42 41 43 49 58 56
56 56 57 62 57 51 49 54 54 55 53 51 50 45 48 56 60 72 85 70 71 89 86 96 100 100 95 80 85 86 76 85 78 63 53 53 49 51 50 50 45 56 81
54 54 52 54 52 51 53 59 54 52 51 55 59 56 50 50 65 73 81 83 82 87 87 100 100 100 100 94 91 95 72 72 86 87 70 69 72 70 54 48 50 57 60
59 61 53 53 54 61 69 63 53 47 45 48 54 59 49 51 59 66 65 61 74 97 94 100 100 100 98 92 95 76 79 88 96 77 72 86 80 67 59 59 56 55 62
51 45 49 55 50 46 42 37 31 25 28 34 37 48 49 42 41 45 54 62 76 99 93 100 100 94 89 84 78 75 86 100 99 76 92 79 72 67 55 58 64 67 69
47 40 29 25 27 30 29 32 32 33 32 34 39 43 42 43 44 55 61 66 79 92 91 92 80 77 74 73 76 95 100 100 99 82 78 69 69 63 65 65 74 71 69
28 21 16 14 14 14 19 19 21 22 23 21 26 34 44 47 51 58 63 63 66 68 75 78 74 71 73 90 100 100 100 100 80 82 77 68 69 68 75 80 76 74 73
33 18 10 4 4 4 5 8 9 12 15 16 20 27 34 36 37 46 56 64 82 90 87 82 89 92 100 100 100 100 100 95 78 60 62 65 75 84 78 78 77 72 60
35 13 7 4 4 3 4 5 8 10 11 13 17 20 31 40 55 67 53 51 71 87 94 100 100 100 100 100 100 100 100 83 70 67 62 75 81 94 87 81 71 71 85
44 20 9 4 4 4 5 6 8 10 13 17 19 28 39 52 62 68 47 44 62 85 99 100 100 100 100 100 100 100 78 62 59 64 73 80 100 90 80 73 81 91 95
42 37 20 8 8 9 10 11 10 11 14 20 28 38 49 55 60 53 54 54 74 97 100 100 100 100 100 100 94 84 66 65 79 93 96 99 86 82 87 90 92 95 85
64 46 40 31 25 20 21 23 25 34 45 54 58 61 67 76 71 71 87 100 100 100 100 100 100 100 100 94 76 71 75 88 94 82 92 94 87 93 98 91 82 69 58
70 58 55 65 68 61 56 59 62 63 66 70 75 80 85 98 99 100 100 100 100 100 100 100 99 100 78 62 63 68 83 92 98 96 93 97 99 86 72 61 59 59 57
74 70 70 82 71 80 78 82 83 95 100 100 100 100 100 100 100 100 100 100 100 95 87 82 73 89 76 74 72 82 76 75 81 88 100 77 64 52 48 52 67 71 64
100 84 68 77 100 100 100 100 100 100 100 99 100 100 100 100 100 98 94 82 83 76 82 78 65 58 58 66 69 74 91 100 100 87 61 49 48 52 62 70 68 59 49
98 94 100 82 77 75 65 71 74 80 73 90 100 98 82 76 77 69 69 68 68 60 55 73 84 93 97 99 100 100 94 79 66 55 52 60 76 79 69 55 48 42 38
98 92 97 85 58 78 87 99 83 94 81 81 85 91 93 85 77 79 76 75 83 87 90 98 100 99 95 92 87 78 65 60 60 70 76 73 60 54 47 44 41 36 30
100 92 91 100 100 94 100 95 100 89 96 90 82 79 77 80 83 83 82 82 83 93 97 93 90 89 86 81 72 70 78 77 68 59 54 48 44 43 41 35 29 20 14
81 89 98 97 92 95 93 93 93 93 96 99 100 100 100 100 100 99 92 84 82 84 82 82 87 84 83 88 87 77 63 57 53 47 44 42 36 28 23 17 14 11 8
76 81 80 86 89 93 98 98 97 100 98 92 85 82 86 87 85 86 86 87 89 93 95 95 92 90 82 70 62 52 50 46 45 41 31 21 17 13 10 9 7 7 6

GFSMW_250_rhum_051.txt.gz
RH
100 94 100 97 94 89 85 77 71 79 85 80 74 62 54 49 60 65 72 88 89 81 76 62 80 91 81 82 85 90 91 74 56 44 42 38 32 30 31 30 27 24 23
100 100 98 99 100 100 89 93 90 70 69 75 75 78 77 70 63 59 59 71 83 80 84 86 91 94 94 85 80 89 86 79 64 60 52 48 58 52 40 37 41 42 36
100 100 100 98 100 100 96 88 80 71 67 70 76 73 73 80 83 75 65 72 79 91 85 93 100 100 100 100 100 100 93 83 71 57 54 51 40 38 36 35 31 32 32
100 100 100 100 100 100 100 100 100 94 92 90 94 95 100 96 90 70 59 57 63 78 84 80 82 100 100 100 100 100 98 84 69 70 62 58 48 40 46 40 35 33 35
100 100 100 100 97 96 100 100 100 100 100 94 94 99 98 99 83 71 63 57 65 70 71 80 91 100 100 100 100 100 100 100 89 80 81 73 66 54 48 45 41 40 40
100 100 100 100 100 96 90 91 96 97 98 97 96 99 88 83 76 72 66 62 62 72 84 88 86 94 100 98 87 94 100 100 100 94 91 83 76 67 58 56 50 53 49
95 99 97 97 92 93 91 90 88 85 79 86 87 81 77 72 68 79 80 73 79 82 77 62 77 91 97 98 96 90 96 100 100 100 94 99 87 78 70 66 71 74 66
86 86 85 84 82 82 83 85 86 85 82 74 68 62 62 66 72 72 70 76 64 62 73 76 85 82 93 95 93 99 94 85 98 100 99 100 87 95 79 74 96 95 86
76 68 62 61 66 66 63 60 63 63 67 64 55 55 58 63 66 64 64 66 85 84 85 91 84 61 84 100 100 100 100 100 100 100 100 100 100 89 73 84 90 92 82
51 52 56 59 58 55 55 57 53 49 47 43 41 42 45 49 50 48 57 65 93 98 97 83 89 87 94 100 100 100 100 100 100 100 100 100 100 92 93 78 83 73 72
49 61 56 53 50 44 37 35 34 32 33 30 30 34 46 54 55 57 57 60 66 79 87 78 90 100 98 89 91 98 100 100 100 100 100 98 100 95 75 76 85 72 57
69 73 60 49 36 31 31 33 29 23 20 21 23 29 39 38 37 38 41 42 46 52 61 72 67 75 77 82 97 100 100 100 100 100 100 100 100 65 77 81 77 58 63
63 49 39 36 30 26 21 17 16 18 19 21 23 26 34 39 41 42 45 48 51 52 66 69 78 78 81 100 100 100 100 100 100 98 100 94 100 78 87 75 53 61 62
51 42 34 28 21 19 14 11 6 6 9 11 15 23 29 32 35 39 41 42 53 56 68 82 90 95 94 96 94 94 94 99 100 100 100 98 96 100 77 65 82 79 66
50 46 37 27 21 15 6 3 3 3 5 6 8 12 18 26 33 41 56 59 64 55 78 83 73 80 95 97 100 100 100 100 100 90 82 84 84 68 70 81 71 59 74
72 47 51 36 20 13 7 5 4 3 5 6 7 10 13 16 25 40 45 56 66 72 72 91 59 63 85 100 100 100 100 100 100 100 99 74 75 81 76 68 69 85 80
84 83 60 41 31 20 10 6 7 7 9 12 14 17 20 25 32 37 39 58 72 73 76 64 61 76 93 100 100 95 92 90 80 68 70 82 95 86 77 80 79 71 73
86 69 70 62 51 31 23 23 17 15 19 25 28 30 45 42 44 53 68 78 82 83 88 93 99 100 100 100 100 100 99 94 82 71 98 90 75 65 63 66 63 64 63
94 78 80 68 62 60 44 32 31 28 37 46 53 79 88 89 92 96 99 100 100 100 100 100 100 100 100 94 100 100 89 97 100 90 78 65 60 60 60 63 70 75 72
96 85 95 76 66 56 61 59 52 60 77 84 91 96 100 100 100 100 100 100 99 100 100 100 87 100 100 98 96 98 87 78 70 61 62 67 73 79 86 83 78 78 71
86 94 84 100 90 83 74 65 61 63 76 67 79 96 87 89 100 86 83 81 94 84 84 86 76 92 97 84 81 73 61 68 76 74 77 78 78 78 78 72 61 51 44
86 91 83 78 100 96 100 98 98 97 90 97 90 94 92 89 83 93 100 100 100 100 100 94 86 85 75 57 58 69 76 80 85 84 88 87 80 69 58 48 44 41 38
100 99 85 75 98 90 90 93 99 92 92 94 88 97 100 100 100 95 94 91 75 70 68 61 56 60 69 75 79 89 93 95 90 83 75 68 49 45 45 41 40 35 28
100 100 91 79 76 80 88 98 96 93 81 80 87 90 88 84 78 75 73 72 75 80 84 87 89 93 98 100 100 94 89 89 80 55 44 45 45 40 32 25 19 14 11
86 87 97 97 90 81 72 78 83 91 97 97 95 91 92 93 92 90 89 88 92 95 98 100 100 98 95 95 96 83 67 60 49 43 42 38 30 19 14 11 8 8 7
90 85 91 90 94 94 93 98 99 100 99 90 86 86 86 89 93 95 96 100 100 100 99 100 99 88 79 74 64 60 54 47 44 39 30 20 14 9 7 6 7 7 8

GFSMW_250_rhum_054.txt.gz
RH
100 100 99 90 91 90 88 86 82 95 92 84 84 76 71 75 92 95 86 86 88 80 76 68 63 61 56 51 61 76 78 84 91 77 78 63 55 55 52 63 54 51 51
100 100 100 100 100 100 100 100 96 83 87 88 96 96 100 100 100 100 94 83 78 76 66 64 69 74 75 64 70 80 99 100 94 79 74 65 57 53 52 56 64 62 60
100 100 100 99 100 100 100 100 100 100 100 100 100 100 100 100 100 98 92 91 69 71 79 65 73 77 86 79 73 100 100 98 87 71 60 53 51 52 58 66 67 68 70
100 95 99 100 98 93 95 100 100 100 100 100 100 100 100 100 100 92 90 89 86 82 78 82 82 88 94 85 73 82 95 100 100 95 88 74 84 89 88 88 84 78 82
100 97 87 92 100 100 100 100 100 100 100 100 100 98 94 100 100 100 94 90 91 95 94 90 96 100 96 87 91 88 88 100 100 100 100 100 100 98 96 91 95 97 97
98 94 90 88 88 93 99 100 100 100 92 90 85 77 83 90 100 100 100 100 94 97 92 95 85 94 96 89 96 100 100 91 89 100 100 100 100 100 100 100 100 100 100
100 100 100 100 98 94 86 79 77 80 92 99 98 100 100 96 97 100 100 100 100 100 98 93 89 91 91 100 100 95 92 70 65 77 91 100 100 100 100 100 100 100 100
100 100 99 89 84 88 91 92 98 98 98 98 94 92 95 98 98 94 94 94 95 96 94 85 82 96 88 89 98 100 89 88 88 98 100 100 99 100 100 100 100 99 100
85 83 87 96 98 98 93 82 85 87 84 85 82 80 76 78 78 73 72 72 70 74 83 76 73 92 100 100 100 92 100 98 100 100 100 100 100 100 100 100 100 100 100
86 77 70 71 69 76 76 72 70 72 69 63 57 55 52 51 48 44 47 52 64 82 86 80 79 81 92 100 100 90 100 100 100 100 100 100 100 100 100 100 100 100 100
80 70 65 70 69 66 61 56 49 45 36 29 24 23 22 20 22 28 36 53 63 66 74 89 100 100 97 100 98 100 100 100 100 100 100 100 100 100 100 100 100 100 99
70 66 68 66 63 56 44 35 28 20 19 20 19 18 18 20 24 27 30 37 50 65 89 94 99 98 100 98 100 100 100 100 100 100 100 100 100 100 100 100 100 100 70
66 60 57 51 46 36 35 30 25 22 20 16 16 15 18 19 18 23 30 43 55 57 62 68 72 76 83 87 74 80 80 95 97 100 100 99 100 100 100 100 98 99 94
52 64 64 55 42 36 30 26 26 20 13 11 9 9 9 13 18 19 24 35 47 52 54 59 67 70 75 81 94 94 89 83 99 98 100 100 100 100 100 92 70 63 68
67 57 46 37 41 45 29 21 16 12 7 4 4 3 4 6 10 16 26 38 45 56 62 69 75 75 88 94 96 94 95 97 100 100 100 100 100 100 100 75 63 67 86
46 47 48 63 69 52 35 25 21 15 7 4 4 5 6 8 9 10 17 35 56 68 76 82 89 95 96 92 86 94 85 91 100 100 100 100 96 85 80 78 88 96 100
60 59 61 84 76 60 54 41 32 23 13 9 9 10 10 11 14 16 21 30 45 63 80 90 99 96 94 94 96 100 98 100 100 100 100 99 85 89 87 91 99 84 67
64 62 78 85 63 67 67 55 43 38 33 20 14 17 23 25 26 29 32 47 75 94 98 100 100 99 100 100 100 100 100 100 100 93 77 83 85 96 98 83 75 77 77
70 67 81 80 75 74 90 82 61 51 45 40 39 40 49 56 72 87 91 82 88 100 100 98 100 100 100 100 100 100 100 100 100 100 83 84 92 86 82 86 81 77 66
70 76 72 83 78 78 79 100 72 80 75 60 57 54 56 73 87 88 95 94 100 100 100 100 100 99 100 100 98 79 82 88 80 86 100 96 88 84 83 78 73 64 60
69 71 76 85 87 76 73 93 96 78 63 65 74 84 84 74 69 68 64 72 74 74 76 65 64 68 64 71 82 87 78 83 89 100 91 85 79 75 64 55 49 51 49
68 75 84 94 87 82 82 88 92 88 88 90 91 90 82 91 95 95 100 100 100 100 99 98 100 100 100 100 100 100 100 93 88 86 90 79 63 57 53 54 52 47 43
75 76 81 96 84 82 87 92 86 82 89 94 92 99 100 96 88 83 86 87 90 90 92 94 93 87 83 80 79 87 99 99 96 85 74 73 64 60 56 49 44 36 31
79 87 90 92 92 89 81 73 69 76 78 80 86 89 90 93 94 98 99 96 93 93 95 96 97 100 100 100 100 100 99 90 80 76 67 65 60 50 45 39 32 23 15
84 97 100 100 93 90 94 92 92 91 88 92 90 88 88 88 94 98 100 100 100 100 100 100 98 98 94 91 92 91 81 77 72 66 61 56 46 44 38 26 17 14 8
90 99 100 100 100 93 94 97 95 94 99 86 86 88 92 91 88 90 90 96 97 98 98 98 89 82 82 84 84 82 76 66 62 62 62 48 41 31 21 14 12 8 9

GFSMW_250_rhum_057.txt.gz
RH
99 100 100 100 100 100 99 98 93 98 92 84 82 84 84 77 80 82 84 99 100 100 98 99 94 96 99 90 90 81 76 69 68 61 60 69 74 78 81 79 73 67 56
100 100 100 100 100 100 100 100 95 87 86 93 98 98 96 97 92 88 91 98 100 100 95 90 89 98 100 96 85 70 72 76 80 83 78 80 78 78 81 75 66 62 60
96 99 100 100 100 100 99 100 100 100 100 99 100 100 100 100 100 100 100 100 100 100 99 100 100 100 93 89 85 83 81 87 84 91 88 87 82 89 90 90 83 78 78
91 88 91 88 89 92 94 95 100 100 100 100 100 100 100 100 100 100 100 100 100 100 100 100 100 98 100 100 100 100 100 99 100 99 95 91 86 90 100 100 100 96 99
79 69 67 75 83 83 88 98 89 90 100 100 100 100 100 100 100 100 100 100 100 100 100 97 92 98 100 100 94 88 90 100 96 100 99 83 88 95 100 100 100 100 100
98 97 99 95 93 95 96 98 100 100 100 99 100 98 97 100 100 100 100 100 100 97 98 97 94 99 97 100 100 100 100 100 100 100 100 99 100 100 100 100 100 100 100
97 100 100 100 100 99 98 94 95 99 95 93 92 91 93 92 100 98 99 100 99 98 98 98 99 100 100 100 100 100 100 100 100 100 100 98 100 99 100 100 98 99 100
98 98 98 93 91 95 96 94 89 74 72 75 84 96 99 99 96 92 88 90 100 100 100 100 100 100 100 100 100 100 100 93 100 100 93 95 100 100 100 100 100 100 100
100 99 96 94 91 88 79 75 77 82 86 83 80 80 78 75 74 77 85 93 93 95 96 94 92 95 91 92 91 100 100 100 100 100 86 100 100 100 100 100 100 100 100
97 97 93 87 83 82 86 96 100 96 91 78 69 71 72 73 70 70 74 75 75 74 75 74 73 77 88 94 99 100 100 100 100 100 100 100 100 100 100 100 100 100 100
91 88 88 88 90 86 82 82 79 69 60 52 52 49 41 28 22 21 20 20 25 30 38 49 61 74 93 100 100 100 100 100 100 100 100 100 100 100 100 100 97 100 100
96 95 95 92 90 88 83 78 69 52 47 41 37 29 19 14 14 13 13 14 18 23 26 31 45 68 100 100 100 100 100 100 100 100 100 100 97 95 94 98 100 99 92
70 71 78 76 70 60 54 54 51 44 36 35 30 23 20 18 16 14 14 14 14 19 27 34 38 47 80 99 100 100 100 100 100 100 100 100 90 95 91 98 100 100 100
73 75 72 67 58 50 47 47 39 35 32 30 25 22 17 14 12 11 11 12 12 14 17 29 45 48 55 67 80 84 95 94 94 96 100 96 100 90 89 100 100 100 94
77 67 55 68 61 46 42 35 39 41 35 25 15 11 8 7 6 5 5 6 7 10 18 29 45 56 61 74 78 90 93 88 95 99 100 100 100 100 100 100 100 91 80
69 83 72 51 41 45 42 59 53 45 33 27 20 15 10 6 6 6 6 7 8 10 17 27 39 50 66 86 97 96 100 100 100 100 100 100 100 100 100 98 93 82 83
82 51 48 45 49 50 57 70 65 55 43 43 31 26 16 11 12 9 11 12 15 18 23 33 49 69 91 99 100 100 100 99 90 100 100 100 100 100 99 100 88 76 72
51 49 51 52 60 60 67 84 74 64 60 55 49 47 35 30 19 20 22 29 34 39 42 50 68 84 98 100 100 100 100 99 92 91 93 100 100 100 84 88 84 79 80
54 55 51 54 65 66 67 81 81 78 71 72 65 60 64 56 53 51 60 58 54 60 66 70 66 71 70 82 89 81 80 74 77 86 89 94 93 96 96 94 96 89 79
47 53 58 62 63 71 69 72 87 74 89 75 75 69 70 76 72 73 74 72 67 63 70 69 63 78 78 78 80 79 80 90 95 96 96 94 95 100 100 94 93 90 76
47 54 68 62 73 90 74 61 76 85 90 88 65 68 81 82 79 78 80 89 92 94 95 99 95 99 100 100 100 100 98 100 99 100 100 100 100 100 98 96 85 76 67
57 68 70 78 81 81 77 71 73 81 86 95 91 90 84 79 83 90 97 98 96 94 96 99 100 100 100 100 100 100 100 100 100 100 91 85 92 96 95 85 78 67 59
65 70 69 74 86 83 78 79 76 74 78 80 76 79 82 94 98 99 99 100 96 94 95 94 96 98 100 100 100 100 99 95 95 99 100 100 100 93 87 79 61 49 46
65 71 69 72 79 83 88 97 95 90 85 82 78 84 95 98 98 95 94 92 89 92 100 100 100 100 100 100 100 100 100 100 100 100 99 95 90 82 69 52 40 42 40
76 70 83 86 85 85 85 89 92 88 85 93 89 93 99 96 89 86 84 79 80 77 83 95 100 100 100 100 100 100 100 96 91 86 80 72 65 57 48 41 40 31 21
77 74 83 98 94 97 91 87 82 82 94 99 93 90 86 84 78 79 76 78 81 73 72 79 86 89 92 93 89 84 83 82 76 71 65 59 52 45 38 30 22 19 14

GFSMW_250_rhum_060.txt.gz
RH
100 100 100 100 100 100 97 93 88 91 86 83 80 80 74 72 72 80 75 76 76 73 73 73 74 77 90 97 100 100 100 100 100 98 92 93 84 82 84 85 78 80 87
100 100 100 100 100 100 100 99 98 95 84 85 90 92 82 88 92 91 93 87 88 85 83 84 88 93 91 96 97 99 100 100 92 81 82 81 96 98 95 97 95 99 100
100 100 100 100 100 100 100 100 97 94 96 93 84 86 83 96 99 100 100 97 91 97 97 98 98 100 100 100 98 100 100 100 100 100 95 100 93 88 89 85 95 93 92
100 100 100 100 100 100 100 98 100 100 99 98 99 98 97 96 100 98 94 90 98 100 100 100 100 100 100 100 100 98 90 88 96 88 92 95 100 100 100 100 100 96 97
95 93 92 96 100 100 100 100 100 97 98 91 92 90 91 86 78 90 98 99 99 100 98 100 100 100 100 100 100 100 100 100 100 100 100 100 100 100 100 91 82 100 100
97 97 94 93 98 95 96 96 84 81 75 66 70 75 78 90 93 100 100 100 100 100 100 99 100 99 99 100 100 100 100 100 100 100 100 100 100 100 100 100 100 100 100
82 80 71 79 81 72 73 72 66 72 73 83 87 86 92 100 100 100 100 100 100 100 100 95 94 100 100 100 100 100 100 100 100 100 100 100 100 100 100 100 100 100 100
96 88 77 70 72 64 68 66 62 63 77 85 94 92 92 92 96 98 98 97 93 96 98 100 100 100 100 100 100 100 100 100 100 100 100 100 100 100 100 100 100 100 100
81 82 77 77 66 62 66 66 69 69 64 70 71 70 76 78 82 84 89 92 94 100 100 100 100 100 100 100 100 100 100 100 100 100 100 100 100 100 100 100 100 100 100
90 84 92 91 94 94 93 88 82 83 90 82 81 88 86 86 86 81 75 71 73 80 87 96 96 93 94 95 93 88 83 84 88 91 100 100 100 100 100 95 100 100 100
100 100 100 99 99 100 100 99 100 90 77 87 87 83 74 70 70 65 54 36 27 22 19 21 25 38 51 64 70 72 72 72 84 97 100 100 100 100 100 100 100 100 100
97 94 93 92 92 93 95 94 81 78 83 83 79 53 40 35 27 18 14 11 11 13 14 16 18 21 28 38 50 60 66 75 81 92 99 100 100 100 100 100 100 100 100
100 100 98 92 87 85 86 90 84 76 64 61 55 44 37 29 23 21 17 13 10 11 11 11 14 18 24 31 35 43 53 66 81 98 100 100 100 100 100 100 100 100 100
84 81 85 80 73 75 68 71 65 63 56 49 44 37 35 34 28 22 16 12 11 11 10 8 8 11 18 26 35 47 52 52 55 63 74 92 100 100 100 100 100 94 94
68 67 67 77 76 75 65 56 54 54 46 42 37 43 40 30 20 14 11 9 8 7 7 7 8 9 12 20 26 38 53 64 72 74 86 94 95 99 98 99 99 86 98
81 82 84 74 68 66 62 56 51 46 44 42 49 44 34 27 26 22 18 14 11 10 9 9 10 11 12 20 32 47 64 86 100 99 97 98 100 100 100 90 88 90 94
79 73 72 69 83 68 51 46 44 56 60 57 50 48 44 40 43 36 33 30 19 15 14 15 19 25 26 36 54 74 83 88 96 99 100 98 90 77 75 77 81 89 90
73 80 87 73 58 52 44 45 53 73 69 58 59 53 55 52 53 54 47 48 45 40 38 42 46 46 49 62 67 77 88 94 90 90 88 81 73 69 73 81 84 92 95
87 87 64 57 49 46 47 59 59 73 68 60 68 71 61 74 85 77 61 54 53 49 53 61 66 66 73 76 78 74 75 75 72 74 78 78 80 87 93 98 100 100 100
75 69 55 46 41 46 60 64 59 82 68 59 69 70 76 73 66 66 67 67 63 64 66 72 72 71 72 73 73 75 80 82 82 81 86 95 100 100 100 100 100 100 100
70 60 45 43 50 58 67 66 81 71 66 70 73 77 82 71 69 71 74 78 85 88 88 84 84 81 81 82 87 93 94 98 96 100 100 100 100 100 100 100 100 100 100
62 69 60 58 66 67 63 75 76 66 67 66 69 80 83 78 82 84 83 78 78 83 90 98 100 100 100 100 100 100 100 100 100 100 100 100 100 100 100 100 100 93 76
65 76 68 65 69 73 69 73 74 68 68 74 82 85 82 78 76 76 81 81 80 79 80 80 83 98 100 100 100 100 100 100 100 100 100 98 94 88 83 76 70 65 58
68 74 72 64 71 70 75 74 77 82 84 84 86 85 79 73 72 78 82 73 76 77 81 77 71 74 93 100 100 100 99 96 90 85 82 79 76 72 65 60 55 49 42
71 74 78 62 66 77 81 78 81 86 86 83 83 89 78 70 74 80 81 76 80 79 83 82 76 73 70 72 76 77 77 78 76 71 69 67 63 55 48 42 35 28 27
72 80 76 73 67 72 89 90 90 89 82 85 90 94 84 79 83 86 86 86 88 82 83 85 82 79 82 80 74 73 76 75 70 67 64 55 48 43 36 33 32 28 22

GFSMW_250_rhum_063.txt.gz
RH
100 100 100 100 100 100 100 100 99 100 98 98 86 95 88 82 91 93 80 77 75 71 69 76 77 78 78 80 85 88 88 87 92 91 85 89 97 100 97 97 100 100 92
100 100 100 100 91 91 92 87 81 85 85 85 96 100 97 90 97 91 88 86 80 69 76 82 86 88 96 99 95 84 96 99 81 90 96 97 100 100 88 96 94 92 94
100 100 100 100 100 100 100 100 100 100 100 100 100 96 99 88 81 74 76 76 77 80 84 85 85 80 80 78 95 100 94 93 92 99 100 100 100 100 100 100 100 100 100
100 100 100 100 100 100 100 100 100 100 100 99 83 84 85 85 74 66 70 69 66 71 69 70 69 75 82 90 97 100 100 100 100 100 100 100 100 100 100 100 100 100 100
100 100 100 100 100 100 100 100 100 100 100 100 96 87 85 76 78 75 73 72 68 62 58 62 71 81 82 92 100 100 100 100 100 100 100 100 100 100 100 100 100 100 100
99 98 100 100 100 100 100 100 95 99 98 94 89 88 85 77 77 82 74 72 71 69 74 71 71 71 76 77 94 96 98 99 100 100 100 100 100 100 100 100 100 100 100
97 96 98 99 100 100 100 100 98 92 96 92 89 85 84 79 72 70 72 69 66 71 70 72 78 85 83 80 80 97 100 100 100 100 100 100 100 100 100 100 100 100 100
100 99 98 98 96 95 96 98 98 97 96 89 79 71 65 62 62 61 60 66 64 60 56 60 64 79 86 92 94 100 100 100 100 100 100 100 100 100 100 100 100 100 100
95 96 93 92 90 88 88 88 82 76 74 70 66 64 58 50 54 59 69 83 76 78 87 94 98 100 100 100 98 99 99 100 100 100 100 100 100 100 100 100 100 100 100
81 72 72 70 69 70 72 72 68 64 59 56 54 53 58 54 65 86 95 96 90 90 81 79 69 58 53 58 60 59 55 67 79 84 86 91 100 100 100 100 100 100 100
100 99 90 88 83 74 72 71 67 62 67 71 73 89 85 88 98 96 77 68 61 58 41 25 17 15 14 16 22 25 28 36 48 54 62 73 90 100 100 100 100 100 100
100 100 96 96 99 97 88 78 74 85 99 97 95 90 79 67 63 61 46 44 32 24 16 13 13 13 13 14 16 22 27 30 33 42 53 68 77 90 100 100 100 100 100
100 100 100 100 100 100 94 93 93 85 88 80 76 77 58 60 49 38 38 37 26 20 18 15 12 10 9 8 7 11 18 29 34 39 44 51 58 66 75 90 98 100 100
57 63 85 94 97 100 97 89 84 67 65 77 72 48 44 46 45 41 35 39 36 26 18 13 10 8 6 5 5 6 10 17 28 36 45 53 60 65 72 75 82 79 82
74 82 79 79 80 78 75 62 49 51 57 51 54 53 51 43 39 40 44 40 31 24 18 17 15 12 8 7 7 8 11 14 21 34 50 63 80 88 94 100 100 95 92
68 70 65 56 52 56 60 53 55 58 55 56 59 50 43 37 44 48 42 38 30 34 32 35 27 20 20 12 12 10 12 16 26 45 60 75 87 99 100 100 100 91 99
82 72 71 81 79 62 64 62 59 63 58 60 52 46 40 48 45 46 40 36 40 38 40 43 43 37 26 22 22 23 27 36 46 58 79 92 91 86 89 99 99 86 81
87 95 78 65 68 74 70 68 70 58 52 47 44 48 48 51 47 50 47 47 46 53 53 47 48 51 51 51 49 59 77 88 95 94 90 88 91 93 95 93 86 82 80
77 72 76 82 79 80 82 69 56 49 45 47 56 55 51 56 62 63 56 51 52 54 56 57 55 57 60 61 60 66 69 70 68 71 75 76 76 74 76 92 96 98 97
92 89 85 91 96 86 72 59 49 42 44 58 55 50 55 64 66 65 62 53 62 68 68 70 72 72 73 71 70 76 81 83 84 86 83 82 85 88 87 87 90 100 100
93 98 100 90 78 68 56 44 47 49 60 57 63 65 60 61 67 68 64 58 67 64 66 66 65 65 66 81 88 88 87 90 94 99 100 100 100 100 100 100 100 100 95
100 93 91 82 66 60 43 55 62 61 58 65 70 71 67 64 72 72 63 66 64 70 71 71 72 73 70 65 72 88 97 100 100 100 100 100 95 92 91 90 84 77 72
84 94 79 64 71 58 56 63 64 62 68 69 72 72 71 80 82 74 68 72 66 73 78 75 72 73 74 73 73 70 70 73 76 80 82 77 77 75 72 67 62 59 54
98 78 63 63 62 66 59 61 68 70 75 74 78 80 81 84 82 80 77 75 71 80 83 78 78 73 74 78 80 82 84 84 82 80 74 70 68 67 64 59 56 52 44
93 74 64 69 69 76 67 59 62 72 78 80 78 81 81 80 79 84 81 76 74 85 84 85 86 85 86 89 88 85 80 80 82 83 80 76 73 70 66 60 53 45 44
100 86 63 70 76 78 72 64 64 70 84 83 78 86 87 89 89 86 85 83 82 96 97 93 91 93 93 90 87 85 82 81 80 81 87 85 80 77 70 61 53 43 56

GFSMW_250_rhum_066.txt.gz
RH
100 92 97 96 87 81 77 69 66 67 67 87 100 100 94 89 100 95 74 73 80 76 75 75 73 64 60 59 64 62 64 73 73 69 65 70 88 100 100 98 97 100 98
100 100 100 100 100 100 100 100 100 99 99 94 90 99 100 95 87 88 87 87 95 100 89 85 80 70 63 66 64 70 70 68 64 61 61 78 98 100 88 100 100 100 100
100 100 100 100 100 100 100 100 100 100 100 100 98 98 100 100 100 91 97 92 92 85 86 84 73 76 78 75 72 67 67 68 65 64 66 75 81 96 98 99 100 100 100
100 100 100 100 100 100 100 100 100 100 100 100 100 100 93 93 100 100 96 93 84 76 66 64 64 62 65 65 62 62 63 67 73 78 77 85 90 98 100 100 100 100 100
100 100 100 100 100 100 100 100 100 100 100 96 96 97 97 87 87 100 99 86 82 72 63 48 47 45 51 55 56 60 58 70 74 84 87 91 83 76 94 100 100 100 100
100 100 100 100 100 100 100 100 100 100 100 100 96 95 100 99 98 82 77 78 67 61 66 68 64 61 57 54 50 50 51 61 76 88 100 100 100 100 100 100 100 100 100
100 100 100 100 100 100 100 100 100 100 100 100 99 100 100 87 92 88 80 79 74 76 73 70 64 61 56 53 51 49 48 51 64 88 100 100 100 100 100 100 100 100 100
100 100 100 100 100 100 99 93 91 92 94 88 89 98 99 91 92 93 84 83 82 72 66 60 60 58 59 60 66 62 50 45 40 43 63 80 94 100 100 96 97 100 100
100 100 100 100 100 98 92 92 93 88 92 98 100 100 100 97 88 86 80 76 70 63 61 53 61 62 74 77 60 32 21 18 18 20 26 32 43 60 72 81 98 100 100
97 97 94 91 89 87 88 95 91 91 93 95 98 94 91 82 75 75 67 63 61 59 65 66 77 72 53 23 18 17 16 16 16 18 21 25 29 35 44 69 95 100 100
94 84 78 75 76 77 74 72 74 74 73 66 69 67 68 63 60 57 56 60 70 82 80 58 49 38 20 17 17 18 16 14 14 15 18 21 25 32 38 48 61 89 100
100 100 100 100 93 90 82 72 70 69 72 66 54 60 72 66 59 71 70 83 68 63 54 34 28 28 21 20 23 18 12 10 9 8 8 9 14 23 33 42 52 64 80
100 100 100 100 100 100 100 100 100 100 98 94 88 82 79 74 77 79 76 62 52 37 33 33 31 31 33 26 18 14 11 5 5 5 5 6 10 18 30 42 54 64 67
82 91 94 97 96 97 99 98 100 98 100 98 92 91 94 96 90 74 57 31 31 33 36 32 38 38 31 25 22 18 13 8 6 6 7 11 13 19 33 51 62 70 77
57 58 55 57 54 56 65 71 76 75 77 70 62 52 65 62 44 37 32 39 41 37 36 37 39 38 30 30 33 37 32 18 10 9 11 15 18 26 42 58 72 80 91
52 56 60 50 47 65 71 42 33 47 53 53 51 46 45 41 42 41 46 43 37 40 40 43 40 34 34 36 40 38 35 26 25 25 24 31 32 43 59 79 91 99 100
66 59 64 80 71 61 67 74 67 56 57 54 58 55 47 47 54 51 42 38 46 45 46 42 38 36 40 42 44 45 43 41 37 32 44 62 77 88 95 98 99 99 99
73 77 81 88 88 86 77 58 60 66 67 64 58 53 59 61 49 43 41 47 49 47 49 45 40 40 44 49 49 47 50 51 51 57 67 76 74 76 80 84 86 87 85
79 77 76 76 76 73 67 76 74 70 78 74 68 64 56 46 41 45 49 51 51 50 55 50 47 51 50 49 54 54 52 57 58 60 60 60 59 60 63 67 66 70 72
76 76 74 75 71 78 74 78 90 92 78 69 66 52 44 41 43 54 51 50 53 55 56 54 51 56 53 55 58 60 60 58 57 61 69 77 80 79 81 84 88 89 92
86 89 88 84 83 90 98 100 94 86 65 52 44 45 49 55 57 62 54 56 53 61 61 59 58 60 62 60 56 58 63 67 71 77 81 82 81 79 77 74 73 73 73
94 89 87 96 100 100 100 92 77 58 44 45 51 61 62 60 63 59 56 58 68 71 70 66 66 65 70 70 70 70 68 69 73 77 80 85 89 93 95 94 93 92 90
88 93 100 100 99 94 96 79 57 45 45 61 63 63 64 67 66 66 71 79 79 75 78 75 69 67 71 73 72 74 76 77 84 92 95 95 92 93 95 96 97 92 81
95 100 100 98 92 83 71 63 55 50 59 64 65 66 72 73 72 77 81 83 81 77 83 85 77 79 78 76 74 76 80 86 97 100 100 100 100 100 100 99 91 78 69
100 100 98 91 77 67 62 63 65 68 70 62 61 69 78 82 85 92 94 90 89 89 93 93 94 86 83 80 82 85 88 91 92 92 96 96 98 99 90 84 76 67 61
100 100 94 90 75 62 62 66 67 70 72 65 65 70 75 87 99 100 98 98 99 100 97 95 92 86 86 85 88 93 93 98 100 100 100 98 97 92 89 82 70 61 57

GFSMW_250_rhum_069.txt.gz
RH
87 87 97 100 100 100 95 91 98 100 88 64 68 74 67 61 65 72 54 46 58 84 95 95 85 86 82 84 95 90 81 76 71 66 62 61 58 61 60 57 67 87 96
100 98 95 100 100 100 100 96 90 90 89 82 74 69 70 68 71 80 96 100 100 100 97 98 100 96 100 98 82 89 76 72 64 62 61 60 58 58 54 57 62 87 84
100 100 100 100 99 95 97 88 80 74 76 85 94 100 100 100 100 100 100 90 83 99 100 100 100 99 93 95 90 83 71 70 63 64 63 62 57 58 63 67 73 80 93
100 100 100 100 100 100 100 100 100 100 100 100 100 100 100 100 100 100 100 100 94 82 80 86 84 99 92 82 75 74 65 68 69 68 63 58 64 63 70 83 93 97 97
100 100 100 100 100 100 100 100 100 100 100 100 100 98 100 100 91 91 100 89 87 88 81 78 71 72 68 67 65 65 64 68 63 60 64 72 85 94 100 100 100 100 100
100 100 100 100 100 100 100 100 100 100 100 99 98 94 94 98 90 74 85 99 90 84 85 75 62 67 67 67 71 70 60 57 56 55 64 87 84 90 98 100 94 82 96
100 100 100 100 100 100 100 100 100 100 100 100 96 93 85 89 99 96 86 76 85 75 74 78 89 83 75 72 60 56 52 50 47 42 46 29 24 29 28 36 40 53 56
100 100 100 100 100 100 100 100 100 100 100 100 100 100 96 90 98 99 95 87 86 84 82 86 85 78 66 57 54 49 48 39 40 27 14 12 15 18 23 26 31 39 46
100 100 100 100 100 100 100 100 100 100 100 100 100 100 100 100 100 93 86 87 88 92 86 77 64 58 52 44 44 43 48 40 17 12 14 16 17 17 19 21 25 29 33
100 100 100 100 100 100 100 100 100 100 100 100 100 100 99 100 97 99 92 91 84 73 66 58 52 51 49 50 60 56 49 23 18 19 18 20 18 15 13 12 17 22 30
100 100 97 100 100 100 100 100 100 100 100 100 100 100 98 96 96 91 83 73 68 55 51 53 56 59 52 58 59 29 23 26 24 20 18 15 14 7 6 6 8 12 23
100 100 100 99 100 100 100 100 100 100 100 100 96 100 98 89 81 77 65 68 65 67 57 72 74 58 48 40 30 32 32 32 31 22 14 12 10 5 4 5 7 11 22
100 100 100 100 98 100 99 94 95 91 97 96 85 83 77 77 70 77 71 82 70 71 53 54 44 38 30 33 33 35 38 36 31 28 24 17 13 7 5 7 8 13 18
95 100 100 100 100 100 100 99 97 93 94 90 90 86 91 88 78 66 77 72 61 46 35 34 32 37 33 37 38 40 36 33 35 37 37 30 22 12 10 13 14 16 23
33 49 76 92 93 100 100 99 100 100 98 98 94 92 80 72 49 44 48 41 36 35 34 34 41 43 39 43 45 39 36 34 37 41 44 40 30 26 21 18 28 34 49
25 35 57 77 100 100 100 100 100 100 100 89 57 46 51 42 36 38 41 39 34 42 46 46 45 43 47 49 44 39 37 35 38 41 43 45 47 45 43 41 51 62 72
21 23 26 46 59 68 73 79 75 54 68 62 45 54 53 45 64 49 43 51 52 53 53 46 41 50 51 51 44 42 40 38 40 44 46 48 52 54 56 59 61 60 61
20 21 24 29 48 65 62 68 81 86 68 67 56 59 75 64 52 50 50 54 62 57 45 39 49 48 50 49 44 45 47 45 43 44 47 49 51 54 61 66 69 70 73
28 32 36 39 58 79 86 81 79 69 61 70 78 73 67 64 57 55 62 73 58 43 43 51 51 49 53 51 51 51 54 53 52 53 54 54 54 57 60 66 72 77 79
46 44 46 60 72 69 67 64 76 85 85 70 79 75 72 59 61 72 62 49 47 56 58 58 56 55 61 62 58 56 57 58 58 62 63 65 68 73 76 79 86 92 97
84 76 78 81 81 87 90 83 72 77 84 83 77 66 62 70 60 49 52 60 61 59 59 57 57 68 74 70 67 67 64 61 67 67 69 74 78 79 82 88 93 98 100
86 87 94 90 89 86 85 86 87 94 89 81 74 68 67 50 54 60 65 61 63 63 64 68 72 75 76 74 79 78 73 73 75 76 76 78 81 85 89 92 93 93 91
93 88 82 88 94 91 97 97 94 92 95 84 70 56 47 50 62 67 66 70 73 74 77 77 76 77 75 78 86 87 86 84 85 80 79 81 82 81 83 86 92 93 86
90 91 95 99 96 97 100 100 100 100 83 66 53 48 53 61 65 67 69 75 82 87 88 84 82 86 90 88 87 88 90 90 84 80 79 82 82 85 86 91 92 86 82
100 98 94 89 100 100 100 100 90 73 64 61 54 60 70 70 69 70 77 91 100 100 96 90 92 91 92 94 90 87 87 86 81 76 76 78 81 84 87 86 81 83 82
92 90 97 100 100 100 98 84 65 61 60 67 68 73 76 78 75 80 91 95 96 98 94 91 86 89 93 91 84 81 79 77 78 80 78 76 80 83 85 80 79 78 77

GFSMW_250_rhum_072.txt.gz
RH
100 100 94 88 88 98 100 100 95 89 98 100 97 98 98 98 97 92 89 90 89 80 70 68 94 100 100 99 92 83 87 92 90 87 89 94 82 79 72 66 66 56 58
100 100 100 100 88 91 97 95 99 97 89 90 97 99 100 100 98 98 95 94 91 80 92 100 100 97 94 86 85 84 79 92 91 91 79 74 66 68 62 57 52 53 64
100 100 100 100 100 99 97 98 100 100 100 92 82 84 88 93 96 100 100 95 94 100 100 100 100 100 97 90 90 87 83 90 87 73 64 61 61 60 56 52 47 57 76
99 100 100 100 100 100 100 100 100 98 98 100 100 100 99 90 89 81 88 96 93 92 78 88 84 83 95 90 88 96 90 75 69 69 66 62 56 50 44 47 63 71 88
100 100 100 100 100 100 100 100 100 100 100 100 100 100 100 100 100 100 100 100 94 97 88 72 82 83 78 89 98 80 76 71 66 64 62 56 46 44 38 48 60 53 29
100 100 100 100 100 100 100 100 100 100 100 100 100 96 100 100 100 100 100 100 98 92 100 91 86 91 84 85 82 72 66 65 64 60 47 40 37 37 26 21 20 16 19
92 99 100 100 100 100 100 100 100 100 100 100 100 97 94 96 98 92 87 85 95 94 97 98 94 86 90 77 73 67 71 68 58 41 30 38 36 26 19 13 12 14 21
100 100 100 100 100 100 100 100 100 100 100 100 99 95 88 86 89 90 88 84 91 98 100 100 99 99 85 76 76 80 67 54 39 29 24 35 25 20 16 15 18 19 17
98 100 100 100 100 100 100 98 100 100 100 100 100 97 91 87 88 88 92 98 98 92 100 98 96 90 89 78 82 68 57 34 24 26 28 27 23 22 20 20 17 15 13
100 93 98 97 94 97 100 100 100 100 100 100 100 100 100 99 100 100 100 97 100 100 100 90 93 83 88 79 67 57 34 23 30 28 29 28 26 28 25 18 14 13 12
100 100 100 100 100 100 100 100 100 100 100 100 100 100 100 100 100 100 100 100 100 99 100 97 92 82 70 64 56 33 24 30 28 32 32 32 35 32 28 23 19 15 12
66 92 100 100 100 100 100 100 100 100 100 100 100 100 100 100 100 100 100 100 100 100 90 80 78 73 67 62 35 25 27 26 33 33 32 35 35 33 32 28 28 22 14
40 54 66 83 98 100 100 100 100 100 100 100 100 100 100 100 100 100 99 99 90 80 77 74 84 80 57 33 23 30 32 33 37 36 38 38 36 34 35 34 33 31 22
72 66 50 42 47 76 97 100 100 100 98 100 100 97 97 97 100 95 94 86 87 73 86 88 68 32 27 26 32 37 39 42 41 42 43 40 37 35 36 37 37 33 32
19 43 74 81 58 60 74 88 94 94 91 94 99 99 98 95 94 93 92 82 85 91 85 63 30 28 32 37 41 48 48 43 44 47 44 44 40 39 40 41 41 42 39
19 19 18 20 39 63 75 82 82 88 90 89 97 96 91 77 83 86 87 96 95 59 40 36 34 44 44 49 55 50 42 45 49 57 48 46 45 48 48 48 50 47 46
20 21 23 25 30 36 38 42 37 44 53 58 55 71 73 86 95 100 94 71 52 45 38 47 48 53 55 56 51 40 45 49 60 60 50 46 48 52 56 56 54 54 55
22 22 21 23 27 32 40 45 68 77 85 80 80 91 95 84 87 76 62 62 57 53 50 51 57 63 59 47 43 49 53 59 63 61 55 54 56 61 62 58 57 55 55
23 22 23 24 25 28 30 31 36 46 55 72 77 95 95 96 72 75 66 53 55 52 55 64 65 53 44 53 55 57 61 64 71 69 65 64 64 64 60 64 65 67 70
23 24 25 26 26 27 28 27 28 36 47 49 62 76 86 82 60 68 51 52 59 59 68 58 49 52 58 58 60 65 72 73 71 69 73 76 81 80 76 71 67 62 68
34 32 32 33 32 31 34 36 41 56 65 73 73 67 76 74 60 61 60 64 68 64 52 52 60 62 64 72 76 76 76 76 74 74 82 86 82 81 77 73 71 73 78
51 55 50 48 55 63 73 83 87 89 93 93 88 86 78 70 71 66 66 72 63 53 59 66 69 74 80 80 80 83 84 82 85 89 89 86 80 76 76 76 78 82 82
74 89 90 93 88 88 92 95 96 96 95 91 90 82 77 77 70 68 60 52 54 59 71 77 81 86 96 92 90 87 84 82 82 83 80 78 75 75 77 82 84 80 76
89 95 98 98 98 92 96 96 96 96 98 93 93 93 82 73 64 51 55 68 67 75 78 84 92 92 90 91 90 85 77 75 75 76 77 77 77 79 80 84 84 83 82
98 99 100 100 100 100 100 99 100 100 100 100 100 87 67 56 57 58 63 75 81 81 84 85 83 86 91 94 87 79 73 72 74 75 76 78 79 81 83 87 87 86 86
100 100 100 100 100 100 99 96 100 100 100 98 86 68 63 64 66 73 86 91 90 85 87 94 99 96 82 75 74 74 75 78 78 79 82 82 85 86 88 92 92 93 86

GFSMW_250_rhum_078.txt.gz
RH
100 100 100 100 100 95 91 82 96 96 84 100 100 100 100 99 98 96 100 100 100 100 100 100 100 100 100 96 83 93 98 100 91 86 96 98 95 94 85 86 76 80 81
100 100 100 100 100 100 100 100 100 100 100 100 100 100 97 94 91 85 87 92 95 100 100 98 97 100 100 100 100 100 100 100 100 92 90 100 100 89 84 78 89 89 91
100 100 100 100 100 100 100 100 100 100 100 100 100 100 100 100 100 94 94 94 96 100 100 100 100 100 100 100 100 100 100 100 100 94 86 86 91 87 83 88 92 95 87
100 100 100 100 100 100 100 100 100 100 100 100 100 100 100 100 100 100 100 100 100 100 100 100 100 100 100 100 100 100 100 97 93 98 94 86 81 76 83 96 95 84 72
100 100 100 100 100 100 100 100 100 100 100 100 100 100 100 100 100 100 100 100 100 100 100 100 100 100 100 100 100 100 99 100 100 89 84 86 82 88 81 81 82 69 59
53 98 100 98 100 100 100 100 100 100 100 100 100 100 100 100 100 100 100 100 100 100 100 99 99 100 100 100 100 100 98 86 86 86 88 94 96 99 79 77 67 62 50
26 50 84 100 93 99 100 100 100 100 100 100 100 100 100 100 100 100 100 100 98 95 97 100 100 100 100 96 85 81 88 89 100 100 100 100 93 79 82 69 63 54 32
31 24 51 57 85 93 98 100 100 100 100 100 100 100 100 100 100 100 100 100 100 100 100 100 100 98 99 98 99 100 100 100 100 98 97 91 85 81 69 66 58 31 18
57 35 20 43 60 67 82 92 96 96 98 99 100 100 100 100 100 100 100 100 100 100 100 100 100 100 100 100 100 100 100 100 100 96 89 84 77 78 69 59 40 16 21
64 38 37 35 39 48 56 68 79 85 88 95 99 100 100 100 100 100 100 100 100 100 100 100 100 100 100 100 100 100 100 100 96 91 85 81 80 69 56 42 25 21 26
79 74 40 42 44 46 51 55 60 76 93 100 100 100 100 100 100 100 100 100 100 100 100 100 100 100 100 100 100 96 95 92 87 89 81 81 66 50 47 48 26 28 36
38 55 58 39 36 42 50 54 46 50 71 90 99 100 100 100 100 100 100 100 100 100 100 100 100 100 98 98 93 95 89 84 93 81 78 63 43 52 63 33 33 36 46
45 38 33 33 34 36 39 42 53 60 63 74 84 92 92 94 98 99 100 100 100 100 98 100 97 96 94 92 89 87 84 85 84 75 62 51 64 68 46 37 42 46 41
66 52 26 25 26 30 32 35 38 46 45 50 55 67 73 71 76 84 94 97 100 100 93 90 92 87 87 84 80 70 74 91 76 58 68 97 70 59 43 46 46 45 51
32 26 23 21 29 28 46 44 37 35 38 41 45 49 56 55 55 58 72 79 78 80 83 89 87 80 76 85 87 74 78 76 64 84 100 83 73 47 52 48 52 53 55
26 23 21 19 20 18 25 38 42 48 46 37 37 55 64 72 87 84 85 87 98 90 85 96 69 66 97 85 67 63 75 77 92 100 91 77 52 52 55 54 58 58 66
27 26 22 21 20 20 20 18 18 18 19 20 35 59 74 76 81 73 73 83 81 79 48 63 77 77 51 59 83 95 83 96 100 100 86 58 57 58 60 62 64 73 76
22 26 27 27 26 24 23 21 20 20 19 19 22 28 34 42 52 48 46 42 28 42 68 57 50 59 74 100 100 97 98 100 100 78 63 67 60 65 68 72 75 86 88
20 20 23 26 27 26 26 25 24 22 22 22 22 21 22 30 34 35 35 34 34 40 50 70 90 100 100 100 100 99 88 86 72 69 79 64 60 74 79 88 93 86 81
27 26 25 24 25 25 27 28 27 25 24 24 27 29 39 45 48 46 54 65 66 84 100 100 92 97 94 65 82 76 72 73 80 81 67 56 72 84 92 92 84 85 79
32 30 28 27 26 27 27 27 27 27 26 28 42 58 69 72 77 95 97 93 98 88 85 94 74 73 72 81 71 71 81 78 68 63 59 70 85 93 91 83 80 74 77
45 41 40 35 35 34 31 28 28 31 34 40 47 50 57 61 62 60 67 91 99 86 78 84 82 80 74 73 78 81 74 63 73 71 83 91 95 89 83 78 81 84 78
57 55 49 52 54 50 46 44 44 43 48 52 51 61 74 75 70 62 65 75 86 87 93 86 78 77 76 66 59 60 62 67 90 97 92 88 85 80 81 85 87 82 81
72 74 71 64 61 57 54 54 54 54 56 58 61 67 71 74 79 78 87 99 100 95 91 85 84 69 56 64 75 88 91 97 99 98 95 85 84 90 94 89 88 89 85
65 66 64 68 70 74 73 69 65 71 82 87 92 96 93 93 97 100 100 98 99 99 96 79 65 61 61 65 82 99 100 97 91 86 90 92 92 88 91 91 90 86 84
75 73 72 67 75 79 85 86 90 92 96 95 96 98 100 100 100 100 100 100 100 99 85 77 76 75 73 73 76 76 82 87 90 88 90 92 89 90 89 90 87 85 82

GFSMW_250_rhum_081.txt.gz
RH
100 100 100 100 89 88 89 99 88 100 100 100 100 100 100 100 100 100 98 99 100 100 100 100 100 98 92 98 94 99 100 100 100 100 98 94 83 88 85 81 86 77 77
100 100 100 100 100 100 96 71 69 75 86 100 100 100 100 100 100 100 100 100 100 100 100 100 100 100 100 100 100 100 100 100 99 90 77 90 100 88 94 85 82 84 89
85 100 100 100 100 100 100 100 91 74 75 76 89 100 100 100 100 97 98 100 100 100 100 100 100 100 100 100 100 100 100 97 86 88 90 81 98 98 90 89 98 100 95
24 93 100 100 100 100 100 100 100 99 94 94 99 100 100 100 100 100 100 100 100 100 100 100 100 100 100 100 100 95 90 100 100 100 100 97 84 83 100 100 100 98 95
18 22 77 100 99 100 100 100 100 100 100 100 100 100 100 100 100 100 100 100 100 100 100 100 100 100 95 98 100 100 100 100 100 100 100 97 100 100 100 100 98 98 86
20 20 22 77 100 100 100 100 100 100 93 91 99 100 100 100 100 100 100 100 100 100 100 100 100 100 100 100 100 100 100 100 100 100 100 100 100 100 100 93 95 92 85
16 20 22 23 71 100 100 100 100 99 96 96 97 100 100 100 100 100 100 100 100 100 100 100 100 100 100 100 100 100 100 100 100 100 100 100 100 99 99 87 83 79 79
18 18 18 34 48 70 100 100 100 100 100 97 95 97 100 100 100 100 100 100 100 100 100 100 100 100 100 100 100 100 100 100 100 100 100 100 100 94 87 81 77 74 69
32 18 19 18 31 55 54 80 100 100 100 100 100 100 100 100 100 100 100 100 100 100 100 100 100 100 100 100 100 100 100 100 100 100 100 98 97 88 81 79 72 60 63
26 27 22 18 19 19 27 43 68 97 100 100 100 100 100 100 100 100 100 100 100 100 100 100 100 100 100 100 100 100 100 100 100 100 100 99 94 88 85 77 61 55 58
30 39 34 37 21 20 21 23 34 78 100 100 98 100 100 100 100 100 100 100 100 100 100 100 100 100 100 100 100 100 100 100 100 100 100 100 95 86 79 73 57 52 46
41 35 45 54 34 26 21 17 24 39 55 78 91 95 96 96 100 100 100 100 100 100 100 100 100 100 100 100 100 100 100 100 100 100 100 98 92 77 75 68 60 60 58
29 34 50 33 31 26 26 27 21 19 22 33 45 57 67 74 79 80 83 85 92 97 100 100 100 100 100 100 100 100 100 100 100 92 95 84 71 72 70 70 69 61 65
32 28 25 26 30 26 24 24 27 30 28 26 32 38 44 51 51 51 54 54 66 82 85 90 95 99 99 95 98 91 90 89 86 92 82 75 67 68 90 83 59 67 63
34 34 35 31 29 30 28 26 27 25 28 32 29 30 36 40 42 42 40 39 45 53 64 73 75 91 84 75 78 88 92 83 84 63 80 83 67 96 89 84 68 67 57
27 26 29 28 25 23 24 22 20 19 22 26 26 35 38 35 29 32 39 46 49 55 62 68 70 66 85 62 80 92 79 57 53 82 73 74 88 98 94 83 73 65 66
27 26 26 25 24 22 21 19 18 19 19 20 20 20 36 43 31 40 38 44 46 45 45 52 66 77 65 98 77 76 49 49 71 68 88 91 100 98 85 64 68 64 64
27 29 31 28 25 20 18 19 20 20 21 22 21 21 22 27 33 43 39 30 31 31 34 57 82 99 100 81 63 61 57 69 84 87 98 92 91 68 76 74 73 66 56
17 18 19 22 23 24 23 23 22 22 22 23 24 23 22 23 23 25 24 24 29 33 47 52 48 60 59 72 79 71 81 99 100 93 85 68 70 76 76 71 62 63 75
36 25 19 19 21 22 23 25 24 25 25 26 27 28 28 26 27 27 26 26 26 35 46 48 54 65 70 68 96 100 100 100 90 73 74 73 74 78 73 64 83 82 91
42 38 37 31 25 24 26 28 29 32 33 32 34 35 35 34 32 32 31 34 38 44 58 72 90 99 100 100 100 100 86 68 71 71 72 72 68 63 67 89 94 96 96
51 55 52 46 40 36 33 30 31 33 35 37 39 39 39 40 38 39 58 60 65 70 69 87 100 100 94 95 85 76 71 75 73 72 62 64 75 80 91 97 98 94 85
61 67 72 68 73 64 55 44 41 40 38 37 36 38 39 39 42 46 56 83 100 95 100 86 98 88 84 87 79 78 78 72 61 62 72 94 100 100 100 96 90 86 90
53 60 68 81 79 78 79 70 71 72 64 60 55 52 53 53 54 59 70 84 88 99 99 91 95 95 96 91 81 74 64 58 62 68 89 99 97 92 87 85 88 92 86
60 56 54 62 82 82 82 83 81 80 79 70 69 71 70 72 78 84 87 90 92 97 97 97 100 100 98 86 75 68 77 79 83 85 87 88 88 90 91 90 97 98 97
65 62 64 64 70 72 79 81 80 85 90 89 80 75 80 86 90 94 99 100 100 100 100 100 100 100 96 93 87 92 96 96 95 90 86 95 97 100 100 100 100 95 88

GFSMW_250_rhum_084.txt.gz
RH
36 97 100 93 100 99 91 100 100 100 100 100 98 100 100 100 100 100 100 91 86 83 82 85 87 85 96 100 100 100 100 100 100 100 100 100 92 90 77 81 86 80 81
18 32 82 89 96 98 100 100 100 100 100 100 100 100 100 100 100 100 100 100 100 100 100 100 100 97 100 100 100 99 100 100 100 100 97 100 94 78 92 93 83 90 86
18 19 41 80 100 100 100 100 100 100 100 100 100 100 100 100 100 100 100 100 100 100 100 100 100 100 99 99 100 100 100 100 93 95 100 92 96 100 100 100 100 98 86
19 19 25 64 87 93 100 100 100 100 100 94 100 81 96 91 90 94 98 100 100 100 100 100 100 100 100 100 100 100 90 98 100 99 97 98 100 100 100 100 100 100 95
21 20 20 29 42 33 52 91 97 100 100 100 100 88 96 90 97 100 100 100 100 100 100 100 100 100 100 100 99 100 100 100 97 100 100 100 100 100 100 100 100 100 98
23 22 21 21 20 21 25 64 100 100 100 100 100 100 100 92 94 99 100 100 100 100 100 100 100 100 100 100 100 100 100 100 100 100 100 100 100 100 100 100 100 100 100
22 21 21 21 22 23 32 44 66 91 98 100 100 100 100 100 100 100 100 100 100 100 100 100 100 100 100 100 99 100 100 100 100 100 100 100 100 100 100 100 100 100 100
19 20 20 22 22 23 29 33 40 57 92 100 100 100 100 96 95 92 88 92 98 100 100 100 100 100 100 100 100 100 100 100 100 100 100 100 100 100 100 100 100 100 100
20 20 22 21 20 21 22 24 30 36 46 74 100 100 100 100 100 100 100 100 100 100 100 100 100 100 100 100 100 100 100 100 100 100 100 100 100 100 100 100 96 99 93
24 23 21 21 19 19 21 22 22 24 30 47 74 92 100 100 100 97 94 96 100 100 100 100 100 100 100 100 100 100 100 100 100 100 100 100 100 100 100 100 98 94 92
26 27 26 23 21 21 18 17 19 21 23 30 49 69 78 91 100 100 100 100 100 100 100 100 100 100 100 100 100 100 100 100 100 100 100 100 100 100 100 95 86 84 75
25 26 27 26 25 22 19 18 19 21 23 25 30 37 44 64 87 100 100 100 100 100 100 100 100 100 100 100 100 100 100 100 100 100 100 96 97 100 95 89 87 77 73
28 28 27 27 29 29 25 21 18 18 18 21 25 32 37 46 58 72 87 97 100 100 100 100 100 100 100 100 100 100 100 97 100 96 82 94 97 88 88 77 81 76 63
26 28 31 32 32 32 29 29 24 21 19 18 19 20 20 25 32 41 46 52 68 89 100 100 100 99 98 95 86 92 84 73 74 74 83 87 87 87 79 76 75 65 74
24 24 25 27 28 29 30 31 29 25 22 21 19 18 19 19 25 29 42 52 60 59 66 77 74 85 73 69 70 58 62 77 77 68 76 80 82 82 76 69 64 76 64
27 22 20 21 22 24 25 25 25 25 25 22 22 23 23 26 25 30 32 28 28 28 33 36 45 40 45 46 44 52 71 65 55 73 73 68 77 73 68 69 87 72 83
24 24 25 26 25 25 28 28 28 27 26 26 26 28 28 29 31 34 35 39 40 40 37 31 28 30 38 47 57 63 67 63 55 64 80 75 74 66 72 91 82 82 84
25 26 28 33 32 30 28 28 28 27 27 24 23 24 23 25 28 26 26 29 38 39 34 33 31 38 40 51 55 59 44 47 48 68 65 70 78 87 90 78 91 87 73
32 34 37 35 32 30 31 30 26 22 22 22 22 22 25 25 24 24 25 27 27 28 27 29 33 32 36 36 35 38 39 51 50 70 73 70 81 85 93 88 85 74 71
20 20 21 22 24 25 26 26 26 26 24 24 23 23 25 25 27 28 28 30 28 28 28 28 31 30 30 31 33 40 53 58 73 86 94 89 97 84 72 74 71 76 63
30 33 32 33 31 29 28 25 22 21 22 22 22 24 25 30 29 35 34 33 32 35 35 33 35 38 38 46 50 58 66 83 95 99 97 85 80 74 73 76 66 67 87
32 42 47 49 49 51 46 38 35 33 32 28 27 29 31 34 40 43 42 38 42 44 44 50 46 43 49 64 71 70 98 100 94 94 76 77 77 76 70 62 69 86 91
38 41 50 57 62 66 66 67 53 46 41 41 41 41 42 41 43 44 45 47 52 53 51 52 68 79 100 94 98 90 100 98 85 88 85 76 70 64 62 69 78 80 84
52 46 46 52 61 68 68 73 75 73 76 74 66 68 62 57 54 52 54 55 55 59 60 78 76 83 82 96 90 99 93 97 99 86 74 70 74 80 87 92 87 80 80
58 58 61 53 50 56 64 69 73 76 84 86 89 87 83 77 71 66 62 61 59 64 69 74 78 81 85 86 96 100 100 96 88 80 78 88 96 100 98 90 94 97 100
43 49 58 63 60 52 59 66 74 79 84 88 88 90 89 89 84 80 78 77 78 76 76 81 89 94 98 100 100 100 91 96 92 85 86 94 98 100 100 100 99 97 94

GFSMW_250_rhum_087.txt.gz
RH
19 33 62 91 100 100 100 85 94 82 78 80 95 84 90 100 100 100 100 100 100 100 100 90 84 81 80 77 78 80 83 94 100 100 100 100 100 90 92 91 98 85 79
20 19 18 38 86 100 100 100 95 83 80 88 100 96 80 87 95 90 94 100 100 100 100 100 100 100 100 96 95 100 100 100 88 100 100 99 99 92 100 100 85 80 80
22 20 19 17 24 51 91 100 100 100 96 100 100 100 97 94 92 100 100 100 100 100 100 100 100 100 100 100 100 100 100 100 100 100 100 95 99 100 100 90 83 91 85
22 20 20 19 18 18 27 66 97 100 100 99 100 100 100 100 100 100 100 100 89 87 97 96 99 100 100 100 100 100 100 100 100 100 100 100 99 98 99 90 98 100 100
19 20 22 20 19 18 20 20 36 81 100 100 100 100 100 100 100 100 91 91 69 67 83 100 87 100 100 100 100 100 100 100 100 100 100 100 100 96 90 100 100 100 95
19 21 23 22 21 20 19 19 24 47 80 98 100 100 100 100 100 100 100 100 79 63 62 100 100 99 100 100 100 100 100 100 100 100 100 100 100 100 100 100 100 100 100
18 20 22 22 23 22 21 20 19 19 32 76 99 100 100 100 100 100 100 100 100 91 85 82 100 100 100 100 100 100 100 100 100 100 100 100 100 100 100 100 100 100 100
19 21 22 22 24 24 23 20 20 20 19 34 80 100 100 100 100 100 100 100 100 100 93 98 100 100 100 100 100 100 100 100 100 100 100 100 100 100 100 100 100 100 99
21 23 23 25 24 23 24 22 21 22 21 25 39 62 87 99 100 100 100 100 100 100 100 99 99 100 97 100 100 100 100 100 100 100 100 100 100 100 100 100 100 100 95
21 21 21 23 27 25 26 26 24 23 23 22 25 45 60 55 59 86 100 100 100 100 100 100 100 100 100 100 100 100 100 100 100 100 100 100 100 100 100 100 100 98 94
24 24 22 24 28 27 25 27 26 26 25 24 24 24 24 24 29 48 72 93 100 100 100 100 100 100 100 100 100 100 100 100 100 100 100 100 100 100 100 100 100 91 82
25 26 26 24 24 26 27 27 26 24 23 23 24 25 25 25 29 34 43 48 69 89 100 100 100 100 100 100 100 100 100 100 100 100 100 100 100 100 100 92 92 81 75
21 27 28 27 28 25 24 25 26 26 24 24 23 23 23 23 24 26 32 37 34 36 54 78 97 100 100 100 100 100 100 100 100 100 100 100 100 100 100 88 75 72 63
21 24 26 30 30 28 28 25 26 25 24 24 22 21 20 20 20 20 21 24 25 27 29 39 62 85 92 94 95 98 100 99 91 98 96 92 97 87 71 63 61 59 66
21 22 24 25 27 30 31 30 29 29 25 24 24 22 22 21 22 22 22 22 22 24 36 45 41 50 54 59 67 76 78 76 90 92 80 80 76 68 74 71 63 70 59
25 23 21 23 22 22 23 26 29 30 30 27 25 24 24 24 22 22 22 21 23 28 33 37 37 33 32 35 48 56 51 51 50 50 55 65 65 60 66 72 64 64 61
18 19 21 20 23 26 25 24 24 24 26 27 27 28 28 27 26 25 25 26 27 28 27 30 38 41 36 47 51 49 46 46 57 54 56 57 74 70 82 68 56 69 73
20 20 21 22 22 21 22 22 24 25 28 29 30 29 29 28 28 28 26 26 27 29 31 35 35 36 33 36 38 40 40 41 41 40 42 46 62 62 59 57 67 96 87
23 26 28 29 30 33 33 31 28 26 27 28 28 29 27 26 26 25 26 27 28 29 30 31 33 36 37 34 34 31 32 32 28 34 39 54 47 50 64 92 100 86 86
28 34 34 32 33 37 40 39 36 35 33 33 30 27 26 26 26 26 26 26 26 25 27 28 28 29 31 32 32 31 29 31 35 34 38 48 64 79 86 100 92 79 76
22 25 27 26 26 27 28 29 27 27 26 26 26 25 24 24 24 23 24 25 26 27 31 33 34 32 34 36 35 36 37 37 37 46 64 73 84 100 100 97 84 63 68
23 24 23 23 25 27 27 27 28 31 28 30 28 25 23 22 20 19 20 21 23 29 33 39 39 40 40 43 45 45 47 50 56 68 80 76 92 96 92 82 76 71 68
27 30 33 36 38 42 46 50 51 54 54 52 51 49 42 37 34 32 32 31 33 39 45 48 52 49 46 54 53 53 59 73 80 100 100 100 100 95 93 84 76 74 78
53 50 40 36 36 42 48 53 57 66 64 69 71 59 64 60 57 62 62 68 58 60 56 58 54 56 53 57 60 70 74 80 92 99 98 100 98 100 93 80 75 83 94
53 54 58 63 62 54 52 51 54 57 66 75 77 78 81 79 79 76 74 73 76 73 74 79 82 78 79 81 77 91 100 96 88 96 98 100 100 100 90 81 81 93 97
39 47 49 50 53 63 72 69 56 57 61 62 72 78 80 86 86 90 89 86 85 82 77 73 73 79 83 84 89 95 97 98 100 100 100 100 100 100 99 99 98 94 97

GFSMW_250_rhum_090.txt.gz
RH
97 100 100 98 100 100 99 96 97 96 88 80 69 64 64 66 82 85 100 100 100 100 100 100 100 100 100 100 99 100 97 93 93 98 97 100 100 100 100 100 92 90 90
19 38 59 74 68 75 88 84 92 94 95 77 84 72 88 94 100 100 100 100 100 100 100 100 100 100 100 100 100 100 100 100 100 100 100 100 100 100 100 100 100 93 91
18 19 20 28 42 42 46 41 47 70 85 92 78 79 92 100 100 100 100 100 100 100 100 100 100 100 100 100 93 90 99 100 100 100 100 100 100 100 100 100 100 96 99
18 20 21 19 20 20 17 16 17 30 88 77 88 74 91 100 100 100 100 100 100 100 100 100 99 100 85 74 83 77 83 92 100 100 98 99 100 100 100 100 100 100 100
19 16 22 21 20 20 21 17 16 19 52 87 100 80 88 98 100 100 100 100 100 100 79 73 82 78 74 71 65 67 68 75 99 100 100 100 100 100 100 100 100 100 100
20 18 16 25 24 22 23 22 19 17 21 56 74 93 89 90 99 100 100 100 100 100 98 93 99 100 97 92 67 62 73 92 100 100 100 100 100 100 100 100 100 100 100
23 20 15 23 26 23 24 24 23 21 19 17 18 51 85 100 100 100 100 100 100 100 100 100 100 100 98 100 100 92 88 96 100 100 100 100 100 100 100 100 100 100 100
24 24 17 19 24 25 24 24 24 24 23 20 19 18 22 37 76 100 100 100 100 100 100 100 100 100 100 100 100 100 100 100 100 100 100 100 100 100 100 100 100 100 100
25 25 19 15 19 25 24 21 21 24 24 25 22 20 19 19 28 66 93 100 100 100 100 100 100 100 100 100 100 100 100 100 100 100 100 100 100 100 100 100 100 100 100
27 26 21 17 19 24 23 20 21 23 25 25 26 26 24 23 22 27 53 71 90 100 100 100 100 100 100 100 100 100 100 100 100 100 100 100 100 100 100 100 100 100 100
23 25 21 20 20 24 24 22 22 25 26 26 26 27 26 24 24 23 22 27 52 60 69 92 100 100 100 100 100 100 100 100 100 100 100 100 100 100 100 100 100 100 100
18 21 21 22 22 25 25 23 23 23 23 24 26 26 26 25 25 26 24 23 23 22 22 32 65 86 95 96 94 95 83 98 100 100 100 100 100 100 100 100 100 100 100
15 19 26 26 25 25 26 28 28 26 25 24 24 24 24 25 25 25 26 24 23 24 23 23 24 31 38 34 27 29 40 73 92 98 99 79 100 100 100 100 100 97 91
17 17 24 33 31 28 26 27 27 27 26 24 23 24 25 26 26 26 26 26 25 25 25 25 25 24 24 25 27 34 30 45 55 71 70 77 76 90 91 91 88 80 66
20 16 16 20 28 32 31 28 28 28 29 29 26 25 25 25 25 25 24 24 22 21 20 20 21 22 23 24 27 30 33 35 48 64 68 69 80 83 79 69 63 60 50
21 18 17 16 15 19 23 26 30 34 34 32 31 29 28 27 25 24 24 24 22 21 20 21 21 22 24 27 28 34 41 48 54 50 54 63 67 63 58 46 40 42 44
21 18 19 21 21 19 21 24 26 27 28 30 31 30 28 27 27 26 26 26 26 26 25 26 28 28 28 28 29 30 28 28 33 40 46 49 58 45 38 38 34 35 45
21 21 21 22 22 23 23 23 25 25 25 25 26 26 27 27 27 28 28 28 27 27 26 26 26 27 28 29 31 32 39 53 42 52 59 51 35 38 32 29 37 42 41
26 24 23 24 23 24 24 24 24 23 22 24 25 27 28 30 30 30 30 29 28 27 27 27 28 28 28 29 30 31 40 38 40 38 40 36 38 36 33 40 38 52 59
28 28 31 32 35 36 38 37 34 34 34 34 34 33 32 32 31 29 29 29 28 27 27 27 26 26 27 30 33 35 36 37 34 33 32 32 33 38 41 45 51 68 83
29 38 38 39 40 42 40 42 43 42 46 42 34 33 30 27 27 27 26 25 24 24 24 25 25 25 26 27 30 33 35 39 36 37 40 38 40 45 54 65 76 98 95
22 22 23 23 22 22 25 28 33 35 31 30 27 24 24 22 23 21 20 19 19 18 19 20 22 24 26 29 34 35 38 45 43 44 47 48 55 63 68 89 100 100 100
24 22 22 22 23 21 22 24 25 23 22 22 23 26 28 32 33 31 32 29 27 24 23 21 20 23 32 37 37 40 48 50 51 54 68 81 78 86 100 100 100 100 100
34 32 30 27 25 26 27 28 32 36 38 41 46 50 56 60 65 58 56 55 52 48 41 43 50 51 57 56 54 65 76 72 80 82 87 88 96 100 99 99 100 100 97
47 48 47 45 47 46 44 39 39 44 51 53 52 59 64 69 73 75 76 78 78 76 78 74 74 68 72 80 76 79 88 87 94 96 92 98 97 97 98 100 100 100 99
39 43 46 48 49 50 52 55 57 59 58 52 55 56 60 65 72 74 76 81 83 82 80 78 85 89 88 86 88 91 90 91 98 100 88 95 99 100 100 100 100 100 95

GFSMW_250_rhum_093.txt.gz
RH
40 60 99 76 100 98 90 100 100 100 100 100 100 100 96 81 97 84 84 94 99 93 86 93 99 100 100 100 92 99 96 100 100 100 100 100 94 100 89 90 100 93 86
18 31 38 66 97 100 97 80 100 100 100 100 100 100 100 100 94 100 100 100 100 100 100 100 100 100 100 100 100 100 100 100 100 97 95 93 89 81 85 79 76 100 100
21 20 24 37 75 100 95 91 88 88 100 100 100 100 93 97 99 96 97 100 100 100 100 100 98 100 100 100 100 98 98 93 95 84 63 70 77 87 89 93 100 100 100
29 22 20 22 55 99 100 95 76 88 79 92 96 91 100 96 90 100 96 100 100 100 100 92 98 100 100 73 69 83 94 97 99 94 83 64 71 76 81 95 100 93 99
26 34 27 21 22 36 69 99 100 82 82 94 94 97 99 100 97 100 100 100 100 100 100 100 100 100 100 89 98 79 72 88 89 79 79 79 80 87 83 99 100 100 100
26 32 36 31 24 22 22 25 46 76 78 69 86 84 69 68 90 82 91 90 100 100 100 100 100 100 100 100 100 100 98 81 89 92 86 93 100 100 100 95 87 100 100
26 25 28 34 32 30 27 24 22 21 22 23 22 34 52 38 42 33 44 78 100 100 100 100 100 100 100 100 100 99 100 98 100 100 100 94 94 95 90 100 100 94 100
24 22 20 24 27 29 30 28 24 24 22 21 21 22 18 20 22 22 22 27 73 100 100 100 100 100 100 100 100 100 100 100 100 100 100 100 100 100 100 100 95 100 100
25 22 20 23 24 26 28 29 26 25 24 25 24 23 23 21 22 22 21 22 52 78 98 100 100 100 100 100 100 100 100 100 100 100 100 100 100 100 100 100 100 100 100
27 24 23 22 24 24 25 31 30 25 23 24 25 24 22 24 26 24 22 24 23 26 29 32 69 74 90 100 100 100 100 100 100 100 100 100 100 100 100 100 100 100 100
20 22 22 22 23 26 24 25 28 29 26 24 24 23 25 25 24 26 27 24 24 26 26 26 24 24 29 34 50 81 96 100 100 100 100 100 100 100 100 100 100 100 100
16 20 20 22 27 30 27 23 25 30 28 26 23 24 23 26 27 27 26 28 29 28 26 25 24 24 25 25 25 29 37 61 84 92 71 79 82 100 100 100 100 54 66
15 16 20 26 29 32 29 23 24 28 28 25 24 24 25 25 26 25 24 25 28 28 28 25 23 23 24 24 26 27 27 28 30 30 27 28 29 39 46 37 54 56 66
17 18 18 19 21 25 24 24 27 29 28 27 25 25 26 26 26 24 24 25 26 26 26 26 25 23 23 23 24 24 26 28 28 28 27 28 28 30 35 60 59 60 63
16 19 20 20 20 20 18 18 24 29 30 30 28 27 26 26 26 25 25 26 26 26 27 27 28 27 27 26 25 25 27 28 28 28 27 26 26 30 49 76 65 61 56
18 19 18 18 18 16 16 19 21 23 28 32 32 31 30 31 31 31 29 28 26 26 25 25 27 29 29 29 28 27 28 28 28 28 29 28 31 31 33 36 38 49 54
16 17 18 18 18 18 17 18 21 24 25 27 31 33 35 34 32 31 30 29 29 29 28 28 28 28 28 28 29 29 29 29 28 31 35 35 36 35 38 45 42 52 57
18 18 18 21 20 21 20 19 19 20 22 25 27 28 29 30 31 30 31 32 32 32 33 33 35 34 34 33 33 33 32 32 32 32 32 32 32 34 35 38 44 42 38
24 23 22 22 22 23 23 24 26 25 24 24 26 29 29 29 31 35 37 35 33 33 33 32 31 31 29 28 30 30 30 30 29 28 28 32 33 33 36 32 32 37 42
26 28 29 30 30 31 32 31 32 32 30 28 29 30 30 30 30 31 32 32 30 30 28 26 25 25 25 23 22 22 23 22 23 25 28 30 32 35 38 40 40 38 42
28 29 29 30 34 38 43 50 50 50 49 50 47 43 38 36 32 31 31 28 27 25 26 28 25 24 23 23 23 24 24 25 25 27 29 34 38 44 43 48 50 50 54
31 31 31 34 42 44 35 37 38 39 41 42 43 41 38 38 35 34 32 31 26 25 22 21 20 20 19 18 18 19 20 22 25 29 33 40 49 52 58 62 62 70 82
25 25 25 26 26 26 26 23 22 24 27 31 35 38 38 38 36 32 29 26 24 22 21 23 24 24 26 26 27 29 30 31 34 46 60 65 72 79 80 82 84 87 94
25 26 26 27 27 26 25 23 23 23 23 23 23 24 24 24 25 27 29 34 41 42 44 45 42 42 45 49 47 52 60 66 71 74 79 88 90 91 91 93 94 93 92
27 28 30 33 34 34 34 33 32 30 30 29 29 29 29 30 34 40 49 51 53 57 59 62 64 68 73 71 75 76 80 86 87 89 99 96 97 100 100 100 99 100 100
32 34 36 42 45 44 45 46 48 48 49 51 54 56 53 49 47 49 54 57 61 64 70 75 79 80 81 84 87 88 91 97 98 93 91 93 100 96 100 100 98 95 99

GFSMW_250_rhum_096.txt.gz
RH
30 42 83 90 100 100 95 100 100 92 100 100 100 100 91 97 100 100 100 100 100 99 100 100 100 100 100 100 100 100 100 100 100 97 84 96 100 100 100 99 95 91 84
37 31 26 26 40 62 93 90 100 100 86 90 85 95 100 100 100 100 100 100 100 100 100 100 100 100 100 100 100 100 100 95 81 65 69 100 100 98 85 77 85 93 88
52 43 35 26 21 24 51 69 99 99 100 100 97 98 95 93 100 96 98 99 100 100 100 100 100 96 100 84 74 71 66 58 48 46 54 76 95 93 96 87 94 86 75
44 52 52 41 29 23 21 26 41 68 94 97 92 88 95 97 100 100 99 99 100 100 100 100 100 100 100 100 100 95 92 83 88 80 82 82 83 99 98 96 97 97 100
35 39 50 54 44 38 28 21 22 25 36 59 70 88 90 100 100 100 100 100 100 100 100 100 100 100 100 100 100 100 100 98 100 97 100 99 100 100 95 100 86 88 94
39 36 33 37 49 48 37 57 55 38 36 45 42 33 74 94 98 100 97 98 100 100 100 100 100 100 100 100 100 100 100 100 100 100 99 100 98 91 89 89 81 97 100
34 41 39 35 36 45 50 43 33 42 56 51 58 61 64 80 86 90 100 100 100 100 100 100 100 100 100 100 100 100 100 100 100 100 100 100 100 100 100 100 100 100 100
35 40 42 40 39 40 44 49 49 41 31 33 31 43 82 71 62 61 78 100 100 90 96 87 91 100 100 100 100 100 100 100 100 100 100 100 100 100 100 100 100 100 100
29 37 49 53 48 43 43 43 42 45 45 41 34 30 27 39 65 84 89 76 48 43 34 48 44 36 35 59 62 77 100 100 100 100 100 100 100 100 100 100 100 100 100
31 32 36 42 47 49 44 38 36 35 32 38 42 40 36 32 28 25 25 25 28 26 25 24 23 26 28 26 26 34 39 59 86 100 100 98 100 100 100 100 100 100 100
29 29 30 28 33 37 39 37 34 32 31 29 28 31 34 35 35 35 33 31 30 29 28 28 26 25 27 27 27 27 26 27 31 34 53 54 39 58 77 58 47 42 46
22 24 24 25 28 30 28 29 29 29 28 27 25 24 22 22 23 27 31 32 31 30 28 27 27 27 29 28 28 27 28 28 30 31 30 30 29 30 34 35 34 36 39
14 18 20 20 20 22 25 28 26 26 28 28 26 25 24 23 23 25 31 33 31 27 27 28 28 27 27 27 28 28 27 25 24 26 28 28 29 28 27 30 31 34 33
12 13 16 18 18 19 19 21 24 26 27 28 27 26 25 25 24 25 28 30 30 28 26 24 24 26 26 27 28 27 25 24 27 30 30 29 29 30 29 31 33 32 34
14 13 14 17 18 18 18 18 20 23 25 27 28 29 30 30 30 28 30 32 32 28 25 25 26 27 27 27 27 26 27 29 33 34 33 32 32 32 33 31 33 32 33
17 18 19 19 18 18 19 18 18 18 19 20 21 24 26 25 27 29 34 37 36 34 32 30 30 29 28 26 28 29 30 32 30 30 31 30 31 32 32 32 33 33 35
18 18 19 17 17 20 22 23 22 22 21 20 20 22 23 24 23 23 27 35 40 41 38 35 33 32 30 30 32 32 32 31 31 31 32 33 34 33 35 37 37 38 39
21 19 19 20 20 21 23 24 24 23 20 19 20 22 23 23 23 26 29 32 34 39 40 40 38 38 36 36 35 35 34 33 33 32 32 32 33 35 36 35 35 34 34
27 26 23 21 20 20 21 22 23 23 22 21 20 21 22 25 28 30 31 32 33 34 34 35 34 33 32 32 30 28 28 28 26 25 25 24 25 25 26 26 28 32 33
26 30 32 30 29 28 24 22 22 23 24 24 24 25 27 28 28 29 32 33 34 36 36 35 34 32 31 29 26 26 25 25 24 24 24 24 22 24 27 28 30 34 36
26 29 32 36 36 36 36 34 33 34 34 37 39 40 41 39 37 35 34 33 32 32 29 28 29 30 29 29 28 28 28 24 22 20 21 21 22 24 24 26 29 35 42
26 29 33 39 40 43 44 46 52 56 60 56 48 44 41 38 36 35 35 34 31 29 28 29 31 34 31 29 26 22 20 20 21 20 20 20 21 21 22 26 37 51 64
24 29 29 29 36 40 42 45 48 47 45 43 38 35 32 31 33 34 34 33 33 32 32 34 34 31 25 23 25 29 36 33 32 36 33 33 34 37 43 56 73 82 91
23 29 31 30 28 31 33 32 33 33 29 27 25 25 26 28 28 27 28 27 26 27 27 25 25 25 29 38 44 47 49 47 50 52 55 63 68 69 78 85 89 98 100
22 25 27 28 29 29 29 29 29 29 30 30 29 28 26 25 25 26 27 28 29 30 32 34 36 44 52 54 62 69 76 70 64 68 69 75 90 93 100 100 100 100 100
24 26 28 31 31 30 31 32 36 38 38 38 38 39 40 40 43 45 46 48 51 54 56 54 58 62 65 66 68 80 87 98 93 84 78 80 85 94 99 100 100 100 100

GFSMW_250_rhum_099.txt.gz
RH
100 100 100 78 78 96 100 100 95 100 100 100 100 100 98 100 100 92 90 89 97 100 100 100 100 100 100 100 100 100 100 86 81 77 81 69 53 53 61 62 62 75 87
89 100 100 100 98 93 83 100 100 96 77 99 100 100 100 100 95 93 98 99 96 100 100 100 100 100 100 100 100 96 89 92 90 86 81 70 63 58 70 73 78 88 94
38 61 98 100 100 100 100 100 100 90 81 82 95 94 100 99 86 86 91 83 67 69 82 100 100 100 100 100 100 100 100 98 90 91 91 87 92 88 86 79 81 77 80
50 44 48 81 100 100 98 100 89 91 88 93 88 90 97 85 100 94 93 86 87 93 99 100 100 100 100 100 100 89 85 100 100 99 99 100 100 100 100 98 96 85 81
55 53 46 40 51 82 99 100 100 90 80 99 100 100 100 97 99 100 100 100 86 90 91 99 100 100 100 100 100 100 100 100 100 100 100 100 100 100 100 100 100 100 100
43 46 50 56 47 43 42 42 50 73 98 90 92 97 97 96 98 100 100 100 100 100 100 100 100 100 100 100 100 100 100 100 100 100 100 100 100 100 100 99 100 100 100
37 45 45 50 62 59 54 52 46 41 36 48 55 55 53 82 82 93 100 100 100 100 100 100 100 100 97 100 100 100 100 100 100 98 100 100 100 100 100 100 100 100 100
36 37 43 47 49 54 60 64 60 54 48 43 60 61 47 44 51 74 82 76 80 98 100 100 100 100 100 100 94 98 100 100 100 100 100 100 100 100 100 100 100 100 100
27 34 38 46 53 60 58 60 68 68 68 68 69 59 50 45 44 47 61 71 74 96 80 99 82 96 80 70 76 69 61 82 92 98 96 97 89 66 87 91 100 100 100
30 25 26 34 44 46 63 66 68 71 74 74 71 71 68 67 67 61 53 50 60 73 72 43 41 42 58 50 46 60 46 50 48 34 28 27 30 33 34 32 32 41 39
25 25 28 31 34 39 52 57 59 60 62 60 59 63 67 66 61 58 56 53 50 46 42 41 46 57 48 56 67 46 39 31 32 31 31 32 32 32 32 32 32 35 36
26 26 23 24 28 33 42 48 50 53 62 63 57 50 44 42 46 47 47 46 47 49 51 50 46 42 40 40 39 37 37 38 34 34 34 33 31 32 30 30 34 35 32
19 23 24 26 25 27 30 36 44 53 54 52 46 40 37 35 34 33 34 34 36 42 44 47 48 47 45 42 39 36 38 38 37 34 32 33 35 32 31 31 33 33 30
16 17 20 22 23 26 29 31 34 38 39 41 42 40 36 33 30 29 28 27 27 28 30 32 31 30 30 30 30 34 37 37 35 32 28 28 29 31 32 33 32 31 32
12 14 16 18 20 23 25 27 29 30 31 33 35 34 32 31 28 25 24 23 22 23 26 27 28 28 29 30 30 34 35 35 34 32 30 29 29 31 32 32 32 34 33
12 12 13 14 16 18 19 20 22 22 22 25 25 25 25 24 23 21 20 21 23 26 28 30 31 32 33 32 30 29 32 32 33 31 31 30 30 30 31 32 35 34 33
17 17 15 15 15 15 15 15 16 18 20 20 20 20 20 20 20 21 22 24 27 28 29 29 28 26 27 31 31 32 35 35 35 34 34 33 33 33 33 32 32 34 34
17 16 15 15 16 16 16 17 17 18 18 18 19 19 19 19 19 20 20 22 23 23 21 20 22 23 24 26 28 27 28 31 34 35 35 34 33 32 31 30 28 26 25
22 21 20 19 18 17 17 19 19 19 19 19 19 19 19 19 19 20 23 25 26 26 27 27 26 25 24 24 27 27 26 27 28 26 25 24 23 22 22 23 22 22 20
32 30 32 31 28 24 22 22 23 23 22 22 21 21 22 24 24 24 24 27 29 31 32 33 31 29 29 28 29 29 29 26 26 26 24 23 23 22 21 22 23 21 20
37 33 30 30 29 28 29 30 29 27 26 26 26 26 25 25 25 27 27 28 30 32 32 29 27 27 29 29 28 28 29 28 28 29 32 32 32 29 22 20 18 19 19
29 33 34 34 33 32 29 29 34 38 41 41 40 38 37 39 39 38 37 36 34 33 33 31 30 30 30 30 33 36 36 37 35 35 30 24 28 32 29 30 29 31 36
29 33 33 34 38 39 39 40 43 49 51 52 52 54 56 57 56 48 41 38 38 36 34 32 32 34 34 35 38 39 38 36 32 29 31 42 45 48 48 51 51 56 66
24 34 40 39 40 45 47 45 45 49 51 50 51 51 52 50 47 44 38 35 33 32 30 29 31 32 35 34 34 31 31 34 40 50 55 62 61 66 70 69 79 84 92
26 29 35 37 39 40 38 36 36 36 37 37 35 34 36 36 34 30 29 28 27 28 27 28 28 29 30 34 36 40 45 52 60 62 68 75 77 89 85 88 91 93 99
27 32 38 39 35 32 32 32 32 32 32 33 33 32 32 31 31 31 32 32 32 31 33 39 44 50 53 56 59 64 64 65 66 67 74 86 90 88 91 90 93 99 100

GFSMW_250_rhum_102.txt.gz
RH
100 100 100 100 100 100 100 100 86 94 89 100 100 100 100 75 89 94 93 96 98 98 91 86 89 83 84 85 100 100 100 100 100 93 86 81 84 79 71 79 74 62 74
94 100 90 100 100 100 100 100 100 100 100 100 91 100 98 76 69 71 68 93 95 94 100 96 85 92 96 99 94 98 99 99 87 90 84 97 95 85 83 80 76 81 78
99 96 98 100 100 100 100 100 100 100 100 100 100 100 100 91 100 100 100 100 100 100 100 100 100 100 100 100 100 100 100 100 100 96 93 91 83 66 67 61 67 84 83
100 100 86 89 100 100 100 100 99 100 100 86 100 100 100 100 100 100 100 100 100 100 100 100 100 100 100 100 100 100 100 100 100 100 99 87 69 87 96 95 98 83 74
79 93 100 73 98 100 100 100 100 100 100 100 100 100 100 100 100 100 100 100 100 94 100 100 100 100 100 100 100 100 100 100 100 99 100 100 100 100 100 100 87 100 100
52 65 84 94 98 97 99 100 100 100 100 100 100 100 100 100 100 100 100 100 100 100 100 100 100 100 100 100 100 100 100 92 92 98 89 93 97 100 99 100 100 100 100
39 38 58 65 85 100 100 90 87 100 100 100 100 99 100 100 100 100 94 100 84 80 100 92 100 100 100 100 100 100 94 100 100 98 98 99 100 96 100 100 100 100 100
44 45 37 47 63 66 96 100 100 94 86 100 100 99 94 100 100 98 77 91 90 99 100 100 100 100 100 100 100 100 100 95 98 88 84 97 93 68 97 100 100 100 100
38 43 45 45 41 49 69 66 74 99 100 100 100 100 100 100 100 100 100 100 100 100 100 100 100 99 99 100 100 100 100 100 100 100 93 95 79 80 72 67 44 51 38
42 52 52 54 50 51 46 51 63 67 70 79 84 86 88 94 98 93 84 72 62 55 73 88 84 74 65 60 67 78 77 80 80 80 63 41 39 39 38 40 38 38 38
28 36 52 61 58 68 78 81 85 84 61 55 58 60 59 60 59 64 65 64 62 58 58 62 65 60 56 56 52 52 64 55 50 51 57 53 48 47 44 43 44 42 39
16 18 24 38 46 52 62 80 99 99 90 87 90 100 100 93 99 91 81 84 83 71 69 70 71 64 55 55 63 58 54 54 58 58 56 53 52 51 50 49 41 34 36
15 15 14 15 22 31 40 45 47 54 57 70 82 87 98 99 96 93 89 85 82 79 68 60 58 51 48 45 50 50 54 59 58 53 51 46 48 51 45 39 33 35 41
13 15 16 15 18 19 20 25 34 44 50 58 65 62 59 61 64 74 73 69 66 62 56 52 49 49 49 44 41 41 40 38 37 40 39 39 38 36 32 32 34 37 35
16 16 14 18 24 26 27 24 25 28 31 34 39 42 45 47 48 51 57 50 44 41 40 40 39 38 36 35 33 34 34 34 34 33 33 33 33 32 32 32 30 32 33
17 18 17 16 15 18 24 27 30 30 29 33 32 33 35 36 34 35 37 38 39 38 36 35 33 31 29 28 25 25 26 26 27 28 27 29 30 30 30 26 25 26 29
17 17 20 22 22 19 18 18 22 23 24 27 28 32 33 36 38 35 34 33 36 35 34 32 27 24 22 20 19 20 22 24 26 28 29 27 22 19 18 18 18 20 22
21 19 19 20 20 21 18 18 19 19 20 21 23 25 28 31 33 33 34 33 31 28 25 23 22 20 19 19 20 20 20 21 20 20 20 20 19 18 17 18 20 21 22
31 28 23 19 18 16 15 16 15 16 19 18 18 19 20 21 23 24 24 23 22 22 22 22 21 20 21 22 21 21 21 21 21 20 20 19 18 20 20 22 22 24 23
26 29 29 28 25 21 19 19 19 19 20 20 18 17 17 18 19 19 19 20 21 21 22 22 22 23 24 25 23 23 24 24 21 22 23 24 25 24 26 29 30 29 28
18 29 37 40 39 36 34 31 30 29 27 27 25 22 20 20 20 21 21 21 22 25 26 28 27 27 28 26 27 28 26 27 28 28 28 30 32 32 36 39 38 36 27
16 35 53 55 54 48 42 38 38 37 36 35 34 31 27 26 24 23 24 25 26 28 29 28 26 26 28 31 30 32 33 32 34 37 42 45 45 44 44 41 36 41 43
12 20 39 57 61 62 53 43 35 38 42 40 37 36 37 37 37 36 36 35 35 34 31 31 29 28 31 31 34 38 39 44 45 46 44 46 44 39 34 36 54 69 63
12 16 22 37 50 62 63 53 43 38 39 41 42 42 42 43 44 45 45 45 42 39 35 33 35 38 41 44 45 40 38 35 32 34 31 30 32 35 45 60 70 74 80
12 14 19 27 41 52 63 64 64 62 61 61 59 54 55 58 57 54 51 47 45 45 46 48 46 42 36 32 30 29 29 29 29 29 33 41 45 50 60 69 78 85 86
13 14 16 22 37 45 57 65 67 64 64 64 59 53 50 50 49 48 48 48 50 51 46 39 34 32 33 33 33 34 38 45 50 53 64 68 74 78 80 86 93 95 93

GFSMW_250_rhum_105.txt.gz
RH
100 100 100 100 100 100 100 100 94 95 100 100 100 100 82 72 53 51 39 76 67 98 100 100 100 86 88 100 100 100 100 100 100 100 100 100 94 94 93 80 78 76 53
100 100 100 100 100 100 100 100 100 100 100 100 100 100 100 91 56 59 74 89 54 54 61 76 84 87 100 100 100 100 100 98 100 100 95 100 89 66 49 51 46 54 48
100 100 100 100 100 100 100 100 100 100 100 100 100 100 100 100 100 100 69 84 70 73 57 52 85 100 100 100 100 100 100 100 100 100 100 88 62 62 59 48 58 68 63
100 100 100 100 99 100 93 100 100 100 100 100 100 100 98 100 100 97 90 100 100 100 100 36 82 99 100 100 100 100 98 98 94 92 100 90 90 100 95 92 75 67 79
100 100 100 100 100 100 98 100 100 100 100 100 100 100 98 100 100 99 98 100 95 96 91 78 61 84 100 100 100 100 100 100 96 99 100 71 86 92 96 96 91 89 98
100 100 100 100 100 93 100 100 100 100 100 100 100 100 100 100 100 100 98 96 94 93 58 75 96 86 100 100 100 100 100 100 100 94 100 100 99 99 83 91 94 99 99
68 69 99 100 100 93 94 100 100 100 100 100 100 100 100 100 100 100 100 100 100 100 98 100 100 100 100 100 100 100 100 100 100 100 100 100 100 100 92 99 100 100 100
95 84 62 89 89 81 94 100 99 100 100 100 100 100 98 100 100 100 100 100 100 100 100 98 100 100 100 100 100 100 100 100 100 100 100 100 100 100 100 100 99 92 92
97 100 94 83 88 75 68 79 99 100 100 100 100 100 100 92 100 100 100 100 100 100 100 100 100 100 100 100 100 100 100 100 100 100 100 100 99 100 100 86 62 61 67
82 94 100 100 100 100 98 92 69 76 92 100 100 100 100 100 100 100 100 100 100 100 100 100 100 100 100 100 100 100 100 100 100 99 69 70 83 74 72 68 60 53 53
68 71 87 100 100 100 100 100 100 78 69 89 99 99 100 100 100 100 100 100 100 100 100 100 99 100 100 100 100 100 100 100 94 67 62 65 65 63 60 48 48 42 32
51 71 74 64 93 100 94 100 100 100 100 97 81 80 98 100 100 100 100 100 100 100 100 100 100 100 100 100 100 100 81 70 64 62 59 56 52 47 50 50 50 45 39
29 36 55 84 78 63 72 80 97 100 100 100 100 100 95 88 100 100 100 100 100 100 100 100 100 100 100 98 81 67 58 49 48 46 47 53 44 44 49 45 44 39 37
26 22 25 41 72 91 99 96 85 81 86 91 88 87 92 87 89 99 100 98 95 95 90 87 97 94 82 75 65 51 43 39 38 45 45 45 38 39 38 37 35 36 36
21 27 23 27 30 46 64 79 96 98 100 100 96 93 96 87 82 80 85 96 92 88 98 90 79 67 63 66 54 47 49 43 38 36 39 38 34 33 33 32 29 27 24
18 22 25 24 19 26 32 37 46 60 74 80 87 92 100 100 98 99 100 100 97 90 88 84 69 64 62 60 46 43 46 40 38 34 30 31 33 32 26 21 19 21 21
22 26 26 32 34 21 23 19 21 25 30 39 45 56 61 68 69 73 75 79 81 80 82 71 58 57 56 45 40 40 38 33 31 32 33 30 24 22 20 19 19 19 18
30 24 28 34 34 31 23 22 27 26 27 25 25 26 28 32 36 36 37 38 39 42 45 44 42 38 38 36 32 30 31 34 33 27 23 22 21 20 20 20 20 18 18
34 38 31 23 26 28 26 24 22 22 24 27 29 31 26 26 26 33 35 38 38 37 38 34 33 28 29 31 32 32 29 26 24 22 22 21 20 20 20 19 20 21 21
15 30 38 36 29 24 24 25 24 24 20 22 22 23 26 29 32 33 36 34 33 32 30 29 30 30 32 30 26 26 25 23 23 22 23 24 24 25 24 23 25 27 27
8 10 24 35 40 40 34 30 28 27 28 33 36 29 25 24 24 25 24 23 23 23 24 23 23 24 25 24 22 23 23 23 23 24 24 28 28 24 26 29 32 38 44
8 8 8 10 18 29 38 40 38 37 40 40 36 31 27 24 21 19 19 19 20 21 21 21 21 21 21 22 23 25 25 24 24 29 30 28 28 29 34 42 48 50 50
7 9 9 10 11 14 23 39 48 50 51 50 48 43 39 36 33 30 27 25 25 25 25 24 25 25 25 28 27 26 28 30 31 32 31 34 37 41 42 43 39 41 40
6 8 10 11 13 19 31 36 42 51 56 59 57 54 50 45 42 41 39 36 34 33 31 31 32 32 34 35 35 36 38 38 38 40 40 38 35 33 32 32 30 34 40
6 8 10 12 13 14 26 36 41 51 65 77 85 83 77 66 59 53 46 44 41 40 38 36 35 36 37 41 45 44 45 46 43 36 32 31 32 32 34 42 51 58 66
6 7 9 11 15 17 20 30 43 56 63 75 83 88 89 84 76 71 65 56 48 43 42 42 42 43 45 46 51 47 45 39 34 33 39 42 45 50 55 63 71 77 83

GFSMW_250_rhum_108.txt.gz
RH
100 100 100 100 100 100 100 100 100 100 100 100 100 100 100 100 100 100 100 88 72 80 68 81 74 61 51 66 91 100 100 100 100 100 100 98 90 68 57 49 46 39 49
100 100 100 100 100 100 100 100 97 100 100 98 100 100 100 100 100 100 91 85 77 68 63 56 58 37 39 46 77 72 78 81 100 100 100 100 76 68 58 48 41 49 40
100 100 100 100 100 100 100 100 100 100 100 100 100 100 100 100 99 89 95 94 75 66 59 53 53 51 68 66 56 52 67 100 100 97 100 87 61 58 45 43 74 87 59
100 100 100 100 100 100 100 100 100 100 100 100 100 100 100 99 99 100 100 100 93 76 68 74 69 67 71 54 60 77 78 100 99 100 89 63 73 68 57 79 90 100 100
100 100 100 100 100 100 100 100 100 100 100 100 100 100 100 100 100 100 100 100 92 85 100 100 100 100 100 53 55 87 94 84 79 100 100 86 70 100 100 100 100 98 100
100 100 100 100 100 100 100 100 100 100 100 100 100 100 100 100 100 100 100 100 100 100 100 100 100 100 92 84 92 90 93 70 74 85 100 100 100 100 100 100 100 100 97
100 100 100 100 100 100 100 86 85 100 100 100 100 100 100 100 100 100 100 100 95 94 100 100 100 100 100 100 100 100 99 91 100 100 100 100 100 100 100 100 100 100 100
100 100 100 100 100 94 96 99 99 95 100 100 100 99 100 100 100 100 100 100 100 100 100 100 100 100 100 100 100 98 77 88 100 100 100 100 100 100 100 100 100 100 100
100 100 100 100 100 100 100 89 91 88 100 100 100 98 100 99 91 100 100 100 100 100 100 100 100 100 92 93 84 78 88 100 100 90 89 87 100 91 98 100 100 100 100
100 100 100 100 100 100 100 98 77 71 64 91 100 100 100 100 100 100 98 91 100 99 98 85 82 92 100 93 100 100 100 100 100 100 100 100 100 100 100 100 86 100 94
100 100 100 100 100 100 98 93 94 96 76 61 63 76 93 100 100 100 100 85 81 93 99 100 100 100 100 100 100 100 100 100 100 100 99 97 99 100 79 74 84 64 59
100 100 100 100 100 100 100 100 100 100 100 99 97 87 100 99 100 100 100 100 100 100 100 100 100 100 100 100 100 100 100 100 100 100 100 100 100 86 99 77 96 63 69
100 100 100 100 100 100 100 100 100 100 100 100 100 100 100 100 100 100 100 100 100 98 100 100 100 90 100 100 100 100 100 100 100 100 100 90 100 100 95 76 78 59 51
86 98 100 100 100 100 100 100 100 100 100 100 100 100 100 100 100 100 100 100 100 100 100 100 100 100 100 100 100 100 100 100 100 100 100 100 97 99 80 63 62 52 32
40 66 94 100 99 88 86 100 100 100 100 100 100 100 100 100 100 100 100 100 100 100 100 100 100 100 100 100 100 100 100 100 100 100 100 100 96 68 63 57 42 34 35
13 31 48 67 94 100 98 100 84 88 90 91 93 100 100 100 100 100 100 100 100 100 100 100 100 100 100 100 100 100 100 100 100 100 93 89 70 59 50 34 44 36 30
9 10 23 35 47 82 96 100 100 100 100 100 100 100 100 100 100 100 100 100 100 100 100 100 100 100 100 100 100 100 100 92 77 77 72 61 51 45 49 36 32 33 32
16 19 13 12 14 28 44 60 84 100 100 100 100 100 100 100 100 100 100 100 100 100 100 100 100 100 100 100 100 97 88 68 60 58 47 56 41 33 32 31 32 33 26
12 16 21 25 23 22 23 23 34 51 69 87 96 100 100 100 100 100 100 100 100 100 100 100 100 99 84 79 75 74 58 50 56 52 37 28 29 30 34 32 27 24 25
8 11 16 23 28 29 27 25 27 24 27 32 42 60 74 90 96 100 100 100 100 94 97 94 83 80 72 64 59 58 43 35 26 24 25 28 29 25 26 26 26 25 26
6 8 13 19 22 29 34 35 31 28 29 29 34 29 28 37 46 54 61 65 66 62 56 52 45 37 33 28 24 24 26 21 28 31 28 24 22 24 24 25 26 28 28
4 5 8 9 16 23 30 35 40 43 41 42 36 27 24 24 21 23 22 21 22 24 26 22 21 24 23 22 22 27 28 25 26 24 23 23 22 23 25 28 30 29 34
4 4 5 6 8 11 16 26 36 43 48 51 50 45 38 32 31 31 28 25 23 22 23 21 21 25 26 24 24 25 25 25 24 22 23 24 25 29 31 34 37 39 43
4 5 5 5 7 9 10 12 15 23 33 41 48 51 52 51 47 42 38 34 32 30 26 26 28 29 27 25 24 23 24 27 27 28 29 34 38 40 41 40 41 39 35
4 5 5 6 7 7 9 11 14 17 20 31 46 55 60 60 58 57 54 50 47 44 43 42 43 41 36 33 31 31 34 34 34 36 40 42 45 43 43 42 38 34 38
5 5 5 6 7 8 10 12 13 16 20 27 35 41 48 55 61 66 69 70 69 69 66 63 56 50 48 47 41 38 38 38 41 45 48 47 48 46 44 38 44 54 56

GFSMW_250_rhum_111.txt.gz
RH
23 100 100 100 100 100 100 100 100 100 93 99 100 100 100 100 100 100 100 100 100 100 100 100 100 100 98 97 82 62 76 69 52 47 43 43 80 56 77 66 63 66 70
27 100 100 100 100 100 100 100 100 99 100 100 100 94 97 100 100 100 100 100 100 100 100 100 100 100 86 66 54 54 65 59 42 39 37 74 40 36 52 52 57 62 60
33 100 100 100 100 100 100 100 100 100 90 100 100 100 100 100 100 100 100 100 100 100 100 100 100 98 89 88 73 61 62 56 46 62 53 63 54 35 30 37 49 39 25
62 100 100 100 100 100 100 100 99 99 100 100 100 100 100 100 100 100 100 100 100 100 100 100 100 96 85 77 65 68 79 84 66 78 50 33 32 30 39 56 49 39 44
100 100 100 100 100 100 100 100 100 92 100 100 100 100 100 100 100 100 100 100 100 100 100 94 83 84 89 86 61 69 63 100 77 44 56 45 46 49 90 49 56 69 81
100 100 100 100 100 100 100 100 100 100 100 100 100 98 100 100 100 100 100 100 100 100 99 82 94 89 68 62 100 100 100 100 80 57 41 50 58 69 70 73 87 91 100
100 100 100 100 100 100 100 100 100 100 100 100 100 100 100 100 100 100 100 100 100 100 95 100 100 100 100 100 100 100 100 100 86 70 73 83 68 76 89 100 88 100 100
100 100 100 100 100 100 100 100 100 100 100 100 100 100 100 100 100 100 100 100 100 100 100 100 100 100 100 100 100 100 87 98 100 94 75 100 97 100 100 100 100 100 90
100 100 100 100 100 100 100 100 99 100 100 100 100 100 100 100 100 100 100 100 100 100 100 100 100 100 100 100 100 100 90 90 76 84 74 100 75 100 100 100 95 95 58
100 100 100 100 100 100 100 100 100 100 100 100 100 100 100 100 100 100 90 99 100 100 100 100 100 100 98 100 100 100 97 99 100 94 100 100 90 100 72 98 100 100 92
90 100 100 100 100 100 100 100 100 100 100 94 99 100 100 97 100 100 100 98 100 100 100 100 99 100 100 96 100 100 100 100 89 100 100 100 99 100 84 100 78 100 99
99 100 100 100 100 100 100 100 100 100 100 100 96 100 100 100 100 100 100 100 100 100 100 100 100 97 95 100 100 100 100 100 100 100 90 79 74 100 98 100 100 66 87
91 100 100 100 100 100 100 100 100 100 100 100 100 100 100 100 100 100 100 100 100 100 100 100 100 100 100 100 100 100 100 100 100 100 93 96 96 100 99 81 68 90 87
99 91 100 100 100 100 100 100 100 100 100 100 100 100 100 100 100 100 100 100 100 100 98 100 100 100 100 98 100 100 100 100 100 100 100 100 100 100 100 100 100 98 98
93 77 100 100 100 100 100 100 100 100 100 91 100 100 100 100 100 100 100 100 100 100 100 100 100 100 100 100 100 100 100 100 100 100 100 100 100 94 100 100 93 94 100
88 98 100 100 100 100 100 100 100 100 100 100 100 100 100 100 100 100 100 100 100 100 100 91 100 100 100 100 100 100 100 100 100 100 100 100 100 100 100 100 100 95 94
39 92 100 100 100 100 100 100 100 100 100 100 100 100 100 100 100 100 100 100 100 100 100 96 77 91 99 100 100 100 100 100 100 100 100 100 100 100 100 94 85 88 93
22 47 79 95 100 100 100 100 100 100 100 100 100 100 100 100 100 100 100 100 99 98 100 100 100 100 100 100 100 100 100 100 100 100 100 100 100 99 100 95 99 92 96
8 20 31 78 86 100 90 100 100 100 100 100 100 100 100 100 100 100 100 100 100 100 100 100 100 100 100 100 100 100 100 100 96 99 100 100 100 100 89 87 84 75 75
4 8 12 25 70 89 89 99 100 100 100 100 100 100 100 100 100 100 100 100 100 100 100 100 100 100 100 100 100 100 100 100 100 100 99 100 100 100 96 96 80 92 59
4 4 5 9 18 28 39 81 100 100 100 100 100 100 100 100 100 100 100 100 100 100 100 100 100 100 100 100 100 100 100 100 100 100 99 98 100 100 93 91 71 38 22
3 4 5 5 6 9 16 31 44 51 71 90 100 100 100 100 100 100 100 100 100 100 100 100 100 100 100 94 95 89 99 95 100 100 100 96 97 95 78 49 20 16 20
4 3 4 5 5 5 7 10 16 22 27 40 51 56 70 75 70 67 81 84 90 93 86 86 90 91 95 98 87 74 78 82 79 78 77 71 60 40 24 19 19 20 20
6 4 4 3 4 5 5 6 8 10 13 19 23 27 31 34 39 45 52 53 63 71 76 86 92 89 87 82 76 61 55 53 42 31 25 24 24 23 24 22 24 29 32
14 9 6 4 4 4 4 5 5 6 7 9 12 18 24 27 30 33 36 36 34 32 31 32 33 32 32 30 28 26 28 29 29 30 31 31 29 29 32 36 37 40 42
26 22 10 9 6 5 5 5 5 6 7 8 10 12 16 24 32 38 45 51 56 59 58 58 60 62 61 58 54 52 51 48 45 45 47 48 50 47 47 46 47 47 52

GFSMW_250_rhum_114.txt.gz
RH
34 11 17 22 41 100 100 82 100 92 100 100 89 100 98 100 100 100 100 100 100 100 100 100 100 100 100 93 88 100 97 99 100 93 78 78 65 48 42 40 28 29 22
10 12 15 25 28 87 100 100 100 100 98 100 87 97 100 96 90 95 100 100 100 100 100 100 100 100 97 100 100 100 100 100 100 95 79 68 66 59 43 34 29 25 22
12 16 15 28 37 94 100 100 100 100 100 98 100 92 100 100 90 80 93 100 100 100 100 100 100 100 100 100 100 100 100 100 97 95 96 80 57 54 47 37 28 22 19
16 22 22 30 100 100 100 100 99 100 100 100 100 95 100 100 87 83 100 100 100 100 100 100 100 100 100 100 100 100 100 100 92 92 84 86 69 51 43 34 24 20 20
21 23 30 88 100 100 100 100 100 100 100 75 88 100 100 100 100 97 99 99 100 100 100 100 100 100 100 100 100 100 100 100 100 100 100 81 51 36 36 31 26 26 27
27 24 35 100 100 100 100 100 100 100 100 100 100 100 100 100 100 92 100 100 100 100 100 100 100 100 100 100 100 100 100 100 100 100 97 68 58 52 42 42 38 36 40
28 30 89 100 100 100 100 98 100 100 100 100 100 100 100 100 100 100 100 100 100 100 100 100 100 100 100 100 100 100 88 87 84 70 72 70 70 54 81 66 51 53 61
29 53 88 100 100 100 100 100 100 100 100 100 100 100 100 100 100 85 100 100 100 100 100 100 100 100 100 100 100 100 100 100 99 79 88 68 64 91 75 64 58 62 66
30 31 73 100 100 100 100 100 100 100 100 100 100 100 100 100 100 98 94 100 100 96 95 95 100 100 100 100 100 100 100 100 100 100 100 100 90 82 64 68 78 96 92
30 30 39 99 100 100 100 100 100 100 100 100 100 100 100 100 100 100 99 100 100 100 100 100 100 100 100 100 100 100 100 100 94 97 100 100 75 75 95 100 100 100 100
28 32 48 100 100 100 100 100 100 100 100 100 100 100 100 100 100 100 100 100 100 100 100 100 100 100 100 97 94 97 79 99 94 94 97 95 96 100 98 100 100 100 94
30 37 68 100 100 100 100 100 100 100 100 100 100 100 100 100 100 100 100 100 94 80 91 88 87 87 93 100 100 100 100 100 100 100 100 100 100 100 100 100 100 100 100
32 72 100 100 100 100 100 100 100 100 100 97 100 100 100 100 100 100 100 100 100 100 95 98 100 90 75 77 87 100 100 100 100 100 100 85 100 100 100 100 100 100 81
42 50 98 100 100 100 100 100 100 100 100 100 100 100 100 100 100 100 100 100 100 100 100 100 100 98 100 100 97 100 100 100 98 100 100 100 100 100 100 100 100 100 98
22 39 50 60 95 100 100 100 100 100 100 100 100 100 96 100 100 100 100 100 100 100 100 100 100 100 100 100 100 100 100 100 100 100 100 94 100 100 99 90 100 98 100
13 16 49 48 74 100 100 100 100 100 100 100 100 100 100 100 97 100 100 100 100 100 100 100 100 100 100 100 100 100 100 100 100 100 100 100 100 100 100 100 100 100 100
20 15 15 43 70 100 100 100 100 100 100 100 100 100 100 100 100 100 100 100 100 100 100 100 100 100 100 100 100 100 100 100 100 96 100 100 100 100 100 100 100 100 100
8 16 25 16 26 48 97 100 100 100 100 100 100 100 100 100 100 100 100 100 100 98 100 100 100 100 100 100 100 100 100 100 100 100 100 100 100 100 100 100 100 100 72
9 8 12 21 22 25 34 76 100 100 100 100 100 100 100 100 100 100 100 100 100 100 100 100 100 97 99 98 100 100 100 100 100 100 100 100 100 100 100 100 91 62 98
6 9 14 13 25 36 25 22 28 68 99 100 100 100 100 100 100 100 100 100 100 100 100 100 100 100 100 100 100 100 100 100 100 100 100 100 100 100 100 99 82 91 100
5 5 7 9 17 23 36 36 29 36 66 100 100 100 100 100 100 100 100 100 100 100 100 100 100 100 100 100 100 100 99 100 100 100 100 100 100 100 76 95 99 97 73
7 5 5 5 8 11 23 62 69 61 56 54 66 94 100 100 100 100 100 100 100 100 100 100 100 100 100 100 100 95 100 100 100 100 99 100 100 100 100 100 99 92 81
10 9 7 5 4 6 9 9 13 34 69 84 76 66 81 93 88 100 100 100 100 100 100 100 100 100 100 100 100 100 100 100 100 99 100 100 99 100 100 100 97 97 72
22 13 11 10 8 6 5 6 9 10 19 31 80 96 97 100 100 100 100 100 100 100 100 100 100 100 100 100 100 100 100 100 100 100 98 98 100 98 78 82 71 70 56
28 29 26 14 12 10 9 7 5 6 8 9 14 31 42 45 84 100 100 100 100 100 97 100 100 100 100 100 100 100 100 99 100 98 100 97 77 62 52 44 38 41 51
29 30 26 26 26 22 17 12 8 7 5 5 7 8 10 14 19 23 29 57 90 94 92 93 87 88 91 78 81 83 90 81 70 57 52 48 47 47 51 66 70 72 71

GFSMW_250_rhum_117.txt.gz
RH
14 91 100 100 100 98 83 73 100 100 100 76 91 100 100 98 85 100 98 97 100 100 100 100 100 100 100 100 100 100 100 100 100 97 82 93 83 63 88 79 82 81 69
20 12 62 100 75 66 53 100 100 100 97 87 100 100 100 100 100 100 100 98 100 100 100 100 100 100 100 100 100 100 100 100 95 85 100 100 87 93 95 88 82 80 62
20 19 51 74 63 59 90 100 100 100 100 100 100 100 100 100 100 100 100 100 100 100 100 100 99 100 100 100 100 100 100 98 100 100 88 93 100 88 91 87 89 60 44
24 19 33 26 37 86 100 100 100 100 100 99 100 100 96 100 98 100 100 100 100 100 100 100 100 100 100 100 100 100 95 100 100 93 100 100 100 97 96 72 58 52 47
34 15 11 20 32 70 41 68 100 100 99 100 100 100 100 94 95 95 100 100 100 100 100 100 100 100 100 100 100 100 100 100 100 94 100 100 100 82 68 61 53 52 38
30 9 16 28 48 88 37 28 100 100 100 100 100 100 100 100 100 61 99 100 100 100 100 100 96 100 100 100 100 95 99 100 100 100 100 94 72 74 86 74 66 51 36
50 15 44 48 86 76 47 84 100 100 100 100 100 100 100 100 87 99 100 100 100 100 100 100 88 92 100 100 100 100 100 100 100 100 100 100 100 86 81 72 59 40 37
17 21 41 31 41 29 90 100 100 100 100 100 100 95 100 100 100 100 100 100 91 100 100 100 95 100 100 100 100 100 100 100 100 86 100 94 100 91 67 52 44 38 43
23 17 40 46 30 32 58 98 100 100 100 100 100 100 100 97 100 100 100 100 100 100 100 100 99 100 98 100 100 97 100 84 99 100 100 100 78 61 68 57 50 52 71
26 21 26 100 56 35 80 90 100 100 100 100 100 100 100 100 98 96 100 100 100 100 100 100 100 100 100 91 100 100 100 100 100 100 100 82 94 86 74 65 71 92 90
31 20 30 100 75 49 87 100 100 100 100 100 100 100 100 100 100 100 100 100 100 85 84 80 98 100 100 100 99 100 100 100 100 100 100 94 84 66 65 78 92 100 100
43 46 56 100 100 62 66 100 100 100 100 100 100 100 100 100 100 100 100 100 100 100 87 83 71 97 100 100 100 92 96 100 100 90 94 92 76 73 60 74 93 100 100
52 54 54 94 94 78 78 100 100 100 100 100 100 100 100 100 100 100 100 100 100 100 100 100 98 99 100 95 93 97 95 100 96 84 73 86 87 81 97 100 100 95 94
28 49 29 74 97 99 80 79 100 100 100 100 100 100 100 100 100 100 100 100 100 100 100 100 100 100 94 100 100 100 99 89 81 81 100 88 99 100 100 94 100 100 93
10 15 26 24 84 100 100 88 100 100 100 100 100 100 100 100 100 100 100 100 100 100 100 100 100 100 100 100 100 100 100 100 100 95 100 100 100 100 96 100 100 100 100
14 9 10 17 30 69 66 94 100 100 100 100 100 100 100 100 100 100 100 100 100 100 100 100 100 100 100 100 100 100 100 100 100 100 100 100 100 100 100 100 100 100 100
12 16 10 15 19 32 63 100 100 100 100 100 100 100 100 100 100 100 100 100 100 100 100 100 100 100 100 100 100 100 100 100 100 100 100 100 100 100 100 100 100 100 100
7 12 16 12 17 24 68 100 100 100 100 100 100 100 100 100 100 100 100 100 100 100 100 100 100 100 100 100 98 100 100 100 100 100 100 100 100 100 98 100 98 100 92
6 6 11 22 18 15 19 35 69 100 100 100 100 100 100 100 100 100 100 100 100 100 100 100 100 100 100 100 100 100 100 100 100 100 100 100 100 100 100 100 100 100 100
7 6 6 7 12 32 26 18 23 30 49 88 100 100 100 100 100 100 100 100 100 100 100 100 100 100 100 100 100 100 100 100 100 100 100 100 100 100 100 99 83 100 100
15 12 7 5 6 8 17 46 40 30 28 41 78 89 100 100 100 100 100 100 100 100 100 100 100 100 100 100 100 100 100 100 100 100 100 100 100 100 91 97 100 100 100
16 20 18 12 8 6 6 9 21 54 78 71 69 85 100 100 100 100 100 100 100 100 100 100 100 100 100 100 100 100 100 100 100 100 100 100 99 100 100 100 100 96 100
26 24 21 20 15 11 8 6 6 8 13 31 73 75 99 100 100 100 100 100 100 100 100 100 100 100 100 100 100 100 100 100 100 100 100 100 100 100 100 100 100 100 100
25 24 28 25 21 22 19 14 10 6 5 7 10 14 31 58 70 85 97 100 100 100 100 100 100 100 100 100 100 100 100 100 100 100 100 100 100 100 100 100 100 100 90
27 26 27 32 36 35 28 22 17 16 12 9 6 5 7 11 20 39 62 73 97 100 100 100 100 100 100 100 100 100 100 100 100 100 100 100 100 100 100 100 100 100 100
38 30 28 30 27 27 27 28 30 28 19 15 13 11 8 6 6 7 9 10 17 35 65 87 97 97 95 100 100 100 100 100 100 100 100 100 99 95 94 99 99 100 100

GFSMW_250_rhum_120.txt.gz
RH
2 3 7 9 10 23 86 100 94 100 100 82 100 92 95 100 97 100 91 76 64 64 90 100 100 100 100 100 100 100 100 100 100 100 100 100 100 100 94 82 76 77 65
3 3 7 11 20 23 99 100 100 99 100 84 100 98 100 100 100 100 100 97 99 100 78 88 100 100 100 100 100 100 100 100 100 100 100 100 98 92 86 82 72 66 71
3 8 9 14 13 22 80 100 100 100 100 71 100 99 100 100 98 99 100 100 100 100 100 100 95 99 100 100 100 100 100 86 93 97 100 100 91 94 86 68 83 90 85
4 9 14 18 29 30 46 100 96 96 87 78 100 100 98 100 100 100 100 100 100 100 100 100 100 100 100 100 100 100 100 100 98 99 98 88 81 86 66 60 71 72 65
8 11 17 20 18 23 46 100 100 100 63 100 100 100 100 100 91 98 100 100 100 100 100 100 100 100 100 100 100 100 100 100 100 100 100 98 89 69 68 64 78 66 53
16 14 19 32 44 40 44 97 96 89 71 100 100 100 100 100 100 98 100 100 100 100 100 100 100 100 100 100 100 100 99 98 100 100 100 89 100 90 78 68 62 45 45
33 23 24 26 29 34 56 86 96 66 78 100 100 100 100 100 88 76 100 100 100 100 100 100 100 100 100 100 100 100 100 100 99 100 100 99 100 91 100 94 66 72 55
100 64 33 35 28 36 73 95 76 54 92 100 100 100 100 100 84 69 100 100 99 99 100 100 100 100 100 100 96 100 100 100 100 100 100 96 99 76 52 64 92 50 73
86 74 83 87 29 49 48 68 63 78 100 100 100 95 99 100 94 86 72 94 96 81 100 100 100 100 100 100 100 100 100 100 100 100 100 74 81 68 73 56 60 76 81
62 74 100 99 86 45 41 73 89 83 100 100 100 100 100 100 100 100 100 100 100 100 100 100 100 100 100 100 100 100 100 85 84 94 75 87 100 100 100 82 73 82 83
28 72 77 57 61 46 40 96 75 82 100 100 100 100 100 100 100 100 100 100 100 100 96 84 84 92 93 100 100 100 100 100 100 94 100 100 100 98 100 100 100 100 97
17 21 34 23 11 17 17 20 43 100 100 100 100 100 100 100 100 100 100 100 100 100 100 100 100 99 99 89 79 98 96 88 100 99 100 100 94 100 100 100 100 89 95
12 12 12 11 10 24 40 60 84 82 100 69 100 100 100 100 100 100 100 100 100 100 100 100 100 99 100 100 100 100 100 99 71 99 100 100 100 100 100 100 100 96 100
41 30 17 17 10 26 52 77 100 100 100 100 100 100 100 100 100 100 100 100 100 100 100 100 100 100 100 100 100 100 97 99 100 100 100 100 100 100 100 100 97 100 100
32 24 45 36 20 18 29 61 87 100 100 100 100 100 100 100 100 100 100 100 100 100 100 100 100 100 100 100 100 100 96 98 81 77 97 87 72 97 83 98 100 100 100
19 27 42 50 42 32 32 40 79 96 55 100 100 100 100 100 100 100 100 100 100 100 100 100 100 96 97 93 90 91 100 100 100 97 100 100 100 100 75 99 100 89 89
17 20 24 34 57 45 48 48 41 92 84 73 86 100 100 100 100 100 100 100 100 100 100 100 100 100 100 100 100 100 100 99 100 100 100 100 100 100 100 100 100 100 100
9 14 19 54 65 52 58 68 67 82 99 100 99 74 55 67 100 100 100 100 100 100 100 100 100 100 100 100 100 100 100 100 100 100 100 100 100 100 100 100 100 100 100
13 10 9 10 18 38 75 98 92 99 97 100 100 100 100 89 100 100 100 100 100 100 100 100 100 100 100 100 100 100 100 100 100 100 100 100 100 100 100 100 99 97 100
16 15 13 12 9 9 14 26 47 97 100 100 100 100 100 100 100 100 100 100 100 100 100 100 100 100 100 100 100 100 100 100 100 100 100 100 100 100 100 100 100 100 100
23 23 20 19 17 14 10 9 13 34 67 69 96 100 100 100 100 100 100 100 100 100 100 100 100 100 100 100 100 100 100 100 100 100 100 100 100 100 100 100 100 100 100
23 22 24 26 25 20 20 18 12 8 11 29 73 69 79 100 99 96 100 100 100 100 100 100 100 100 100 100 100 100 100 100 100 100 100 100 100 100 100 100 100 100 100
33 31 26 26 24 25 30 28 23 21 18 10 9 22 52 68 82 82 100 100 100 100 100 100 100 100 100 100 100 100 100 100 100 100 100 100 100 100 100 100 100 100 100
40 36 34 30 27 24 23 26 31 34 30 30 27 20 11 9 17 34 60 74 98 100 100 100 100 100 100 100 100 100 100 100 100 100 100 100 100 100 100 100 100 96 97
46 46 43 39 31 30 27 25 21 22 24 25 26 28 27 19 15 11 7 11 30 72 98 100 100 100 100 100 100 100 100 100 100 100 100 100 100 100 100 100 100 100 100
54 49 48 45 43 38 31 29 26 25 23 19 19 20 20 21 20 16 13 12 10 7 9 19 29 47 80 97 94 100 100 100 100 100 100 100 100 100 100 100 100 100 100

GFSMW_250_rhum_123.txt.gz
RH
2 2 3 3 5 7 7 28 38 100 100 100 100 100 100 100 100 100 100 100 65 53 46 34 44 56 100 100 100 100 100 100 100 100 100 100 100 100 100 100 100 99 73
2 2 3 3 5 8 7 10 66 100 100 100 100 100 100 100 97 100 100 100 82 76 71 68 69 71 78 100 100 100 100 100 100 100 100 100 96 75 77 70 59 57 58
1 2 3 4 4 5 6 10 100 100 100 100 100 100 100 97 98 100 100 100 100 100 95 80 67 72 81 90 100 100 100 100 100 100 100 100 94 81 92 66 69 65 54
1 2 3 4 4 4 5 10 75 100 100 95 100 100 100 98 100 100 100 100 100 100 100 99 98 98 97 96 87 94 100 100 100 100 100 91 88 100 90 94 87 96 65
2 2 4 6 6 6 7 11 22 100 100 100 100 100 99 87 100 100 100 100 100 100 100 100 100 100 100 100 100 100 100 100 100 100 100 100 99 99 79 95 89 100 85
2 2 4 8 9 8 10 11 18 100 100 100 100 100 100 89 100 100 100 97 100 100 98 100 100 100 100 100 100 100 100 100 100 100 100 100 100 100 100 100 92 88 82
4 4 5 11 13 20 18 16 78 100 100 99 100 99 100 90 100 100 100 100 100 100 100 100 100 100 100 100 100 100 100 100 100 100 99 100 100 100 100 98 86 96 71
8 5 7 16 22 27 16 21 87 100 100 100 100 100 100 100 94 90 100 100 100 100 100 100 100 100 100 100 100 100 100 100 96 100 100 100 100 100 100 100 96 99 82
20 11 8 21 27 34 44 33 26 95 100 100 100 100 100 88 94 100 100 100 100 100 100 100 100 100 100 100 100 100 100 100 100 100 100 100 99 100 100 100 97 61 61
30 48 29 20 41 55 40 44 28 31 47 100 100 100 99 80 100 100 100 100 100 100 100 100 100 100 100 100 100 100 100 100 100 100 97 92 93 100 100 100 100 100 90
18 28 40 20 21 29 44 51 37 53 60 100 100 100 100 98 90 100 100 100 100 100 100 100 100 100 98 96 90 94 100 100 100 100 100 96 100 75 83 79 100 100 87
11 26 21 34 11 23 40 33 69 42 67 44 63 52 97 100 100 100 100 100 100 100 100 100 100 100 100 88 83 83 84 85 85 74 60 63 83 89 100 91 100 100 100
13 13 28 25 33 20 30 36 36 38 38 48 48 76 100 100 100 100 100 100 100 100 100 100 93 74 75 70 97 97 95 85 96 100 93 97 87 75 91 100 100 100 100
25 23 23 22 44 28 33 55 44 37 34 30 49 96 100 100 100 100 100 100 100 100 100 100 92 97 80 92 85 74 84 100 100 100 100 100 100 90 100 100 100 100 100
29 35 33 36 42 37 58 39 56 29 30 28 45 88 100 100 100 100 100 100 100 100 100 100 100 100 100 100 100 100 99 100 100 100 100 100 100 100 100 100 98 100 93
58 47 61 62 46 64 46 60 38 36 19 29 57 95 100 100 100 100 100 100 100 100 100 100 100 100 100 100 100 100 100 100 100 100 100 100 100 96 84 92 86 87 75
19 27 48 96 76 68 65 56 47 54 62 77 78 100 100 93 100 100 100 100 100 100 100 100 100 100 100 100 100 100 100 100 100 95 99 93 72 79 80 73 96 88 85
27 78 73 61 87 94 89 100 82 83 77 82 95 100 100 100 100 100 100 100 100 100 100 100 100 100 100 100 100 100 100 100 100 100 100 100 100 100 100 100 100 99 100
18 16 13 11 17 38 60 63 84 99 100 99 96 77 69 63 86 100 100 100 100 100 100 100 100 100 100 100 100 100 100 100 100 100 100 100 100 100 100 100 100 100 100
31 23 18 19 17 14 11 12 16 41 89 99 100 100 100 100 100 100 100 100 100 100 100 100 100 100 100 100 100 100 100 100 100 100 100 100 100 100 100 100 100 100 100
35 32 34 31 28 21 18 16 14 11 11 19 36 59 92 100 100 100 100 100 100 100 100 100 100 100 100 98 99 100 100 100 100 100 100 100 100 100 100 100 100 100 100
31 35 34 33 33 32 33 32 27 22 19 17 11 11 18 32 47 96 100 100 100 100 100 100 100 100 100 100 100 100 100 100 100 100 100 100 100 100 100 100 100 100 100
30 30 34 35 36 38 36 36 36 35 32 39 34 29 24 23 21 14 25 58 99 100 94 100 100 100 100 100 100 100 100 100 100 100 100 100 100 100 100 100 100 100 100
35 36 33 35 38 37 35 38 44 42 34 32 36 33 36 41 43 40 27 18 11 12 24 74 95 100 100 100 100 100 100 100 100 100 100 100 100 100 100 100 100 100 100
52 49 45 44 39 44 45 43 44 44 46 45 39 34 33 28 26 26 27 26 24 19 14 11 10 18 48 82 92 100 100 100 100 100 100 100 100 100 100 100 100 100 100
66 63 59 55 50 51 53 48 46 48 48 48 45 41 33 33 28 26 26 22 19 17 16 15 13 12 12 11 11 14 33 69 90 100 100 100 100 100 100 100 100 100 100